     2.11           OBSERVATION DATA    G (GPS)             RINEX VERSION / TYPE
teqc 2010Oct21 OPUS Account 20111026 20:38:19UTC            PGM / RUN BY / DATE
M 1523                                                      MARKER NAME
1192                                                        MARKER NUMBER
CSMIDDLETON NGS                                             OBSERVER / AGENCY
0220379089 TRIMBLE R7 2.28                                  REC # / TYPE / VERS
60124975 TRM41249.00 NONE                                   ANT # / TYPE
  -750993.1329 -5513726.5904  3106695.5197                  APPROX POSITION XYZ
        2.0010        0.0000        0.0000                  ANTENNA: DELTA H/E/N
     1     1                                                WAVELENGTH FACT L1/2
     5    L1    L2    C1    P1    P2                        # / TYPES OF OBSERV
    15                                                      LEAP SECONDS
  2011     8    10    16    54   30.0000000     GPS         TIME OF FIRST OBS
                                                            END OF HEADER
 11  8 10 16 54 30.0000000  0  9G03G08G07G10G16G13G19G23G06
     99408.97358     64617.06655  21067977.8984                   21067975.9774
   -179759.64857   -129463.52754  23910831.5704                   23910830.5204
   -173909.27057   -124595.11356  21961854.8134                   21961851.5784
     32479.80557     18117.16854  23850127.5314                   23850125.6054
    202028.29356    135826.10254  23349509.2504                   23349506.6644
    -17358.40258    -16558.14157  19967059.3444                   19967056.3984
   -101125.28157    -75268.47356  21011284.1804                   21011279.5314
    146150.37558     95964.71956  20497466.0004                   20497461.4264
    144829.69557     95897.03955  22806541.0004                   22806539.3794
 11  8 10 16 55  0.0000000  0 10G03G08G07G10G16G13G28G19G23G06
    137691.87148     94447.87145  21075262.9694                   21075260.8284
   -255897.04747   -188791.34044  23896343.2584                   23896342.4264
   -237129.80147   -173857.87146  21949823.8284                   21949821.1254
     45619.27747     28355.65643  23852627.6094                   23852626.0744
    285084.16846    200544.89544  23365313.9534                   23365312.0434
    -23860.03548    -21624.37547  19965822.0004                   19965819.0234
   -105432.46556    -75934.14853  24534276.8284                   24534277.8914
   -137428.87548   -103556.98846  21004375.4694                   21004371.1954
    197627.48848    136076.69946  20507261.8754                   20507257.3794
    204597.82447    142469.58645  22817914.7114                   22817913.0594
 11  8 10 16 55 30.0000000  0 10G03G08G07G10G16G13G28G19G23G06
    176062.02048    124346.66045  21082564.9924                   21082562.6214
   -332582.73847   -248546.41044  23881750.4844                   23881749.4344
   -300791.62948   -223464.49646  21937709.4144                   21937706.0124
     58702.80947     38550.54343  23855116.3444                   23855117.1054
    367656.80146    264887.12944  23381027.5164                   23381024.2734
    -30265.07048    -26615.34847  19964603.1334                   19964600.1804
   -186859.58646   -139383.77243  24518782.0234                   24518782.8674
   -173639.10947   -131772.75846  20997485.2584                   20997480.5234
    249131.10248    176209.32846  20517062.6724                   20517058.2584
    264301.69147    188992.03945  22829276.0784                   22829274.3594
 11  8 10 16 56  0.0000000  0 11G03G08G07G10G16G13G28G19G23G11G06
    214534.27748    154325.01645  21089885.3984                   21089883.2934
   -409800.40647   -308715.97744  23867056.2424                   23867055.5864
   -364877.77347   -273401.75446  21925513.9534                   21925510.9454
     71744.94547     48713.19143  23857598.8364                   23857598.2344
    449760.66846    328864.10244  23396650.9774                   23396648.2424
    -36556.62948    -31517.88747  19963406.0394                   19963403.0824
   -268549.25846   -203037.96943  24503237.5474                   24503237.4144
   -209738.53547   -159902.18046  20990615.3914                   20990610.9924
    300676.25048    216374.32846  20526871.5864                   20526867.1174
   -108543.82456    -78069.04753  24684176.6804                   24684178.6294
    323955.63347    235475.59045  22840628.0474                   22840626.5274
 11  8 10 16 56 30.0000000  0 11G03G08G07G10G16G13G28G19G23G11G06
    253138.14848    184405.92645  21097232.0234                   21097229.5554
   -487518.79746   -369275.71943  23852266.8914                   23852265.4264
   -429356.18747   -323644.66845  21913244.5084                   21913241.0784
     84775.50047     58866.82044  23860078.9614                   23860077.6644
    531425.37146    392498.89144  23412191.8914                   23412189.0664
    -42702.71548    -36307.07447  19962236.6724                   19962233.7504
   -350469.47346   -266871.80943  24487648.8364                   24487647.6724
   -245694.24647   -187919.61746  20983773.0864                   20983769.2234
    352292.05548    256594.38746  20536693.5314                   20536689.1294
   -192716.03546   -143657.65643  24668158.6884                   24668160.9344
    383588.71947    281942.89145  22851975.2194                   22851974.0314
 11  8 10 16 57  0.0000000  0 11G03G08G07G10G16G13G28G19G23G11G06
    291903.55548    214612.70345  21104608.6954                   21104606.3834
   -565705.63347   -430200.49244  23837388.2194                   23837387.5984
   -494194.04347   -374167.67646  21900906.4224                   21900903.7034
     97824.45346     69034.78543  23862561.5634                   23862560.8484
    612681.29746    455815.13344  23427653.8524                   23427650.9804
    -48670.94948    -40957.66847  19961100.9144                   19961097.7234
   -432588.04346   -330860.25443  24472022.0314                   24472021.6174
   -281473.09047   -215799.23046  20976964.6564                   20976960.5044
    404009.23848    296893.44146  20546535.3524                   20546530.2114
   -277440.90646   -209676.96943  24652035.6254                   24652038.3054
    443230.62947    328417.07045  22863325.0784                   22863323.3554
 11  8 10 16 57 30.0000000  0 11G03G08G07G10G16G13G28G19G23G11G06
    330845.38348    244956.95745  21112019.1564                   21112017.2344
   -644344.21946   -491477.26644  23822424.3524                   23822423.0744
   -559374.02047   -424957.25446  21888502.8204                   21888500.2704
    110906.68046     79228.68843  23865050.6804                   23865050.0704
    693543.07046    518824.25044  23443041.7194                   23443038.7584
    -54444.12148    -45456.26647  19960002.3134                   19959999.0824
   -514887.94946   -394989.98043  24456360.9694                   24456360.3524
   -317057.01248   -243526.95346  20970193.4224                   20970188.9064
    455842.54348    337282.98046  20556398.6724                   20556393.9024
   -362699.60946   -276112.17643  24635812.6564                   24635813.8874
    502895.59847    374909.21945  22874678.8284                   22874677.4734
 11  8 10 16 58  0.0000000  0 11G03G08G07G10G16G13G28G19G23G11G06
    369981.54348    275452.63345  21119466.3284                   21119464.0124
   -723415.09846   -553090.90244  23807376.9224                   23807375.9884
   -624875.69147   -475997.51646  21876038.6804                   21876035.2974
    124039.87146     89462.28544  23867549.8984                   23867549.7664
    774029.14846    581540.60944  23458357.6724                   23458354.2114
    -60002.10948    -49787.19947  19958944.8134                   19958941.5864
   -597349.33246   -459245.51643  24440668.8524                   24440668.4264
   -352424.94148   -271086.37546  20963462.8754                   20963458.6954
    507810.26648    377777.25046  20566287.7894                   20566283.0274
   -448470.31646   -342946.37943  24619490.6884                   24619492.7384
    562601.37547    421433.16045  22886040.5084                   22886038.9024
 11  8 10 16 58 30.0000000  0 11G03G08G07G10G16G13G28G19G23G11G06
    409331.24248    306114.71145  21126954.6804                   21126952.3364
   -802897.09846   -615024.87544  23792251.7274                   23792251.6914
   -690677.48447   -527271.62946  21863516.5084                   21863513.5744
    137242.91446     99750.30143  23870062.6094                   23870062.3014
    854158.76246    643979.21944  23473606.1024                   23473603.0664
    -65323.33648    -53933.63347  19957931.9304                   19957928.7114
   -679951.29746   -523610.62943  24424949.9844                   24424949.3244
   -387555.02747   -298460.46146  20956778.0474                   20956773.7814
    559931.64148    418391.25446  20576206.2034                   20576201.9654
   -534729.73847   -410161.43443  24603076.2664                   24603077.8794
    622366.61347    468003.44945  22897413.2114                   22897411.7734
 11  8 10 16 59  0.0000000  0 11G03G08G07G10G16G13G28G19G23G11G06
    448908.87948    336954.39145  21134485.9694                   21134483.4924
   -882773.52346   -677266.20344  23777052.8284                   23777051.3364
   -756761.85547   -578765.94146  21850941.0234                   21850938.3094
    150530.36346    110104.09443  23872591.4694                   23872590.2194
    933946.44147    706151.38744  23488788.8984                   23488785.8014
    -70390.84048    -57882.37147  19956967.7664                   19956964.9104
   -762676.45346   -588071.73443  24409207.9774                   24409207.1564
   -422428.95348   -325634.94546  20950141.2274                   20950137.3054
    612221.52748    459136.57446  20586156.9774                   20586152.3714
   -621458.87947   -477742.51243  24586571.7034                   24586573.5434
    682205.27347    514630.94945  22908800.5234                   22908798.8524
 11  8 10 16 59 30.0000000  0 11G03G08G07G10G16G13G28G19G23G11G06
    488732.50848    367985.75845  21142063.9614                   21142061.6454
   -963024.42646   -739799.33644  23761781.4144                   23761780.3524
   -823108.23847   -630464.42646  21838315.4694                   21838312.7584
    163920.44147    120537.88343  23875139.5474                   23875138.8444
   1013410.32847    768071.24644  23503910.4694                   23503907.5084
    -75184.67248    -61617.85247  19956055.4614                   19956052.5554
   -845504.26646   -652612.85543  24393445.8914                   24393444.4964
   -457025.79348   -352593.50846  20943558.0164                   20943553.4804
    664698.11348    500027.35946  20596142.8204                   20596138.3634
   -708635.97746   -545672.62943  24569982.6644                   24569984.3244
    742135.29347    561329.62145  22920204.7734                   22920202.8954
 11  8 10 17  0  0.0000000  0 11G03G08G07G10G16G13G28G19G23G11G06
    528813.15248    399217.40645  21149691.0864                   21149688.5594
  -1043636.59847   -802613.94544  23746441.6174                   23746440.9454
   -889702.73047   -682356.23446  21825643.5944                   21825640.4184
    177423.87146    131059.98043  23877708.6094                   23877708.9184
   1092562.05947    829747.86744  23518972.6174                   23518969.4384
    -79690.86748    -65129.20347  19955198.2194                   19955194.7034
   -928421.99646   -717224.01243  24377666.7584                   24377666.2934
   -491331.98848   -379325.60946  20937029.9844                   20937025.4614
    717372.55548    541072.33246  20606166.6484                   20606161.9924
   -796245.62946   -613939.80543  24553310.4614                   24553312.1524
    802167.15647    608107.67244  22931628.3054                   22931626.7704
 11  8 10 17  0 30.0000000  0 11G03G08G07G10G16G13G28G19G23G11G06
    569158.74648    430655.50845  21157368.4534                   21157366.6294
  -1124600.19147   -865702.42244  23731034.1484                   23731033.3594
   -956535.03547   -734433.37146  21812925.8754                   21812922.1644
    191048.64546    141676.64143  23880301.5234                   23880301.5744
   1171410.04747    891187.80144  23533976.5944                   23533973.6454
    -83899.42248    -68408.61747  19954397.3364                   19954393.8914
  -1011419.27046   -781897.21143  24361872.7194                   24361873.1214
   -525336.23048   -405822.42246  20930559.0004                   20930554.7934
    770253.27748    582278.03946  20616229.6414                   20616225.2974
   -884275.52346   -682534.45743  24536559.5394                   24536560.1454
    862308.46947    654970.99644  22943072.8914                   22943071.0354
 11  8 10 17  1  0.0000000  0 11G03G08G07G10G16G13G28G19G23G11G06
    609780.83648    462309.07045  21165098.5314                   21165096.5594
  -1205901.53547   -929054.07844  23715563.3054                   23715562.2544
  -1023590.72747   -786684.53146  21800164.9614                   21800162.1844
    204806.16846    152396.73444  23882919.6884                   23882920.0164
   1249965.61346    952399.87944  23548925.9144                   23548922.4574
    -87796.67648    -71445.45747  19953655.5474                   19953652.0474
  -1094482.55146   -846621.73443  24346066.6644                   24346066.9304
   -559023.78148   -432072.44946  20924148.3834                   20924143.7814
    823351.59848    623653.30546  20626333.8834                   20626329.5474
   -972709.91046   -751444.28143  24519731.1804                   24519732.1524
    922570.31647    701928.24644  22954540.4224                   22954538.8204
 11  8 10 17  1 30.0000000  0 11G03G08G07G10G16G13G28G19G23G11G06
    650686.99648    494183.97745  21172882.9774                   21172880.7424
  -1287530.84447   -992661.28544  23700029.3834                   23700028.2584
  -1090859.23847   -839101.55946  21787364.3054                   21787362.0704
    218704.16446    163226.25043  23885564.3054                   23885564.1954
   1328237.00846   1013390.51244  23563819.6174                   23563817.1564
    -91372.33648    -74231.71147  19952975.1254                   19952971.5554
  -1177602.05146   -911390.13743  24330249.5944                   24330249.7034
   -592383.64548   -458067.14846  20917800.4694                   20917796.3244
    876675.52748    665204.36746  20636481.1484                   20636476.6094
  -1061536.92646   -820660.09443  24502827.2664                   24502828.5434
    982960.17647    748985.22344  22966032.2814                   22966030.3444
 11  8 10 17  2  0.0000000  0 11G03G08G07G10G16G13G28G19G23G11G06
    691887.21948    526288.03145  21180722.7974                   21180721.2194
  -1369476.33247  -1056514.89144  23684435.5394                   23684433.6524
  -1158327.76247   -891674.43446  21774526.1024                   21774522.8054
    232752.85947    174173.25444  23888238.0394                   23888237.5474
   1406234.82047   1074167.96544  23578662.4924                   23578659.5784
    -94614.45348    -76758.05947  19952358.1804                   19952355.1844
  -1260764.58246   -976192.02043  24314424.1334                   24314424.3094
   -625402.99648   -483796.50846  20911516.9614                   20911512.5434
    930235.69548    706939.50846  20646673.2034                   20646668.8984
  -1150742.13746   -890170.54743  24485852.1254                   24485853.9534
   1043487.69947    796149.49644  22977550.7344                   22977548.4574
 11  8 10 17  2 30.0000000  0 11G03G08G07G10G16G13G28G19G23G11G06
    733388.39148    558626.58645  21188620.3594                   21188618.6764
  -1451729.11347  -1120607.94544  23668783.4924                   23668781.6954
  -1225986.74647   -944395.69546  21761650.9694                   21761647.8714
    246958.50846    185242.53944  23890941.2734                   23890941.7304
   1483966.19146   1134737.81644  23593454.4774                   23593451.7664
    -97513.55148    -79017.12147  19951806.6174                   19951803.3014
  -1343961.91046  -1041021.00443  24298592.4614                   24298592.0434
   -658072.09048   -509252.94146  20905300.1334                   20905295.4494
    984038.45348    748863.69546  20656911.4694                   20656907.3874
  -1240314.39846   -959967.03142  24468806.9614                   24468808.4224
   1104159.24247    843425.97744  22989095.8524                   22989094.2544
 11  8 10 17  3  0.0000000  0 11G03G08G07G10G16G13G28G19G23G11G06
    775197.85548    591205.35945  21196576.3984                   21196574.5274
  -1534279.08247  -1184932.55544  23653074.9144                   23653073.5824
  -1293825.35247   -997256.94146  21748741.6094                   21748738.7424
    261328.87947    196440.18044  23893675.5554                   23893676.3204
   1561439.12146   1195106.27344  23608197.3984                   23608194.7464
   -100059.95348    -81001.35247  19951322.0634                   19951318.9574
  -1427183.93747  -1105869.24243  24282755.8984                   24282755.4494
   -690380.12948   -534428.03946  20899152.1884                   20899147.9654
   1038091.71548    790983.07446  20667197.7194                   20667193.2934
  -1330241.80546  -1030040.19143  24451694.8364                   24451695.7194
   1164982.14147    890820.39844  23000669.8984                   23000667.8984
 11  8 10 17  3 30.0000000  0 11G03G08G07G10G16G13G28G19G23G11G06
    817321.27048    624028.78145  21204592.6094                   21204590.2384
  -1617118.57847  -1249482.76244  23637310.7344                   23637310.0204
  -1361835.73848  -1050252.04346  21735799.5234                   21735796.7234
    275869.49246    207770.45344  23896443.1724                   23896442.1174
   1638659.50446   1255277.93844  23622891.3914                   23622889.5354
   -102245.78948    -82704.62147  19950905.9224                   19950902.9064
  -1510422.92247  -1170730.68044  24266916.2584                   24266914.6844
   -722318.75048   -559315.28546  20893074.4694                   20893070.1804
   1092401.03148    833301.96146  20677532.5084                   20677528.2584
  -1420514.66446  -1100382.57043  24434515.9144                   24434516.6644
   1225961.66447    938336.85944  23012273.8984                   23012272.4694
 11  8 10 17  4  0.0000000  0 11G03G08G07G10G16G13G28G19G23G11G06
    859763.91448    657100.94945  21212669.0084                   21212667.3324
  -1700239.51647  -1314252.31643  23621492.9844                   23621491.3284
  -1430008.75048  -1103373.86346  21722826.5004                   21722823.2504
    290586.15246    219237.93444  23899242.7664                   23899243.3834
   1715633.92246   1315257.93044  23637539.1884                   23637537.2344
   -104062.98048    -84120.64146  19950560.3524                   19950557.1094
  -1593670.84447  -1235599.06643  24251074.2974                   24251072.8204
   -753878.98848   -583907.67646  20887068.5474                   20887064.5984
   1146972.79748    875825.36746  20687917.0004                   20687912.5004
  -1511122.53546  -1170985.96542  24417273.7274                   24417275.2034
   1287103.28547    985979.63344  23023908.9454                   23023906.6294
 11  8 10 17  4 30.0000000  0 11G03G08G07G10G16G13G28G19G23G11G06
    902535.11348    690429.12545  21220808.4384                   21220806.3874
  -1783630.58246  -1379232.34043  23605624.2734                   23605622.8204
  -1498332.35548  -1156613.02746  21709824.8594                   21709822.0554
    305488.00046    230849.67644  23902079.4534                   23902079.3914
   1792371.67647   1375053.50844  23652142.0234                   23652139.7664
   -105500.16848    -85240.55147  19950286.9144                   19950283.5084
  -1676916.02346  -1300465.37943  24235232.3364                   24235232.1174
   -785048.75048   -608195.80946  20881137.3984                   20881133.1024
   1201816.14848    918560.39546  20698353.5634                   20698348.9414
  -1602051.79746  -1241839.84043  24399969.9774                   24399971.1054
   1348415.58247   1033755.41044  23035575.4384                   23035574.8594
 11  8 10 17  5  0.0000000  0 11G03G08G07G10G16G13G28G19G23G11G06
    945637.27047    724015.19945  21229010.1484                   21229008.0474
  -1867286.97747  -1444419.08644  23589705.0474                   23589704.0864
  -1566801.62548  -1209965.70346  21696795.7274                   21696792.7664
    320577.02046    242607.28144  23904950.3754                   23904950.2664
   1868875.71547   1434666.97344  23666700.6564                   23666697.8714
   -106553.05948    -86061.00446  19950086.5394                   19950083.6604
  -1760154.28947  -1365326.30143  24219393.5944                   24219392.6764
   -815822.57048   -632175.42246  20875281.3524                   20875276.8674
   1256933.56648    961508.98046  20708842.0314                   20708837.3714
  -1693296.08646  -1312939.14543  24382607.1094                   24382607.8364
   1409900.80947   1081665.94144  23047276.3834                   23047274.8204
 11  8 10 17  5 30.0000000  0 11G03G08G07G10G16G13G28G19G23G11G06
    989076.11347    757863.62545  21237275.9614                   21237274.1764
  -1951200.71947  -1509806.39144  23573736.8134                   23573735.8054
  -1635407.16448  -1263424.57046  21683740.3984                   21683737.3404
    335859.18846    254515.38344  23907858.7034                   23907859.1524
   1945152.80946   1494103.59844  23681215.3914                   23681212.9614
   -107213.29348    -86575.49646  19949960.6564                   19949957.7274
  -1843377.07847  -1430175.17244  24203557.1724                   24203555.9964
   -846191.81648   -655839.77346  20869502.4924                   20869497.9614
   1312331.20348   1004675.91846  20719383.6564                   20719379.5594
  -1784844.35946  -1384275.35243  24365186.4224                   24365186.7234
   1471564.45747   1129715.50044  23059010.8674                   23059009.0274
 11  8 10 17  6  0.0000000  0 11G03G08G07G10G16G13G28G19G23G11G06
   1032855.34447    791977.29345  21245607.1644                   21245604.8794
  -2035365.80147  -1575389.50844  23557720.5554                   23557719.7974
  -1704142.66848  -1316984.69546  21670660.3204                   21670657.9384
    351338.20746    266576.91444  23910803.9144                   23910804.5274
   2021207.12946   1553366.65244  23695688.6724                   23695685.3874
   -107474.68748    -86779.20347  19949911.1254                   19949908.0314
  -1926578.68047  -1495007.52043  24187723.9694                   24187723.2664
   -876149.97748   -679183.79746  20863801.2814                   20863796.8984
   1368012.81648   1048064.13346  20729979.3444                   20729975.2034
  -1876688.68446  -1455842.19143  24347708.5704                   24347709.4024
   1533410.12147   1177906.88344  23070779.7504                   23070778.0314
 11  8 10 17  6 30.0000000  0 11G03G08G07G10G16G13G28G19G23G11G06
   1076979.72347    826359.90245  21254004.0314                   21254001.8324
  -2119774.76247  -1641162.68444  23541658.4614                   23541657.3834
  -1772999.97748  -1370639.74246  21657557.5474                   21657554.5704
    367018.82446    278795.50843  23913788.2894                   23913788.1294
   2097043.83646   1612460.14144  23710119.0004                   23710116.5044
   -107330.82848    -86667.12946  19949938.4694                   19949934.9414
  -2009751.84046  -1559817.70343  24171896.1334                   24171895.5744
   -905688.97748   -702201.20346  20858180.3444                   20858175.7624
   1423983.54748   1091677.64146  20740630.5474                   20740626.1564
  -1968819.57446  -1527632.34043  24330176.8054                   24330177.2624
   1595442.26247   1226243.59044  23082584.2814                   23082582.2894
 11  8 10 17  7  0.0000000  0 11G03G08G07G10G16G13G28G19G23G11G06
   1121454.53147    861015.58245  21262467.2274                   21262465.0234
  -2204420.03547  -1707119.98844  23525550.8914                   23525549.3094
  -1841970.68748  -1424383.14846  21644432.6884                   21644429.4734
    382906.37146    291175.36343  23916811.5634                   23916811.1764
   2172669.29346   1671389.00843  23724510.0554                   23724507.0434
   -106773.74648    -86233.06246  19950044.4384                   19950041.3754
  -2092888.57446  -1624599.47343  24156076.0234                   24156075.3674
   -934800.50048   -724885.50846  20852640.2344                   20852636.1764
   1480248.89848   1135520.72346  20751337.4064                   20751332.8404
  -2061226.94546  -1599637.91843  24312591.5164                   24312592.7464
   1657666.06347   1274729.64144  23094425.1254                   23094422.9144
 11  8 10 17  7 30.0000000  0 11G03G08G07G10G16G13G28G19G23G11G06
   1166282.34847    895946.31645  21270997.4774                   21270995.6334
  -2289296.78947  -1773257.67244  23509399.7114                   23509398.0664
  -1911049.45348  -1478210.74646  21631287.6484                   21631284.8634
    399003.38746    303718.39843  23919874.9694                   23919874.6254
   2248086.96146   1730155.98044  23738861.8054                   23738859.1254
   -105798.82848    -85473.41046  19950229.8134                   19950226.5084
  -2175984.09847  -1689349.17243  24140263.0314                   24140262.0394
   -963479.19948   -747232.55546  20847183.1024                   20847178.8324
   1536811.19948   1179595.19546  20762100.8444                   20762096.7114
  -2153904.19546  -1671853.79743  24294955.3134                   24294956.6214
   1720083.37147   1323366.49644  23106302.5944                   23106301.2074
 11  8 10 17  8  0.0000000  0 11G03G08G07G10G16G13G28G19G23G11G06
   1211465.44547    931153.90245  21279595.9304                   21279593.5394
  -2374399.61747  -1839571.55144  23493205.2814                   23493203.1414
  -1980230.06648  -1532117.71546  21618122.5634                   21618119.4304
    415312.82446    316426.98844  23922978.7974                   23922978.6454
   2323299.79346   1788763.30944  23753174.5554                   23753172.0664
   -104401.34848    -84384.48846  19950495.9694                   19950492.6054
  -2259033.76646  -1754063.17643  24124458.7034                   24124458.9734
   -991719.57848   -769238.03946  20841809.1254                   20841805.0044
   1593673.79748   1223903.66046  20772921.6724                   20772917.1254
  -2246843.92246  -1744274.17243  24277269.4694                   24277270.6804
   1782696.83646   1372156.18044  23118217.1884                   23118216.2854
 11  8 10 17  8 30.0000000  0 11G03G08G07G10G16G13G28G19G23G11G06
   1257007.48847    966641.18845  21288262.3914                   21288260.4734
  -2459722.75847  -1906057.07444  23476968.3834                   23476967.1294
  -2049506.20748  -1586099.10946  21604939.8914                   21604936.7234
    431838.12546    329303.80144  23926123.5164                   23926123.8164
   2398312.06346   1847214.37944  23767448.7194                   23767446.4614
   -102575.34048    -82961.64846  19950843.4614                   19950840.1564
  -2342031.54346  -1818736.70743  24108665.7734                   24108663.7424
  -1019514.77348   -790896.62946  20836519.9694                   20836515.5434
   1650840.15248   1268448.82446  20783799.8284                   20783795.5864
  -2340037.94146  -1816892.69143  24259535.1094                   24259536.3594
   1845510.05146   1421101.51244  23130170.5004                   23130169.0824
 11  8 10 17  9  0.0000000  0 11G03G08G07G10G16G13G28G19G23G11G06
   1302911.59447   1002410.59445  21296997.3594                   21296995.1724
  -2545260.76247  -1972710.02044  23460691.3444                   23460690.2504
  -2118871.41048  -1640149.90646  21591740.2894                   21591737.5554
    448582.10246    342350.98044  23929309.7584                   23929308.8284
   2473127.67646   1905512.20344  23781686.0784                   23781683.3634
   -100315.77748    -81200.98047  19951273.6024                   19951269.9734
  -2424972.17646  -1883365.69143  24092882.1414                   24092881.8014
  -1046859.28548   -812204.04346  20831316.3914                   20831312.4384
   1708313.35248   1313233.07846  20794737.2114                   20794732.1764
  -2433478.51646  -1889703.34443  24241754.1484                   24241754.7814
   1908525.49646   1470204.42644  23142162.1414                   23142160.3404
 11  8 10 17  9 30.0000000  0 11G03G08G07G10G16G13G28G19G23G11G06
   1349180.21547   1038464.03945  21305802.4224                   21305799.6024
  -2631008.18046  -2039526.17244  23444373.9534                   23444372.4414
  -2188319.91848  -1694265.63346  21578524.5864                   21578521.6604
    465547.30146    355570.55944  23932537.2344                   23932537.5084
   2547750.17646   1963659.55144  23795886.3054                   23795884.0204
    -97617.62548    -79098.54747  19951786.5944                   19951783.7734
  -2507850.32046  -1947946.02043  24077110.9454                   24077109.9344
  -1073747.45748   -833155.86346  20826199.8054                   20826195.5664
   1766096.53148   1358258.88746  20805732.9144                   20805728.5124
  -2527157.94546  -1962700.10243  24223927.3284                   24223928.0044
   1971745.77046   1519466.93844  23154192.2814                   23154190.6804
 11  8 10 17 10  0.0000000  0 11G03G08G07G10G16G13G28G19G23G11G06
   1395816.78547   1074804.20345  21314676.7274                   21314674.7034
  -2716959.14546  -2106500.90944  23428017.6644                   23428016.2774
  -2257844.72348  -1748440.78546  21565294.7814                   21565291.9924
    482737.40646    368965.38344  23935809.3674                   23935809.2074
   2622184.24647   2021660.09044  23810050.8524                   23810048.4104
    -94475.44947    -76650.12946  19952384.5084                   19952381.4924
  -2590660.03146  -2012472.97743  24061352.7034                   24061352.0824
  -1100172.79748   -853747.03146  20821171.2894                   20821166.8094
   1824193.33648   1403529.06646  20816788.2814                   20816783.8914
  -2621068.10246  -2035876.66443  24206056.6254                   24206057.1644
   2035174.10946   1568891.59844  23166261.8914                   23166261.0784
 11  8 10 17 10 30.0000000  0 11G03G08G07G10G16G13G28G19G23G11G06
   1442823.44547   1111432.74245  21323621.7814                   21323619.4774
  -2803108.69547  -2173630.36344  23411624.3594                   23411622.9654
  -2327440.42248  -1802671.18746  21552050.4304                   21552047.7304
    500154.49246    382537.07443  23939123.2974                   23939123.2894
   2696432.79347   2079516.04743  23824179.7504                   23824177.3794
    -90884.69148    -73852.16446  19953068.2974                   19953065.2424
  -2673396.85946  -2076943.18443  24045608.4064                   24045607.7034
  -1126130.21148   -873973.58246  20816231.7664                   20816227.3404
   1882605.85948   1449045.27046  20827903.7194                   20827899.9344
  -2715202.22746  -2109227.74643  24188143.3674                   24188143.9694
   2098812.60546   1618480.00044  23178372.0314                   23178370.9494
 11  8 10 17 11  0.0000000  0 11G03G08G07G10G16G13G28G19G23G11G06
   1490202.73447   1148351.64545  21332637.6414                   21332635.6054
  -2889452.01646  -2240910.84844  23395193.5084                   23395191.3134
  -2397101.52748  -1856952.55546  21538794.5004                   21538792.0204
    517800.95746    396287.46944  23942482.1094                   23942481.1054
   2770498.64146   2137229.62943  23838274.3134                   23838272.0044
    -86841.06248    -70701.31247  19953837.7424                   19953834.3714
  -2756056.41847  -2141353.12143  24029878.6564                   24029878.2584
  -1151614.33648   -893831.34446  20811382.0944                   20811377.7704
   1941336.73048   1494809.52346  20839079.8524                   20839075.8364
  -2809552.90246  -2182747.58643  24170188.9924                   24170189.6294
   2162663.28946   1668233.75044  23190522.5864                   23190521.0084
 11  8 10 17 11 30.0000000  0 11G03G08G07G10G16G13G28G19G23G11G06
   1537956.02348   1185561.98445  21341724.7424                   21341722.6564
  -2975985.16046  -2308339.26644  23378726.0864                   23378725.1994
  -2466823.11748  -1911281.06246  21525527.3364                   21525524.6604
    535678.39546    410217.85943  23945884.0634                   23945883.6804
   2844384.53146   2194803.03143  23852334.3134                   23852332.1214
    -82340.82848    -67194.66847  19954694.2584                   19954690.9024
  -2838634.35947  -2205699.56243  24014165.0394                   24014163.9384
  -1176621.21148   -913317.21946  20806623.4614                   20806618.9534
   2000387.85248   1540823.32846  20850316.8754                   20850312.3244
  -2904113.95346  -2256431.34043  24152194.6484                   24152194.7664
   2226727.78846   1718154.09144  23202714.1804                   23202711.8364
 11  8 10 17 12  0.0000000  0 11G03G08G07G10G16G13G28G19G23G11G06
   1586084.50847   1223064.67645  21350883.3204                   21350881.5354
  -3062703.99247  -2375912.33244  23362224.3834                   23362223.7194
  -2536600.32048  -1965652.89846  21512249.2504                   21512246.1174
    553788.34046    424329.44144  23949329.8754                   23949329.8554
   2918093.16846   2252238.24243  23866360.6414                   23866357.9734
    -77380.31648    -63329.35546  19955637.9384                   19955634.6094
  -2921126.96146  -2269979.47343  23998466.5004                   23998465.9534
  -1201146.38348   -932427.74646  20801956.6564                   20801952.2734
   2059760.91048   1587087.99646  20861615.6564                   20861611.3284
  -2998879.07446  -2330274.10543  24134161.6174                   24134161.5044
   2291007.35546   1768242.03544  23214946.0784                   23214944.7814
 11  8 10 17 12 30.0000000  0 11G03G08G07G10G16G13G28G19G23G11G06
   1634591.08247   1260861.97745  21360113.8204                   21360111.7704
  -3149602.77747  -2443625.64844  23345688.4384                   23345686.9964
  -2606427.21147  -2020063.46546  21498961.6484                   21498958.9774
    572133.34046    438624.20344  23952820.9774                   23952820.8014
   2991627.84846   2309537.92243  23880353.7344                   23880351.1024
    -71954.82448    -59101.73046  19956670.5004                   19956667.1644
  -3003529.13746  -2334188.93044  23982786.7814                   23982785.4184
  -1225184.37947   -951158.64546  20797382.2584                   20797377.7274
   2119458.41048   1633605.46946  20872975.3984                   20872970.9884
  -3093840.79746  -2404270.09443  24116090.4304                   24116090.4344
   2355504.19146   1818499.28544  23227219.3204                   23227217.8914
 11  8 10 17 13  0.0000000  0 11G03G08G07G10G16G13G28G19G23G11G06
   3258894.21947   2526552.71945  21669208.7114                   21669206.3954
  -1661255.69947  -1283874.65244  23628911.3674                   23628909.6294
  -1100877.57047   -846907.89546  21785458.0864                   21785455.3014
   2166133.47346   1680702.16044  24256149.3444                   24256148.4264
   4640407.56346   3594301.27743  24194106.0784                   24194103.5744
   1509357.83248   1173089.93446  20257584.1804                   20257581.0554
  -1510415.62146  -1170723.78944  24266916.2274                   24266915.2624
    326688.80948    258093.19546  21092694.1414                   21092689.5704
   3754899.16048   2907974.82846  21184189.8674                   21184185.0434
  -1613570.57446  -1250812.59843  24397776.2424                   24397776.0124
   3995636.53546   3096524.44144  23539326.0784                   23539324.4804
 11  8 10 17 13 30.0000000  0 11G03G08G07G10G16G13G28G19G23G11G06
   3308158.59047   2564940.51645  21678583.5004                   21678580.8014
  -1748504.44547  -1351860.63744  23612308.1174                   23612307.6524
  -1170791.31247   -901386.12946  21772153.2734                   21772150.9304
   2184950.91846   1695365.00843  24259730.0474                   24259729.8714
   4713599.79346   3651334.11743  24208034.4064                   24208031.1644
   1515721.40248   1178048.53546  20258794.9844                   20258791.8794
  -1592627.87146  -1234785.25843  24251271.7894                   24251271.1254
    303636.20348    240130.12546  21088307.1024                   21088302.8834
   3815248.65648   2955000.35546  21195673.8674                   21195669.2504
  -1708908.45346  -1325101.72343  24379634.0314                   24379633.2234
   4060569.93846   3147121.84844  23551682.6564                   23551681.4224
 11  8 10 17 14  0.0000000  0 11G03G08G07G10G16G13G28G19G23G11G06
   3357804.66847   2603625.75045  21688030.3834                   21688028.8984
  -1835920.98447  -1419977.39844  23595673.4924                   23595672.1764
  -1240740.30148   -955891.83646  21758842.8054                   21758840.1454
   2204007.70746   1710214.36344  24263356.4384                   24263356.6994
   4786625.59446   3708237.28143  24221930.6484                   24221927.6844
   1522560.34848   1183377.55147  20260096.3594                   20260093.4804
  -1674738.24646  -1298767.31244  24235646.8364                   24235645.7854
    281083.21148    222556.36346  21084015.7274                   21084011.1214
   3875927.37948   3002282.42246  21207220.7894                   21207216.4264
  -1804423.85946  -1399529.14543  24361458.3674                   24361457.9144
   4125724.71147   3197891.76244  23564081.1724                   23564079.6644
 11  8 10 17 14 30.0000000  0 11G03G08G07G10G16G13G28G19G23G11G06
   3407832.26647   2642608.27345  21697550.4694                   21697548.7584
  -1923502.78947  -1488222.93044  23579007.1414                   23579005.3014
  -1310721.35948  -1010422.51646  21745526.0864                   21745522.7384
   2223303.27046   1725249.79743  24267028.8834                   24267028.5664
   4859485.26246   3765010.97743  24235795.7894                   24235793.3594
   1529876.05148   1189078.06646  20261488.6804                   20261485.5554
  -1756745.06246  -1362668.69143  24220041.6414                   24220040.5124
    259032.15247    205373.71546  21079819.2814                   21079815.0044
   3936934.97748   3049820.75846  21218830.2194                   21218825.7304
  -1900112.51646  -1474091.61343  24343248.6564                   24343249.4024
   4191100.07847   3248833.59444  23576521.6174                   23576520.5204
 11  8 10 17 15  0.0000000  0 11G03G08G07G10G16G13G28G19G23G11G06
   3458242.41047   2681888.87145  21707143.0864                   21707141.0634
  -2011246.23847  -1556594.40644  23562310.4614                   23562309.0394
  -1380730.02048  -1064974.73846  21732203.9924                   21732200.9924
   2242839.04746   1740472.39843  24270746.0234                   24270745.9774
   4932181.21146   3821657.11743  24249629.4694                   24249626.4064
   1537671.77748   1195152.63347  20262972.2344                   20262968.9804
  -1838644.63746  -1426486.50843  24204455.9924                   24204454.8014
    237486.93448    188585.23046  21075719.3674                   21075714.7194
   3998272.76248   3097616.37946  21230502.1804                   21230498.0944
  -1995968.43046  -1548784.41443  24325007.0004                   24325007.5084
   4256696.99247   3299948.01244  23589004.0004                   23589002.9454
 11  8 10 17 15 30.0000000  0 11G03G08G07G10G16G13G28G19G23G11G06
   3509034.21147   2721466.86345  21716808.8674                   21716806.6094
  -2099149.26647  -1625090.20344  23545582.9454                   23545581.4024
  -1450763.45348  -1119546.21546  21718877.0474                   21718873.7584
   2262614.28246   1755881.62743  24274509.0314                   24274508.6644
   5004713.71146   3878175.88344  24263431.7114                   24263428.8364
   1545948.77048   1201602.20746  20264547.4454                   20264544.6724
  -1920435.51646  -1490219.57843  24188891.4304                   24188890.1564
    216449.47747    172192.39846  21071715.8054                   21071711.7814
   4059940.16848   3145668.83246  21242237.0634                   21242232.9224
  -2091987.16047  -1623604.08243  24306737.0084                   24306736.2934
   4322514.59047   3351234.40644  23601528.9144                   23601527.6524
 11  8 10 17 16  0.0000000  0 11G03G08G07G10G16G13G28G19G23G11G06
   3560206.74247   2761341.53945  21726546.8984                   21726544.6214
  -2187209.61347  -1693708.61744  23528826.0164                   23528823.7504
  -1520818.87948  -1174134.85946  21705546.0234                   21705542.6764
   2282628.16446   1771476.76643  24278317.4384                   24278317.3594
   5077083.57846   3934567.91844  24277202.9614                   24277200.8164
   1554708.55148   1208427.98446  20266214.4774                   20266210.9884
  -2002115.54346  -1553866.28543  24173348.2734                   24173347.5204
    195922.23848    156197.14846  21067810.2734                   21067805.2624
   4121936.90248   3193977.91046  21254034.8204                   21254030.3834
  -2188164.42646  -1698547.29343  24288433.7584                   24288434.0784
   4388552.34447   3402692.36344  23614095.7894                   23614093.6524
 11  8 10 17 16 30.0000000  0 11G03G08G07G10G16G13G28G19G23G11G06
   3611758.81347   2801511.96145  21736356.4694                   21736354.8164
  -2275425.48047  -1762448.20344  23512038.6564                   23512037.0354
  -1590894.06248  -1228738.88746  21692210.5474                   21692207.4774
   2302879.39846   1787256.85543  24282172.0084                   24282171.8324
   5149290.47746   3990832.95344  24290944.0164                   24290941.5864
   1563951.62548   1215630.35546  20267973.2814                   20267970.0944
  -2083683.82846  -1617425.96143  24157826.7424                   24157825.6454
    175906.27347    140600.28946  21064001.1414                   21063996.9774
   4184261.58248   3242542.53546  21265894.7584                   21265890.3244
  -2284496.42647  -1773611.11343  24270101.8754                   24270101.9414
   4454808.70347   3454320.65244  23626703.3834                   23626701.5474
 11  8 10 17 17  0.0000000  0 11G03G08G07G10G16G13G28G19G23G11G06
   3663689.38747   2841977.30945  21746238.9534                   21746236.5514
  -2363795.27047  -1831307.74244  23495222.8524                   23495220.6094
  -1660986.27048  -1283356.18746  21678872.6954                   21678869.6484
   2323367.10546   1803221.21143  24286070.2274                   24286069.7934
   5221334.52046   4046971.10244  24304653.2504                   24304651.1334
   1573679.08248   1223210.16046  20269824.4384                   20269821.1134
  -2165138.71546  -1680897.25443  24142325.8594                   24142325.6954
    156403.34448    125403.20346  21060289.5084                   21060285.3834
   4246913.48448   3291362.13746  21277817.2894                   21277812.6684
  -2380979.23846  -1848792.43043  24251742.6254                   24251742.5394
   4521282.57047   3506118.43044  23639353.6484                   23639351.9804
 11  8 10 17 17 30.0000000  0 11G03G08G07G10G16G13G28G19G23G11G06
   3715993.60547   2882733.81645  21756191.5704                   21756189.6954
  -2452321.14147  -1900288.90644  23478376.5704                   23478374.8714
  -1731096.90648  -1337987.84046  21665531.0314                   21665528.2974
   2344086.38746   1819366.02343  24290012.8204                   24290012.3484
   5293212.19946   4102979.61744  24318330.7894                   24318328.6024
   1583888.02748   1231165.16046  20271766.9774                   20271763.8444
  -2246482.83646  -1744282.20343  24126847.2664                   24126846.3524
    137411.11347    110604.06646  21056675.6334                   21056670.8054
   4309887.79748   3340432.96946  21289800.9844                   21289796.6174
  -2477612.42647  -1924090.93743  24233354.1484                   24233353.8284
   4587969.12947   3558081.94944  23652043.8204                   23652042.2544
 11  8 10 17 18  0.0000000  0 11G03G08G07G10G16G13G28G19G23G11G06
   3768667.20347   2923778.13345  21766215.0004                   21766213.3594
  -2541003.33247  -1969391.88744  23461500.9614                   23461499.3244
  -1801226.18748  -1392634.03946  21652185.6804                   21652183.0434
   2365033.17246   1835688.09443  24293998.9064                   24293999.2624
   5364921.23046   4158856.72744  24331976.9224                   24331974.9184
   1594576.35948   1239493.70746  20273800.7194                   20273797.8164
  -2327717.57046  -1807581.93043  24111388.4144                   24111388.4184
    118928.60547     96202.11746  21053158.3134                   21053154.1134
   4373180.73048   3389752.07846  21301845.2274                   21301840.9614
  -2574394.77746  -1999505.69943  24214936.3754                   24214936.8914
   4654864.26647   3610207.98444  23664773.2814                   23664771.6884
 11  8 10 17 18 30.0000000  0 11G03G08G07G10G16G13G28G19G23G11G06
   3821706.17247   2965107.15645  21776308.2034                   21776306.4574
  -2629843.65247  -2038618.07844  23444594.6954                   23444593.4414
  -1871374.75848  -1447295.25046  21638836.8834                   21638834.3794
   2386203.05546   1852184.04343  24298026.8444                   24298027.4924
   5436457.81646   4214599.44143  24345590.1254                   24345587.8164
   1605741.79348   1248194.01246  20275925.9144                   20275922.7774
  -2408844.84046  -1870797.93743  24095950.7504                   24095949.8914
    100953.81347     82195.78946  21049737.7424                   21049733.7584
   4436788.16448   3439316.23846  21313949.2894                   21313944.7384
  -2671325.80947  -2075036.27743  24196491.0634                   24196490.7734
   4721963.52047   3662493.09444  23677541.6254                   23677539.4384
 11  8 10 17 19  0.0000000  0 11G03G08G07G10G16G13G28G19G23G11G06
   3875106.27347   3006717.60545  21786470.0634                   21786468.2194
  -2718842.96547  -2107968.17644  23427658.6804                   23427657.7194
  -1941542.67248  -1501971.54346  21625484.8364                   21625481.2424
   2407592.72746   1868851.20343  24302097.8594                   24302098.1374
   5507819.83646   4270206.16043  24359169.8914                   24359167.3594
   1617382.72748   1257264.84446  20278140.9064                   20278138.0514
  -2489865.98446  -1933931.25844  24080533.0634                   24080532.1644
     83486.05547     68584.55546  21046414.1804                   21046409.5434
   4500706.32048   3489122.52346  21326112.5784                   21326108.6994
  -2768403.98446  -2150681.56243  24178017.3984                   24178017.1414
   4789263.19547   3714934.34444  23690348.6334                   23690346.7034
 11  8 10 17 19 30.0000000  0 11G03G08G07G10G16G13G28G19G23G11G06
   3928863.90247   3048606.62545  21796699.7664                   21796698.2664
  -2808001.67647  -2177442.45344  23410692.4844                   23410691.4574
  -2011730.10548  -1556663.04346  21612128.0944                   21612125.3014
   2429198.31346   1885686.66043  24306208.8054                   24306210.0474
   5579004.78146   4325674.87143  24372716.3054                   24372713.7034
   1629496.97348   1266704.48446  20280446.2424                   20280443.0314
  -2570782.19147  -1996982.80943  24065134.3594                   24065133.0084
     66523.49648     55366.97346  21043186.1254                   21043181.9104
   4564931.75448   3539168.24246  21338334.4454                   21338330.1994
  -2865627.68446  -2226440.24643  24159516.4924                   24159516.2894
   4856759.52046   3767528.84044  23703192.5554                   23703190.9844
 11  8 10 17 20  0.0000000  0 11G03G08G07G10G16G13G28G19G23G11G06
   3982977.35547   3090772.92645  21806997.2894                   21806995.3554
  -2897318.59847  -2247040.03544  23393696.1024                   23393694.5474
  -2081935.05948  -1611368.19146  21598769.0234                   21598766.1564
   2451018.07846   1902688.99243  24310361.2424                   24310361.8164
   5650012.73846   4381005.71143  24386228.0554                   24386226.1454
   1642085.05547   1276513.35246  20282841.9924                   20282838.0904
  -2651593.03546  -2059952.26643  24049757.1174                   24049755.8404
     50067.56348     42544.18046  21040054.9844                   21040050.4264
   4629463.21948   3589452.44146  21350614.5784                   21350610.1524
  -2962993.35546  -2302309.52343  24140988.4144                   24140988.0984
   4924451.05947   3820275.45744  23716074.3364                   23716072.6054
 11  8 10 17 20 30.0000000  0 11G03G08G07G10G16G13G28G19G23G11G06
   4037445.97747   3133215.97345  21817362.3754                   21817360.5234
  -2986791.60947  -2316759.24644  23376670.0314                   23376668.7234
  -2152154.49248  -1666084.63746  21585406.5864                   21585403.7234
   2473051.73446   1919857.96143  24314554.2034                   24314555.1644
   5720843.98446   4436198.82043  24399706.3134                   24399704.6764
   1655147.88748   1286692.15246  20285327.6254                   20285324.4144
  -2732296.37947  -2122837.96544  24034399.9454                   24034398.8244
     34119.86747     30117.39846  21037020.2194                   21037015.8094
   4694299.92248   3639974.47346  21362952.3674                   21362948.0434
  -3060496.40246  -2378285.87543  24122435.0234                   24122434.0554
   4992336.76646   3873173.35944  23728992.1414                   23728990.7734
 11  8 10 17 21  0.0000000  0 11G03G08G07G10G16G13G28G19G23G11G06
   4092268.33247   3175934.66045  21827794.7504                   21827792.5394
  -3076418.82447  -2386598.61344  23359614.2504                   23359612.2114
  -2222385.87148  -1720810.37946  21572042.1564                   21572039.3754
   2495297.97746   1937192.59843  24318787.8754                   24318788.1884
   5791498.82846   4491254.47743  24413151.2344                   24413149.8594
   1668686.27347   1297241.51246  20287903.9064                   20287900.6604
  -2812891.52747  -2185639.34444  24019063.1254                   24019062.6374
     18681.69547     18087.65246  21034082.1484                   21034077.7194
   4759440.87548   3690733.58646  21375348.3914                   21375344.1414
  -3158133.18047  -2454366.43743  24103854.6174                   24103854.6454
   5060415.35946   3926221.57444  23741947.0864                   23741945.7734
 11  8 10 17 21 30.0000000  0 11G03G08G07G10G16G13G28G19G23G11G06
   4147445.13747   3218929.55145  21838294.7584                   21838292.3244
  -3166196.46547  -2456555.19544  23342530.4534                   23342528.8134
  -2292624.47748  -1775541.75046  21558675.7194                   21558673.3674
   2517757.32846   1954693.30143  24323061.9694                   24323062.4104
   5861979.32446   4546174.26643  24426564.5084                   24426561.7504
   1682702.71948   1308163.38746  20290571.0084                   20290567.6564
  -2893374.84046  -2248353.57844  24003747.5084                   24003747.1214
      3756.39147      6457.55146  21031241.9224                   21031237.8444
   4824886.70348   3741730.25846  21387802.3204                   21387798.2894
  -3255898.08247  -2530546.78143  24085250.3204                   24085250.1844
   5128687.54346   3979420.60544  23754939.1414                   23754937.4574
 11  8 10 17 22  0.0000000  0 11G03G08G07G10G16G13G28G19G23G11G06
   4202975.14848   3262199.65645  21848861.7894                   21848859.4064
  -3256121.85547  -2526626.87944  23325417.7664                   23325416.4344
  -2362867.61348  -1830276.64846  21545309.3594                   21545306.3714
   2540429.01246   1972359.47343  24327375.9614                   24327375.7114
   5932286.06346   4600958.66843  24439943.6334                   24439940.8404
   1697198.24648   1319458.57446  20293329.2344                   20293326.5824
  -2973744.74246  -2310979.39844  23988453.5004                   23988452.9304
    -10654.40248     -4771.63746  21028499.6564                   21028494.9774
   4890636.33248   3792963.66446  21400314.0164                   21400309.7664
  -3353786.27347  -2606823.21943  24066623.1804                   24066622.3754
   5197152.52046   4032769.90644  23767966.8594                   23767966.2894
 11  8 10 17 22 30.0000000  0 11G03G08G07G10G16G13G28G19G23G11G06
   4258858.98447   3305745.46945  21859495.8364                   21859493.6414
  -3346191.41847  -2596810.94544  23308278.3204                   23308276.1684
  -2433110.92248  -1885011.69146  21531942.4144                   21531939.5004
   2563313.32046   1990191.30543  24331730.4844                   24331730.3874
   6002420.96946   4655609.19143  24453289.8054                   24453287.0124
   1712174.91848   1331128.68046  20296179.3674                   20296176.3404
  -3053998.48446  -2373514.76244  23973181.4454                   23973180.9454
    -24547.75448    -15597.62946  21025855.8444                   21025851.3914
   4956690.77748   3844434.59046  21412883.6484                   21412879.9224
  -3451792.04747  -2683191.24644  24047972.9614                   24047973.6024
   5265810.71546   4086269.73844  23781032.5314                   23781031.1844
 11  8 10 17 23  0.0000000  0 11G03G08G07G10G16G13G28G19G23G11G06
   4315095.89847   3349566.41845  21870197.6954                   21870195.3874
  -3436403.02347  -2667105.67644  23291111.7734                   23291110.2464
  -2503351.22748  -1939744.38746  21518576.6334                   21518572.8674
   2586409.99246   2008188.62543  24336126.0164                   24336126.5514
   6072384.87546   4710126.46543  24466603.2424                   24466600.2194
   1727633.80548   1343174.53546  20299121.1024                   20299118.1174
  -3134134.37946  -2435958.29744  23957932.3984                   23957931.9734
    -37921.82048    -26018.97346  21023310.6884                   21023306.7194
   5023049.71948   3896142.77746  21425511.6024                   21425507.6254
  -3549910.69547  -2759647.25843  24029301.6644                   24029301.4384
   5334661.62146   4139919.73444  23794133.8134                   23794133.6524
 11  8 10 17 23 30.0000000  0 11G03G08G07G10G16G13G28G19G23G11G06
   4371684.23847   3393661.19145  21880966.0554                   21880964.0594
  -3526754.99247  -2737509.76644  23273918.2504                   23273916.2504
  -2573586.25048  -1994472.96546  21505210.7894                   21505208.2074
   2609717.57046   2026350.23443  24340561.5864                   24340561.6764
   6142177.47746   4764510.24243  24479883.8834                   24479881.8714
   1743575.30948   1355596.45746  20302154.8594                   20302151.6644
  -3214151.63746  -2498309.32444  23942706.0864                   23942705.2034
    -50775.85947    -36035.10946  21020864.6414                   21020860.1954
   5089711.51248   3948086.95346  21438197.1644                   21438192.6254
  -3648138.81247  -2836188.53143  24010609.3594                   24010609.3954
   5403703.39546   4193718.43844  23807272.6254                   23807271.5824
 11  8 10 17 24  0.0000000  0 11G03G08G07G10G16G13G28G19G23G11G06
   4428624.36347   3438030.09045  21891801.7894                   21891799.8164
  -3617243.74247  -2808020.47345  23256699.1484                   23256696.2734
  -2643812.05948  -2049194.35546  21491847.0084                   21491843.9924
   2633236.00046   2044676.22343  24345037.2194                   24345036.2854
   6211800.81646   4818762.12543  24493132.6724                   24493130.8594
   1760001.58648   1368396.11746  20305280.5554                   20305277.3244
  -3294047.02346  -2560565.42644  23927501.4924                   23927500.8874
    -63106.84448    -45643.66846  21018518.2274                   21018513.4614
   5156676.63348   4000267.49246  21450939.9224                   21450935.9104
  -3746470.34846  -2912810.40644  23991897.2584                   23991897.4574
   5472936.69546   4247666.41444  23820447.5164                   23820446.2624
 11  8 10 17 24 30.0000000  0 11G03G08G07G10G16G13G28G19G23G11G06
   4485914.31347   3482671.57845  21902703.3444                   21902701.2894
  -3707867.67247  -2878636.47745  23239453.9064                   23239452.6564
  -2714026.00447  -2103906.52046  21478486.1094                   21478482.7234
   2656964.02746   2063165.49643  24349552.2114                   24349552.7854
   6281255.21946   4872882.39143  24506350.2344                   24506348.2074
   1776912.91048   1381573.74246  20308498.9144                   20308496.0354
  -3373819.71547  -2622725.93444  23912321.9454                   23912320.9454
    -74914.09047    -54844.12146  21016271.8134                   21016267.1684
   5223943.41048   4052683.08646  21463740.5394                   21463736.4574
  -3844901.53946  -2989509.89543  23973166.3284                   23973166.4344
   5542359.96946   4301762.41844  23833658.2114                   23833657.9344
 11  8 10 17 25  0.0000000  0 11G03G08G07G10G16G13G28G19G23G11G06
   4543553.17247   3527584.94945  21913671.3444                   21913669.5944
  -3798624.14547  -2949355.77045  23222183.0554                   23222181.9104
  -2784225.24248  -2158607.21546  21465127.3674                   21465124.4614
   2680900.41446   2081817.13743  24354107.2194                   24354107.5204
   6350541.13746   4926871.35543  24519534.3914                   24519532.5084
   1794309.90648   1395129.81346  20311809.4614                   20311806.5634
  -3453468.38746  -2684789.76244  23897164.6884                   23897164.1644
    -86196.35948    -63635.50846  21014124.3674                   21014119.9774
   5291511.53148   4105333.49646  21476598.5084                   21476594.3054
  -3943428.32847  -3066283.88743  23954417.8284                   23954417.1604
   5611972.38746   4356005.79744  23846905.2114                   23846904.0474
 11  8 10 17 25 30.0000000  0 11G03G08G07G10G16G13G28G19G23G11G06
   4601538.70347   3572768.44945  21924705.7504                   21924703.8094
  -3889512.43747  -3020177.78544  23204887.5164                   23204885.6564
  -2854408.14547  -2213295.19946  21451772.0634                   21451769.0824
   2705043.08246   2100629.52043  24358700.7664                   24358701.5594
   6419657.47346   4980728.15243  24532687.0784                   24532685.2194
   1812192.05948   1409063.92646  20315212.2194                   20315209.0744
  -3532992.97746  -2746756.90644  23882031.4844                   23882030.7544
    -96953.20348    -72017.45746  21012077.5084                   21012072.7464
   5359378.31348   4158216.62546  21489512.8834                   21489508.8284
  -4042046.93746  -3143129.44143  23935650.3134                   23935650.4804
   5681771.48446   4410394.64144  23860187.9844                   23860186.4614
 11  8 10 17 26  0.0000000  0 11G03G08G07G10G16G13G28G19G23G11G06
   4659868.57847   3618220.26245  21935805.4534                   21935803.8714
  -3980531.80147  -3091101.93444  23187567.1414                   23187565.3364
  -2924573.18447  -2267969.24646  21438420.2734                   21438416.9574
   2729390.03146   2119601.07443  24363334.6884                   24363334.8914
   6488603.65546   5034452.39043  24545806.8984                   24545805.9414
   1830558.93448   1423375.74646  20318707.5314                   20318704.2974
  -3612393.09446  -2808627.09444  23866922.3754                   23866921.6764
   -107184.88747    -79990.20346  21010130.4384                   21010126.3554
   5427541.44148   4211330.66846  21502483.7424                   21502480.0314
  -4140755.06246  -3220044.71943  23916866.0474                   23916866.6844
   5751755.00447   4464927.19544  23873505.3674                   23873504.7814
 11  8 10 17 26 30.0000000  0 11G03G08G07G10G16G13G28G19G23G11G06
   4718537.85947   3663936.54745  21946970.3914                   21946968.3754
  -4071683.80547  -3162129.41044  23170221.8364                   23170220.1684
  -2994721.19148  -2322630.03546  21425071.2734                   21425068.2894
   2753936.25046   2138727.93043  24368006.6644                   24368005.4184
   6557376.57446   5088041.61743  24558893.6094                   24558891.9534
   1849407.17648   1438062.66046  20322293.9694                   20322291.2814
  -3691671.44946  -2870402.37944  23851836.0554                   23851835.8094
   -116893.79747    -87555.59046  21008282.9694                   21008277.8954
   5495996.42248   4264672.14146  21515510.5474                   21515506.6724
  -4239551.98046  -3297029.17243  23898066.2664                   23898066.3134
   5821918.17246   4519599.73044  23886857.1954                   23886855.8204
 11  8 10 17 27  0.0000000  0 11G03G08G07G10G16G13G28G19G23G11G06
   4777541.80547   3709913.62145  21958198.0004                   21958196.3554
  -4162969.01647  -3233260.69544  23152850.0554                   23152849.3594
  -3064852.18447  -2377277.55146  21411725.7734                   21411722.8324
   2778677.83246   2158006.96943  24372714.9844                   24372714.6174
   6625973.70346   5141493.87543  24571948.7274                   24571946.0314
   1868734.37948   1453122.79346  20325971.8524                   20325969.1294
  -3770829.55146  -2932083.98844  23836773.1954                   23836771.2194
   -126081.83647    -94715.09846  21006534.6334                   21006529.9614
   5564739.19947   4318237.85546  21528592.2664                   21528588.1094
  -4338436.31646  -3374081.76643  23879249.6804                   23879249.0274
   5892256.85946   4574409.04344  23900242.2274                   23900240.7814
 11  8 10 17 27 30.0000000  0 11G03G08G07G10G16G13G28G19G23G11G06
   4836877.21947   3756148.95745  21969489.4304                   21969487.5664
  -4254387.73047  -3304496.02344  23135453.8524                   23135453.0594
  -3134965.69147  -2431911.46146  21398383.5784                   21398380.5784
   2803610.89846   2177435.23843  24377459.2194                   24377459.5084
   6694393.31346   5194807.79343  24584968.1334                   24584966.0044
   1888538.51248   1468554.55146  20329740.3054                   20329737.3914
  -3849868.50446  -2993672.74244  23821732.2504                   23821731.1294
   -134750.28547   -101469.73446  21004885.2584                   21004881.0394
   5633766.53547   4372025.30946  21541727.7894                   21541723.8954
  -4437406.00446  -3451200.85243  23860415.8524                   23860415.2384
   5962767.72346   4629352.52744  23913660.1804                   23913657.8634
 11  8 10 17 28  0.0000000  0 11G03G08G07G10G16G13G28G19G23G11G06
   4896543.57447   3802642.17645  21980843.6644                   21980841.9694
  -4345936.97747  -3375833.06245  23118032.7034                   23118031.1024
  -3205058.40248  -2486529.14846  21385045.3754                   21385042.4924
   2828735.03546   2197012.41843  24382239.4614                   24382240.3444
   6762636.29746   5247984.09443  24597954.2734                   24597952.3834
   1908821.08648   1484359.12946  20333600.0944                   20333597.1334
  -3928786.34046  -3055167.08644  23806714.3914                   23806713.6604
   -142897.24248   -107818.00846  21003334.7894                   21003330.0474
   5703077.96948   4426034.13745  21554917.0864                   21554913.4064
  -4536456.19546  -3528382.67644  23841567.5864                   23841566.7704
   6033450.48446   4684429.94944  23927110.1484                   23927108.9024
 11  8 10 17 28 30.0000000  0 11G03G08G07G10G16G13G28G19G23G11G06
   4956538.61747   3849391.52345  21992260.2974                   21992258.4304
  -4437615.48047  -3447270.82844  23100587.0474                   23100585.2234
  -3275128.47747  -2541129.21146  21371711.5784                   21371708.4224
   2854048.35946   2216737.00843  24387057.2584                   24387057.3984
   6830702.37946   5301022.53143  24610906.5704                   24610904.8594
   1929581.26648   1500535.85946  20337550.7734                   20337547.8954
  -4007582.80146  -3116566.90644  23791720.1954                   23791719.1804
   -150522.54348   -113759.80546  21001883.6334                   21001879.1054
   5772671.33247   4480262.65246  21568160.3444                   21568156.7854
  -4635583.61746  -3605624.66443  23822704.1724                   23822703.5274
   6104302.77046   4739639.47344  23940593.5864                   23940591.2194
 11  8 10 17 29  0.0000000  0 11G03G08G07G10G16G13G28G19G23G11G06
   5016862.05147   3896396.75045  22003739.3444                   22003737.9104
  -4529420.27347  -3518806.99244  23083116.7114                   23083115.4774
  -3345171.86747  -2595708.46146  21358382.8914                   21358380.3284
   2879550.86346   2236608.98443  24391910.3284                   24391910.8244
   6898593.34046   5353924.53543  24623825.5234                   24623824.2344
   1950820.59448   1517085.95346  20341592.4694                   20341589.5314
  -4086255.44147  -3177870.20344  23776749.1484                   23776747.8834
   -157624.13748   -119293.50446  21000532.4844                   21000527.7504
   5842546.57448   4534710.80146  21581456.7114                   21581453.4264
  -4734782.89146  -3682922.67643  23803826.6094                   23803826.0704
   6175324.75046   4794981.23844  23954107.7584                   23954106.6994
 11  8 10 17 29 30.0000000  0 11G03G08G07G10G16G13G28G19G23G11G06
   5077511.50847   3943656.02345  22015281.2664                   22015278.7854
  -4621349.99647  -3590440.52044  23065623.4454                   23065621.1214
  -3415186.75848  -2650265.51246  21345059.1414                   21345056.1214
   2905240.01246   2256626.39543  24396799.4144                   24396799.5474
   6966308.37546   5406689.42643  24636711.6174                   24636709.4024
   1972538.25848   1534008.78546  20345725.0634                   20345722.4774
  -4164804.12147  -3239076.91444  23761802.0164                   23761800.4384
   -164202.26648   -124419.32446  20999280.2584                   20999275.6414
   5912701.40648   4589376.81645  21594807.3134                   21594803.6134
  -4834050.79346  -3760274.13743  23784936.2814                   23784935.7234
   6246514.21146   4850453.48044  23967655.2034                   23967653.6914
 11  8 10 17 30  0.0000000  0 11G03G08G07G10G16G13G28G19G23G11G06
   5138489.87547   3991171.57845  22026884.6334                   22026882.3834
  -4713397.89147  -3662166.13744  23048107.6724                   23048105.0784
  -3485166.30948  -2704795.02346  21331742.6564                   21331739.7894
   2931118.97746   2276791.72343  24401723.3594                   24401723.0984
   7033852.05146   5459320.81643  24649564.9454                   24649563.1484
   1994739.05948   1551308.07846  20349949.8754                   20349947.2734
  -4243223.65247  -3300182.99244  23746879.1484                   23746877.6024
   -170251.62947   -129133.11346  20998129.1414                   20998124.7154
   5983139.19947   4644263.33645  21608211.0704                   21608207.6054
  -4933378.92246  -3837672.54343  23766034.9534                   23766034.1884
   6317874.01246   4906058.47744  23981234.5234                   23981232.5704
 11  8 10 17 30 30.0000000  0 11G03G08G07G10G16G13G28G19G23G11G06
   5199796.62547   4038943.03945  22038550.7034                   22038548.5274
  -4805561.68447  -3733982.07044  23030569.6024                   23030566.2814
  -3555107.03148  -2759294.28146  21318433.5164                   21318430.7194
   2957186.96146   2297104.33644  24406684.6724                   24406683.9264
   7101225.78946   5511819.73043  24662386.2664                   24662383.5204
   2017423.75448   1568984.43046  20354266.6484                   20354263.4144
  -4321511.87147  -3361186.76644  23731981.5554                   23731979.4304
   -175770.97748   -133433.89846  20997078.9454                   20997074.1884
   6053859.03547   4699369.61745  21621668.7894                   21621665.1374
  -5032762.25046  -3915113.94143  23747122.0784                   23747122.1254
   6389403.76646   4961795.88743  23994846.5084                   23994844.5664
 11  8 10 17 31  0.0000000  0 11G03G08G07G10G16G13G28G19G23G11G06
   5261430.34847   4086969.27045  22050279.6094                   22050277.3094
  -4897838.95347  -3805886.42644  23013009.2584                   23013006.9454
  -3625005.86348  -2813760.88746  21305132.3284                   21305129.1914
   2983443.03946   2317563.53143  24411680.3524                   24411680.9844
   7168429.97746   5564186.57843  24675174.0164                   24675172.2424
   2040592.59048   1587038.04346  20358675.3914                   20358672.4024
  -4399667.80147  -3422087.44944  23717108.6334                   23717106.5164
   -180758.92248   -137320.60546  20996129.9534                   20996124.8554
   6124860.00048   4754694.96145  21635180.0634                   21635176.4304
  -5132196.59046  -3992595.13343  23728200.3914                   23728199.8754
   6461102.61746   5017665.06343  24008488.8754                   24008488.0474
 11  8 10 17 31 30.0000000  0 11G03G08G07G10G16G13G28G19G23G11G06
   5323390.16047   4135249.60545  22062070.3834                   22062067.8244
  -4990226.97747  -3877877.05944  22995428.1254                   22995426.4534
  -3694859.44148  -2868192.24646  21291839.6564                   21291836.6134
   3009886.66446   2338168.86243  24416712.3914                   24416713.0554
   7235466.02746   5616422.40643  24687930.9384                   24687928.9024
   2064246.40248   1605469.55146  20363176.6414                   20363173.8554
  -4477689.78946  -3482883.75044  23702261.0394                   23702259.8444
   -185214.07048   -140792.15246  20995282.1564                   20995277.7304
   6196141.54347   4810238.94946  21648744.1564                   21648740.7974
  -5231677.01647  -4070112.23443  23709270.1414                   23709269.3364
   6532969.86346   5073665.46543  24022165.7584                   24022164.1414
 11  8 10 17 32  0.0000000  0 11G03G08G07G10G16G13G28G19G23G11G06
   5385673.72747   4183782.22344  22073922.3054                   22073920.2114
  -5082724.67247  -3949953.16444  22977826.4454                   22977824.1094
  -3764665.81248  -2922586.82046  21278555.8134                   21278552.7424
   3036515.51246   2358918.50843  24421780.1094                   24421780.5164
   7302333.30146   5668526.69543  24700655.5704                   24700653.3714
   2088384.42248   1624278.35946  20367770.0784                   20367767.1684
  -4555577.26247  -3543575.24644  23687440.4064                   23687438.3054
   -189136.64847   -143848.70746  20994535.5314                   20994531.2504
   6267701.50048   4865999.85945  21662362.1644                   21662358.4694
  -5331200.21946  -4147662.63343  23690331.7814                   23690330.6644
   6605003.38346   5129795.41843  24035873.3444                   24035871.2894
 11  8 10 17 32 30.0000000  0 11G03G08G07G10G16G13G28G19G23G11G06
   5448280.26647   4232566.49244  22085835.7734                   22085833.5474
  -5175329.15247  -4022112.49645  22960204.1094                   22960202.3594
  -3834421.73848  -2976942.08246  21265281.3284                   21265278.6564
   3063328.39846   2379811.54743  24426881.6024                   24426883.0354
   7369033.03946   5720500.41843  24713347.8754                   24713346.4384
   2113007.36748   1643465.03946  20372455.6414                   20372452.7664
  -4633329.03947  -3604161.00043  23672644.0704                   23672642.2814
   -192525.66848   -146489.49646  20993890.6954                   20993886.1134
   6339538.75448   4921976.87145  21676032.2034                   21676028.5594
  -5430761.37547  -4225242.64143  23671385.9304                   23671384.6374
   6677202.34046   5186054.28143  24049612.5394                   24049610.8014
 11  8 10 17 33  0.0000000  0 11G03G08G07G10G16G13G28G19G23G11G06
   5511204.89547   4281598.64545  22097809.8364                   22097807.5044
  -5268041.97747  -4094356.21945  22942561.9144                   22942559.6764
  -3904127.73448  -3031258.44146  21252017.2274                   21252013.8164
   3090320.81346   2400844.46943  24432018.7974                   24432018.6254
   7435562.03946   5772341.08243  24726007.7034                   24726005.6214
   2138112.07848   1663027.12146  20377233.0394                   20377229.9224
  -4710947.26247  -3664642.70344  23657873.5474                   23657871.8244
   -195383.57448   -148716.43746  20993346.9304                   20993342.6094
   6411648.88748   4978166.50445  21689754.4844                   21689750.6414
  -5530359.91847  -4302851.80143  23652432.2194                   23652431.5984
   6749562.30546   5242438.59843  24063382.4774                   24063380.5944
 11  8 10 17 33 30.0000000  0 11G03G08G07G10G16G13G28G19G23G11G06
   5574441.10547   4330873.55145  22109843.7034                   22109841.3674
  -5360865.27347  -4166686.03545  22924898.2034                   22924896.7734
  -3973786.14548  -3085537.69546  21238761.3364                   21238758.2934
   3117486.61346   2422012.56344  24437187.9534                   24437188.8674
   7501915.81646   5824045.27343  24738634.5554                   24738633.4304
   2163693.60248   1682960.73446  20382101.1484                   20382098.1094
  -4788435.96147  -3725023.44543  23643128.7504                   23643126.6914
   -197714.57848   -150532.80946  20992903.2034                   20992898.5354
   6484025.71148   5034563.94545  21703527.3674                   21703523.3754
  -5629996.32846  -4380490.44143  23633472.1884                   23633471.6294
   6822077.12546   5298943.58643  24077181.8364                   24077180.1994
 11  8 10 17 34  0.0000000  0 11G03G08G07G10G16G13G28G19G23G11G06
   5637984.48047   4380387.83644  22121935.2344                   22121933.6054
  -5453799.94547  -4239102.63345  22907212.9064                   22907211.2854
  -4043396.77048  -3139779.73446  21225514.7584                   21225511.5124
   3144821.68446   2443312.52043  24442390.4454                   24442390.2664
   7568092.35946   5875611.34043  24751227.7274                   24751226.6214
   2189749.13748   1703263.71546  20387059.3204                   20387056.3794
  -4865796.84046  -3785304.62144  23628406.7034                   23628405.4104
   -199521.34848   -151940.68446  20992559.7034                   20992554.9104
   6556664.87948   5091165.80545  21717349.6644                   21717346.4344
  -5729669.37547  -4458157.65243  23614504.6254                   23614504.2274
   6894742.40646   5355565.80543  24091009.2034                   24091007.5354
 11  8 10 17 34 30.0000000  0 11G03G08G07G10G16G13G28G19G23G11G06
   5701827.65647   4430135.73845  22134083.8204                   22134082.8634
  -5546849.88747  -4311609.06245  22889506.0394                   22889504.4844
  -4112963.03148  -3193987.20346  21212276.6024                   21212274.0864
   3172318.62146   2464738.59443  24447623.2814                   24447623.8244
   7634086.02346   5927034.84043  24763786.0084                   24763784.6604
   2216272.69148   1723931.37546  20392106.3284                   20392103.6374
  -4943034.80147  -3845489.98444  23613708.7664                   23613706.6334
   -200808.91448   -152943.98446  20992314.2584                   20992310.4844
   6629559.17648   5147966.46945  21731221.4224                   21731218.1994
  -5829380.59046  -4535854.62543  23595530.5004                   23595529.9884
   6967551.16446   5412299.86344  24104864.8204                   24104862.8794
 11  8 10 17 35  0.0000000  0 11G03G08G07G10G16G13G28G19G23G11G06
   5765964.62947   4480112.54745  22146289.4774                   22146287.0354
  -5640017.59447  -4384207.26245  22871777.1024                   22871775.2974
  -4182486.66048  -3248161.44946  21199046.9144                   21199043.8594
   3199971.03946   2486285.82843  24452884.6804                   24452885.6054
   7699892.45746   5978312.54343  24776309.4144                   24776307.0394
   2243259.45348   1744959.98046  20397242.1644                   20397239.1484
  -5020153.62946  -3905582.49644  23599034.0864                   23599032.6454
   -201581.63348   -153546.10946  20992167.3204                   20992162.5704
   6702702.46948   5204961.16045  21745140.0394                   21745136.6804
  -5929130.61747  -4613581.84043  23576548.6724                   23576547.6804
   7040497.46546   5469141.05144  24118745.2114                   24118743.9414
 11  8 10 17 35 30.0000000  0 11G03G08G07G10G16G13G28G19G23G11G06
   5830388.20747   4530312.71145  22158548.8524                   22158546.8834
  -5733305.98447  -4456899.47745  22854024.7664                   22854023.2194
  -4251970.22748  -3302304.47746  21185824.4304                   21185821.5864
   3227772.48046   2507949.19543  24458175.7034                   24458175.8954
   7765506.95646   6029440.67643  24788795.6174                   24788792.4654
   2270704.06648   1766345.36346  20402464.5864                   20402461.6414
  -5097157.67247  -3965585.58244  23584380.2424                   23584379.1174
   -201843.84048   -153750.42646  20992117.7034                   20992112.9454
   6776088.05948   5262144.65645  21759105.3134                   21759101.2544
  -6028920.73847  -4691340.30944  23557559.6564                   23557557.7154
   7113574.73446   5526084.33243  24132651.5554                   24132650.2894
 11  8 10 17 36  0.0000000  0 11G03G08G07G10G16G13G28G19G23G11G06
   5895092.11747   4580731.29345  22170861.1954                   22170859.9304
  -5826718.00847  -4529688.05945  22836249.1954                   22836247.8954
  -4321416.09848  -3356418.14146  21172609.5084                   21172606.2814
   3255716.14846   2529723.40243  24463493.3204                   24463494.0634
   7830924.85546   6080415.57043  24801243.5234                   24801240.8164
   2298601.21948   1788083.36746  20407773.4224                   20407770.4344
  -5174050.97347  -4025502.38344  23569747.8134                   23569746.6094
   -201600.60248   -153560.90246  20992164.0234                   20992159.0124
   6849709.16848   5319511.67645  21773114.9144                   21773111.3794
  -6128751.77747  -4769130.68043  23538562.1724                   23538560.6374
   7186776.51646   5583124.60544  24146581.7274                   24146580.3164
 11  8 10 17 36 30.0000000  0 11G03G08G07G10G16G13G28G19G23G11G06
   5960068.30947   4631362.04345  22183226.0634                   22183224.1804
  -5920257.32447  -4602575.80545  22818449.4064                   22818447.5864
  -4390827.42648  -3410504.88746  21159400.8444                   21159397.7114
   3283795.18846   2551603.07843  24468835.9144                   24468836.9804
   7896141.09046   6131233.39843  24813653.9064                   24813650.4414
   2326945.40648   1810169.70746  20413166.9384                   20413164.0984
  -5250838.39547  -4085336.68744  23555135.5314                   23555134.9304
   -200857.16048   -152981.59846  20992305.3284                   20992300.8284
   6923558.86347   5377056.81345  21787168.0554                   21787164.3954
  -6228625.25447  -4846954.09844  23519556.1414                   23519555.5864
   7260095.75046   5640256.41843  24160534.0554                   24160532.7074
 11  8 10 17 37  0.0000000  0 11G03G08G07G10G16G13G28G19G23G11G06
   6025310.74247   4682200.25445  22195642.1094                   22195639.7074
  -6013927.38347  -4675565.44545  22800624.8134                   22800622.4414
  -4460206.35548  -3464566.38746  21146198.3524                   21146195.8014
   3312002.71146   2573582.86743  24474204.0474                   24474204.1954
   7961150.82046   6181890.21942  24826024.6644                   24826022.1804
   2355730.82048   1832599.87146  20418644.6884                   20418641.7194
  -5327524.42247  -4145091.98844  23540542.8364                   23540541.8284
   -199618.53948   -152016.44546  20992540.9454                   20992536.4454
   6997630.51247   5434774.88745  21801263.1884                   21801259.6174
  -6328542.09447  -4924811.37144  23500543.7974                   23500542.5234
   7333525.79346   5697474.54343  24174507.7424                   24174505.5784
 11  8 10 17 37 30.0000000  0 11G03G08G07G10G16G13G28G19G23G11G06
   6090811.87147   4733240.06345  22208105.8754                   22208103.8094
  -6107730.89547  -4748659.06645  22782774.3444                   22782772.8794
  -4529555.93748  -3518605.01646  21133001.7504                   21132998.7304
   3340331.70346   2595657.30143  24479594.9304                   24479596.2424
   8025948.97746   6232382.23842  24838355.5944                   24838352.7034
   2384951.50048   1855369.18846  20424205.1094                   20424202.7974
  -5404113.85947  -4204772.02044  23525968.5944                   23525967.3554
   -197889.75448   -150669.35246  20992869.8134                   20992865.3984
   7071917.26247   5492660.57445  21815399.8984                   21815396.5904
  -6428503.62546  -5002703.44544  23481521.7114                   23481520.5124
   7407059.90246   5754773.77344  24188500.7424                   24188499.1524
 11  8 10 17 38  0.0000000  0 10G03G08G07G10G13G28G19G23G11G06
   6156565.62547   4784476.70745  22220618.7034                   22220616.3444
  -6201670.61347  -4821858.80545  22764897.8754                   22764896.3284
  -4598877.55148  -3572621.85946  21119809.9774                   21119807.4924
   3368776.38346   2617821.89843  24485008.0164                   24485009.2344
   2414603.31348   1878474.45746  20429847.8834                   20429845.3484
  -5480609.45347  -4264378.93044  23511411.8054                   23511410.6764
   -195674.75448   -148943.37546  20993291.2114                   20993287.0664
   7146412.87948   5550709.00845  21829575.9304                   21829572.4654
  -6528510.45747  -5080630.80544  23462490.1954                   23462489.8324
   7480692.43446   5812149.71543  24202512.3134                   24202511.3524
 11  8 10 17 38 30.0000000  0 10G03G08G07G10G13G28G19G23G11G06
   6222566.69147   4835906.05945  22233178.2424                   22233176.4384
  -6295748.40247  -4895166.16845  22746995.7584                   22746993.6054
  -4668172.70748  -3626618.08246  21106623.7814                   21106620.6174
   3397331.20746   2640072.30543  24490441.5234                   24490442.3714
   2444681.85948   1901912.25446  20435571.7584                   20435568.7344
  -5557015.20347  -4323915.86344  23496872.4694                   23496871.0634
   -192977.46148   -146841.59446  20993804.5164                   20993799.9844
   7221111.85948   5608915.91045  21843790.2274                   21843787.7114
  -6628562.40647  -5158593.33644  23443451.5314                   23443450.4104
   7554417.87946   5869598.03144  24216542.0394                   24216540.8914
 11  8 10 17 39  0.0000000  0 10G03G08G07G10G13G28G19G23G11G06
   6288811.43047   4887525.28944  22245783.7194                   22245782.1764
  -6389963.91847  -4968580.83245  22729066.6024                   22729065.4654
  -4737440.16048  -3680592.71946  21093442.5944                   21093439.5824
   3425992.42245   2662405.58643  24495896.2894                   24495897.3954
   2475185.22348   1925681.07846  20441376.1414                   20441373.3554
  -5633331.97747  -4383383.41844  23482349.8674                   23482348.1844
   -189799.40248   -144365.18446  20994409.6094                   20994404.8754
   7296010.82048   5667278.63345  21858043.8984                   21858040.3164
  -6728657.14546  -5236589.20744  23424403.7424                   23424402.7464
   7628233.09446   5927116.30543  24230588.1174                   24230587.3754
 11  8 10 17 39 30.0000000  0 10G03G08G07G10G13G28G19G23G11G06
   6355298.28547   4939333.18844  22258436.1024                   22258434.3134
  -6484314.50047  -5042100.75045  22711112.6334                   22711110.2584
  -4806677.18048  -3734543.64146  21080267.5004                   21080263.7344
   3454759.00446   2684821.05543  24501369.0864                   24501370.8554
   2506112.37948   1949780.12146  20447261.4304                   20447258.4964
  -5709558.66447  -4442780.80144  23467844.0704                   23467842.7734
   -186140.54348   -141514.12946  20995105.4774                   20995100.9654
   7371108.50048   5725796.20745  21872334.6174                   21872331.1174
  -6828790.22747  -5314614.94144  23405349.2424                   23405347.8364
   7702136.99246   5984703.69543  24244652.0784                   24244650.5864
 11  8 10 17 40  0.0000000  0 10G03G08G07G10G13G28G19G23G11G06
   6422018.77047   4991323.12944  22271132.5944                   22271130.9104
  -6578804.68447  -5115729.45345  22693131.6804                   22693129.3284
  -4875887.47348  -3788473.74246  21067097.0704                   21067094.1414
   3483622.67646   2707312.10243  24506862.8984                   24506864.1134
   2537456.68448   1974204.21546  20453226.2344                   20453223.2854
  -5785700.84847  -4502112.31244  23453354.7194                   23453353.5634
   -182007.01248   -138293.18746  20995892.1094                   20995887.7344
   7446396.54348   5784462.11345  21886661.4454                   21886657.6054
  -6928963.71147  -5392672.19544  23386286.8914                   23386285.4844
   7776121.64546   6042354.02343  24258730.2814                   24258730.2424
 11  8 10 17 40 30.0000000  0 10G03G08G07G10G13G28G19G23G11G06
   6488966.48047   5043490.11744  22283872.2274                   22283870.2504
  -6673436.98047  -5189468.89145  22675123.5474                   22675121.8634
  -4945073.56648  -3842384.97746  21053931.3284                   21053928.1094
   3512576.84046   2729873.62943  24512373.0474                   24512373.5594
   2569212.94148   1998949.31346  20459269.1954                   20459266.2424
  -5861763.17247  -4561381.60244  23438880.1334                   23438879.6374
   -177403.52348   -134706.05946  20996768.6254                   20996764.0164
   7521868.75048   5843271.52345  21901023.2664                   21901019.8954
  -7029178.67247  -5470761.72344  23367215.9064                   23367215.4344
   7850180.61346   6100062.21543  24272823.4844                   24272822.3054
 11  8 10 17 41  0.0000000  0 10G03G08G07G10G13G28G19G23G11G06
   6556133.67647   5095828.14545  22296653.8444                   22296651.9614
  -6768215.80147  -5263322.49245  22657088.0554                   22657085.4024
  -5014238.64548  -3896279.84046  21040769.7194                   21040766.6524
   3541613.88345   2752499.84442  24517897.3914                   24517898.6134
   2601374.68048   2024010.37146  20465389.2344                   20465386.0594
  -5937750.80947  -4620592.68044  23424420.6484                   23424418.9454
   -172336.05147   -130757.38346  20997732.4924                   20997728.3484
   7597517.09448   5902218.19145  21915418.6724                   21915415.1094
  -7129437.34847  -5548885.35244  23348137.5004                   23348136.7624
   7924306.41046   6157822.52043  24286928.4844                   24286928.5474
 11  8 10 17 41 30.0000000  0 10G03G08G07G10G13G28G19G23G11G06
   6623511.45747   5148330.25444  22309475.6884                   22309473.8014
  -6863145.87547  -5337293.96145  22639023.3284                   22639021.5554
  -5083387.06648  -3950161.73046  21027611.0784                   21027608.0824
   3570725.33645   2775183.95742  24523437.3364                   24523439.1174
   2633934.19548   2049381.38746  20471585.5394                   20471582.3054
  -6013669.75047  -4679750.24244  23409973.3914                   23409972.2154
   -166812.02048   -126452.94946  20998784.1094                   20998779.6914
   7673332.98448   5961295.40645  21929845.9454                   21929842.4184
  -7229742.68747  -5627045.31244  23329050.2504                   23329048.9804
   7998490.45346   6215628.20343  24301045.4064                   24301045.0044
 11  8 10 17 42  0.0000000  0 10G03G08G07G10G13G28G19G23G11G06
   6691093.23447   5200991.32844  22322336.1484                   22322334.0704
  -6958229.94947  -5411385.40245  22620929.4304                   22620927.6174
  -5152521.13348  -4004032.42646  21014455.4614                   21014452.3444
   3599904.61345   2797920.91842  24528990.4304                   24528991.6844
   2666886.12948   2075058.18046  20477855.5474                   20477852.9344
  -6089524.45347  -4738857.75844  23395538.8914                   23395536.6644
   -160836.15648   -121796.44546  20999920.9224                   20999916.4144
   7749309.87148   6020498.07845  21944304.0314                   21944300.6914
  -7330095.34447  -5705242.12944  23309953.4924                   23309952.7074
   8072726.62146   6273474.48843  24315172.7974                   24315171.7274
 11  8 10 17 42 30.0000000  0 10G03G08G07G10G13G28G19G23G11G06
   6758872.34046   5253806.15644  22335233.4384                   22335231.8324
  -7053470.52347  -5485598.82445  22602805.6804                   22602803.5704
  -5221642.61348  -4057893.32046  21001302.2814                   21001298.8324
   3629144.96146   2820705.49643  24534556.2894                   24534556.8874
   2700225.15248   2101036.60246  20484200.0164                   20484197.3284
  -6165318.93747  -4797918.35944  23381116.2734                   23381114.0314
   -154413.20748   -116791.55146  21001143.1724                   21001139.1134
   7825441.34448   6079821.18445  21958791.2344                   21958788.0044
  -7430495.98847  -5783476.35244  23290848.3754                   23290847.2384
   8147008.55146   6331356.44143  24329307.6024                   24329307.0474
 11  8 10 17 43  0.0000000  0 10G03G08G07G10G13G28G19G23G11G06
   6826841.64547   5306769.19144  22348168.1094                   22348166.3444
  -7148870.49247  -5559936.44545  22584651.8754                   22584649.7624
  -5290753.81648  -4111746.20746  20988150.8204                   20988147.8754
   3658439.98046   2843532.72342  24540129.6884                   24540131.6644
   2733945.48048   2127312.14846  20490616.7504                   20490614.2304
  -6241057.71947  -4856935.53144  23366702.9924                   23366700.6724
   -147548.30548   -111442.28546  21002449.5234                   21002445.0634
   7901720.71148   6139259.55145  21973306.6644                   21973304.4104
  -7530945.61747  -5861748.72344  23271732.5864                   23271732.1844
   8221329.83246   6389269.05943  24343451.2504                   24343449.7544
 11  8 10 17 43 30.0000000  0 10G03G08G07G10G13G28G19G23G11G06
   6894994.16047   5359875.00444  22361137.1484                   22361135.4614
  -7244433.68447  -5634401.23845  22566466.4304                   22566465.3094
  -5359858.01248  -4165593.63346  20975000.6024                   20974997.2734
   3687782.01646   2866396.51642  24545714.1254                   24545714.8714
   2768040.77048   2153879.86746  20497104.9614                   20497101.9304
  -6316746.13347  -4915913.48444  23352299.8524                   23352298.1684
   -140247.13348   -105753.06246  21003838.7034                   21003834.4774
   7978140.55148   6198807.37545  21987849.3364                   21987846.2504
  -7631445.84447  -5940060.52744  23252607.9224                   23252607.4264
   8295683.33246   6447206.79343  24357600.4224                   24357599.0474
 11  8 10 17 44  0.0000000  0 10G03G08G07G10G13G28G19G23G11G06
   6963325.68447   5413120.28944  22374140.4844                   22374138.0394
  -7340160.07047  -5708993.20345  22548250.3834                   22548248.3794
  -5428954.67648  -4219435.19946  20961852.0084                   20961849.0474
   3717167.40246   2889294.16442  24551305.3364                   24551306.3914
   2802508.05548   2180737.44946  20503664.1564                   20503660.9264
  -6392385.52347  -4974853.19544  23337906.1484                   23337904.0864
   -132512.34447    -99725.96546  21005310.6334                   21005306.3014
   8054696.55148   6258461.28545  22002417.8524                   22002414.6214
  -7731994.87147  -6018410.35244  23233474.2034                   23233473.7814
   8370065.39147   6505166.77743  24371754.1564                   24371754.4734
 11  8 10 17 44 30.0000000  0 10G03G08G07G10G13G28G19G23G11G06
   7031830.50847   5466500.62144  22387176.5474                   22387174.3484
  -7436050.94947  -5783713.35245  22530002.7424                   22530001.0204
  -5498044.67248  -4273271.55546  20948704.9454                   20948701.5234
   3746590.77746   2912221.33642  24556904.7424                   24556905.4614
   2837343.17648   2207881.66446  20510292.9534                   20510290.0904
  -6467978.63747  -5033756.86744  23323521.3594                   23323519.7934
   -124347.68748    -93363.91046  21006864.3284                   21006859.9964
   8131383.65648   6318217.35545  22017010.8914                   22017007.5354
  -7832592.39147  -6096797.97744  23214331.0784                   23214330.8954
   8444470.96146   6563145.08643  24385913.3914                   24385912.7584
 11  8 10 17 45  0.0000000  0 10G03G08G07G10G13G28G19G23G11G06
   7100505.59047   5520013.60244  22400244.5634                   22400243.0594
  -7532106.19547  -5858561.57845  22511724.1954                   22511722.9654
  -5567127.05948  -4327101.99246  20935558.8364                   20935555.8794
   3776048.39546   2935175.27043  24562509.8754                   24562512.0314
   2872543.80948   2235310.69146  20516991.0394                   20516988.6604
  -6543526.86347  -5092625.57844  23309144.3134                   23309143.1644
   -115754.96548    -86668.29746  21008500.1644                   21008495.3134
   8208198.52748   6378072.98845  22031628.2504                   22031625.4224
  -7933235.78146  -6175221.32044  23195179.2114                   23195178.5784
   8518896.82047   6621139.19543  24400076.2194                   24400075.7464
 11  8 10 17 45 30.0000000  0 10G03G08G07G10G13G28G19G23G11G06
   7169346.64547   5573655.93044  22413345.2034                   22413342.6764
  -7628325.40247  -5933537.56645  22493414.4064                   22493412.6174
  -5636201.17648  -4380925.97746  20922414.4844                   20922410.9534
   3805536.32446   2958152.73843  24568121.6804                   24568122.9654
   2908106.90248   2263022.14846  20523758.6024                   20523755.9774
  -6619031.86747  -5151460.59444  23294775.3594                   23294775.0164
   -106736.74648    -79641.12946  21010216.1254                   21010211.3484
   8285136.92647   6438024.86745  22046269.7194                   22046266.1334
  -8033923.43046  -6253679.16844  23176018.3054                   23176017.8054
   8593339.16846   6679146.13343  24414242.3204                   24414242.0234
 11  8 10 17 46  0.0000000  0 10G03G08G07G10G13G28G19G23G11G06
   7238349.63347   5627424.43444  22426475.9774                   22426474.1764
  -7724708.39848  -6008641.19545  22475073.6564                   22475071.2774
  -5705266.46948  -4434743.08646  20909271.5864                   20909268.3324
   3835051.21546   2981151.27743  24573738.3524                   24573738.6914
   2944029.73048   2291013.92246  20530595.0394                   20530591.6604
  -6694494.84847  -5210262.89844  23280416.3444                   23280414.9454
    -97295.16448    -72284.05546  21012012.9304                   21012007.8794
   8362195.24647   6498070.19145  22060932.8674                   22060929.3594
  -8134652.75047  -6332169.47344  23156850.9534                   23156850.0944
   8667794.78146   6737163.42243  24428411.1484                   24428410.6644
 11  8 10 17 46 30.0000000  0 10G03G08G07G10G13G28G19G23G11G06
   7307513.82047   5681318.55144  22439637.5634                   22439635.1844
  -7821251.90247  -6083869.88745  22456701.6644                   22456699.6884
  -5774319.24648  -4488550.44946  20896131.5944                   20896128.1484
   3864592.15246   3004170.09443  24579360.5164                   24579360.9734
   2980312.23048   2319285.95346  20537499.1094                   20537496.2854
  -6769914.48447  -5269031.40244  23266064.4844                   23266063.2704
    -87429.68748    -64596.68046  21013889.7974                   21013885.3594
   8439372.56347   6558208.25045  22075618.8364                   22075616.6914
  -8235419.11347  -6410688.64844  23137675.7584                   23137674.8984
   8742263.11346   6795190.63743  24442581.7734                   24442581.1724
 11  8 10 17 47  0.0000000  0 10G03G08G07G10G13G28G19G23G11G06
   7376833.18447   5735333.58244  22452828.4614                   22452826.5474
  -7917958.64147  -6159225.78945  22438298.8914                   22438297.3014
  -5843361.09848  -4542349.28546  20882993.1954                   20882989.8554
   3894152.80946   3027204.25843  24584984.8754                   24584986.8014
   3016949.51248   2347834.44546  20544470.7584                   20544468.5824
  -6845294.44547  -5327769.00044  23251720.2034                   23251719.0204
    -77145.17648    -56582.79346  21015846.6804                   21015842.2194
   8516662.44547   6618434.00445  22090327.3524                   22090324.1054
  -8336223.14147  -6489237.15644  23118493.0784                   23118492.1884
   8816738.03146   6853222.96943  24456754.1174                   24456752.4924
 11  8 10 17 47 30.0000000  0 10G03G08G07G10G13G28G19G23G11G06
   7446302.53547   5789465.47344  22466048.2504                   22466046.5124
  -8014829.22348  -6234709.35545  22419864.9924                   22419863.2624
  -5912392.43448  -4596139.93046  20869857.0004                   20869853.7974
   3923728.35246   3050250.03943  24590612.8754                   24590614.4884
   3053937.34848   2376656.09046  20551509.3054                   20551506.8594
  -6920637.64847  -5386477.96144  23237383.0944                   23237381.5554
    -66444.69948    -48244.77346  21017883.1334                   21017878.3284
   8594060.51647   6678744.05945  22105055.5314                   22105052.1954
  -8437063.58246  -6567814.07044  23099303.9614                   23099302.7464
   8891215.27346   6911257.08643  24470926.8444                   24470925.4804
 11  8 10 17 48  0.0000000  0 10G03G08G07G10G13G28G19G23G11G06
   7515914.38347   5843708.40644  22479294.8524                   22479293.4144
  -8111866.75447  -6310323.00845  22401399.1484                   22401397.9224
  -5981416.15648  -4649924.65246  20856722.0554                   20856718.8054
   3953311.59046   3073301.84043  24596242.5634                   24596243.9884
   3091269.41848   2405745.97746  20558613.7114                   20558610.8014
  -6995948.65247  -5445161.82044  23223050.8524                   23223050.1374
    -55334.22348    -39587.27046  21019997.2974                   21019992.9144
   8671559.32047   6739132.61345  22119803.3524                   22119800.5044
  -8537942.04747  -6646420.60244  23080107.6174                   23080106.4494
   8965687.89546   6969287.65243  24485098.4224                   24485097.5744
 11  8 10 17 48 30.0000000  0 10G03G08G07G10G13G28G19G23G11G06
   7585659.04747   5898054.84044  22492566.8364                   22492565.5474
  -8209077.16047  -6386071.35945  22382900.9224                   22382898.8404
  -6050437.57848  -4703707.57846  20843587.7734                   20843584.5274
   3982892.65246   3096351.90243  24601871.8284                   24601873.0204
   3128936.82048   2435097.15246  20565781.4694                   20565778.7734
  -7071235.26247  -5503826.67244  23208724.8134                   23208723.7464
    -43822.57848    -30617.16846  21022188.1884                   21022183.3364
   8749148.58647   6799591.66045  22134568.3834                   22134565.3714
  -8638862.14147  -6725059.57844  23060903.4694                   23060901.8444
   9040146.18046   7027307.00044  24499267.0784                   24499266.6644
 11  8 10 17 49  0.0000000  0 10G03G08G07G10G13G28G19G23G11G06
   7655526.03946   5952496.59044  22505861.8984                   22505860.6414
  -8306467.03147  -6461959.56245  22364368.4694                   22364366.6954
  -6119462.46948  -4757493.19946  20830452.8134                   20830449.6134
   4012461.16046   3119392.18843  24607498.5554                   24607500.8674
   3166929.96548   2464702.14846  20573011.5314                   20573008.8364
  -7146505.79747  -5562479.00044  23194400.9924                   23194399.7624
    -31918.60948    -21341.36346  21024453.6414                   21024449.0784
   8826818.27747   6860113.36345  22149348.3364                   22149345.5514
  -8739828.87147  -6803734.88344  23041689.2894                   23041688.3984
   9114580.00446   7085307.27743  24513431.9454                   24513430.2704
 11  8 10 17 49 30.0000000  0 10G03G08G07G10G13G28G19G23G11G06
   7725506.02046   6007026.38344  22519178.5704                   22519177.4184
  -8404041.60247  -6537991.66445  22345800.3754                   22345798.6414
  -6188495.94947  -4811285.51246  20817316.5554                   20817312.7504
   4042007.86345   3142415.53543  24613121.5004                   24613122.6134
   3205240.34047   2494554.35546  20580301.6414                   20580298.9414
  -7221767.14846  -5621124.15244  23180079.3674                   23180077.9614
    -19630.23847    -11766.02346  21026792.0084                   21026787.2344
   8904558.88347   6920690.33645  22164141.8524                   22164139.1054
  -8840845.68446  -6882449.24244  23022467.3674                   23022465.0744
   9188980.37946   7143281.54343  24527589.4064                   24527589.1334
 11  8 10 17 50  0.0000000  0 10G03G08G07G10G13G28G19G23G11G06
   7795590.12147   6061637.27744  22532515.2664                   22532514.1454
  -8501805.32047  -6614171.17645  22327196.5234                   22327194.3554
  -6257541.99648  -4865087.63746  20804177.0164                   20804174.0274
   4071524.09056   3165415.03953  24618738.4304                   24618739.8874
   3243860.25448   2524647.73846  20587650.9304                   20587648.2624
  -7297025.39547  -5679766.89544  23165758.0474                   23165756.6764
     -6964.91048     -1896.96546  21029201.9304                   21029197.2934
   8982361.68047   6981315.75845  22178948.1334                   22178944.6604
  -8941915.20347  -6961204.64144  23003233.7344                   23003232.6644
   9263339.07446   7201223.27043  24541739.8594                   24541739.0124
 11  8 10 17 50 30.0000000  0 10G03G08G07G10G13G28G19G23G11G06
   7865769.85547   6116322.70344  22545870.3754                   22545869.2384
  -8599762.23447  -6690501.21945  22308555.6644                   22308553.9574
  -6326604.01248  -4918902.19546  20791034.9694                   20791031.6524
   4101001.82846   3188384.58243  24624348.1644                   24624349.5944
   3282782.25048   2554976.53146  20595057.4454                   20595054.4964
  -7372286.59447  -5738411.93444  23151436.0394                   23151434.6214
      6070.45348      8260.44546  21031682.3054                   21031677.8554
   9060218.69147   7041983.41845  22193763.2894                   22193760.5354
  -9043039.72747  -7040002.94944  22983990.0864                   22983989.2584
   9337648.23846   7259126.41043  24555880.7664                   24555879.3324
 11  8 10 17 51  0.0000000  0 10G03G08G07G10G13G28G19G23G11G06
   9511455.65647   7398675.21144  22859034.1094                   22859032.7664
  -7122492.55947  -5539381.97345  22589670.9774                   22589668.5044
  -4820262.67648  -3745129.73046  21077682.0554                   21077678.7464
   5705852.64546   4438917.60243  24929739.7274                   24929742.5164
   4897418.44948   3813134.56646  20902312.4534                   20902309.4064
  -5872133.19947  -4569461.19144  23436906.0474                   23436905.1294
   1594889.63348   1246301.34846  21334024.7734                   21334020.2734
  10713539.87147   8330285.49245  22508379.8204                   22508377.0394
  -7568797.48447  -5891242.70744  23264529.0004                   23264527.5984
  10987318.39845   8544583.62543  24869802.7344                   24869801.6524
 11  8 10 17 51 30.0000000  0 10G03G08G07G10G13G28G19G23G11G06
   9581805.60247   7453493.27344  22872420.9064                   22872419.7464
  -7220845.46947  -5616020.58645  22570955.1254                   22570953.1024
  -4889364.96548  -3798975.66846  21064532.3984                   21064529.2274
   5735231.61346   4461810.18443  24935332.3204                   24935333.0744
   4936925.70348   3843919.39146  20909830.3754                   20909827.8404
  -5947414.87547  -4628122.19544  23422580.2344                   23422578.9414
   1608647.79348   1257021.96946  21336642.7114                   21336638.0784
  10791483.28947   8391020.47345  22523211.8364                   22523209.1844
  -7670036.00447  -5970129.83644  23245263.9384                   23245262.8364
  11061508.02046   8602393.64843  24883920.7664                   24883919.3674
 11  8 10 17 52  0.0000000  0 10G03G08G07G10G13G28G19G23G11G06
   9652230.46147   7508369.72344  22885822.8204                   22885821.7504
  -7319400.23047  -5692816.49645  22552200.7344                   22552198.7934
  -4958490.47748  -3852839.70746  21051378.1884                   21051374.9804
   5764551.38346   4484656.62543  24940911.1174                   24940913.1604
   4976716.69148   3874925.31346  20917402.7504                   20917399.9344
  -6022713.69947  -4686796.55944  23408251.2344                   23408249.2854
   1622759.04748   1268017.73046  21339328.2034                   21339323.7854
  10869459.93447   8451781.34445  22538051.1334                   22538047.8754
  -7771332.74247  -6049062.32044  23225987.8594                   23225986.6414
  11135628.34046   8660149.63743  24898025.6254                   24898023.7734
 11  8 10 17 52 30.0000000  0 10G03G08G07G10G13G28G19G23G11G06
   9722724.02047   7563299.68844  22899237.1804                   22899235.3134
  -7418158.91847  -5769771.30145  22533407.8984                   22533405.4574
  -5027640.62548  -3906722.94546  21038219.3134                   21038216.1524
   5793805.96146   4507452.29743  24946478.1954                   24946480.0704
   5016786.15248   3906148.23046  20925027.3914                   20925024.8204
  -6098033.02347  -4745486.88744  23393918.6414                   23393916.7384
   1637218.46948   1279284.79346  21342079.5944                   21342075.5204
  10947463.66447   8512563.34445  22552894.9774                   22552892.0554
  -7872687.93747  -6128040.37144  23206700.7974                   23206699.0864
  11209673.96546   8717847.45743  24912115.3204                   24912114.9614
 11  8 10 17 53  0.0000000  0 10G03G08G07G10G13G28G19G23G11G06
   9793280.25047   7618278.48844  22912662.9774                   22912662.4614
  -7517123.39147  -5846886.45745  22514575.7664                   22514573.0824
  -5096817.06248  -3960626.66846  21025055.3754                   21025052.8404
   5822988.87146   4530192.11343  24952030.9534                   24952033.2544
   5057128.38348   3937583.69146  20932704.4844                   20932701.5474
  -6173377.02347  -4804196.46944  23379581.1484                   23379579.0664
   1652021.17248   1290819.34446  21344896.2424                   21344891.9574
  11025488.09047   8573361.45745  22567742.1644                   22567738.9384
  -7974101.96547  -6207064.23844  23187402.1174                   23187401.0394
  11283638.82846   8775482.32843  24926190.4774                   24926189.2424
 11  8 10 17 53 30.0000000  0 10G03G08G07G10G13G28G19G23G11G06
   9863891.93847   7673300.51644  22926100.9844                   22926099.6214
  -7616295.97347  -5924163.78145  22495703.3284                   22495701.6524
  -5166022.16048  -4014552.71146  21011886.2424                   21011883.2854
   5852093.54746   4552870.93043  24957569.0004                   24957571.1604
   5097737.47348   3969227.09046  20940432.0084                   20940429.1564
  -6248750.19947  -4862928.78144  23365238.0164                   23365236.3754
   1667161.39848   1302616.91046  21347777.7194                   21347773.0984
  11103526.43047   8634170.42245  22582592.8674                   22582589.7464
  -8075575.65247  -6286134.60544  23168092.2424                   23168090.8094
  11357516.40646   8833049.24243  24940248.9844                   24940247.6724
 11  8 10 17 54  0.0000000  0 10G03G08G07G10G13G28G19G23G11G06
   9934554.86747   7728362.46944  22939547.6024                   22939546.0124
  -7715677.24247  -6001603.70745  22476791.4774                   22476789.4534
  -5235255.56248  -4068500.82046  20998711.6564                   20998708.5904
   5881115.59446   4575485.37143  24963092.6484                   24963094.4384
   5138609.82848   4001075.63746  20948209.7974                   20948207.0664
  -6324154.50447  -4921685.33644  23350889.3364                   23350887.2854
   1682635.96548   1314675.00046  21350722.2974                   21350717.6094
  11181574.39847   8694986.87945  22597444.3364                   22597441.6374
  -8177107.40647  -6365250.21944  23148771.5394                   23148770.0204
  11431302.94946   8890545.19942  24954290.2274                   24954288.4924
 11  8 10 17 54 30.0000000  0 10G03G08G07G10G13G28G19G23G11G06
  10005264.23046   7783460.60244  22953002.9064                   22953001.9104
  -7815268.06247  -6079206.93045  22457839.8134                   22457838.0354
  -5304517.58248  -4122471.23046  20985531.6024                   20985528.3444
   5910050.04746   4598031.60243  24968598.4614                   24968599.8164
   5179741.26648   4033126.05546  20956036.8594                   20956034.1414
  -6399592.97747  -4980468.53144  23336534.4304                   23336532.2814
   1698441.43848   1326990.93446  21353730.0004                   21353725.2894
  11259627.11347   8755807.03945  22612297.8834                   22612295.1724
  -8278696.17647  -6444410.26244  23129439.7194                   23129438.1804
  11504993.80146   8947966.55143  24968312.9144                   24968311.4304
 11  8 10 17 55  0.0000000  0 10G03G08G07G10G13G28G19G23G11G06
  10076016.19547   7838591.94944  22966466.5004                   22966464.9964
  -7915067.60547  -6156972.79345  22438848.9844                   22438846.6764
  -5373807.16448  -4176463.11346  20972345.8984                   20972342.7034
   5938893.45746   4620506.87143  24974087.5234                   24974088.6294
   5221128.81348   4065376.03946  20963912.6954                   20963909.9924
  -6475066.82047  -5039279.28144  23322171.7194                   23322169.9414
   1714575.09447   1339562.59046  21356800.1644                   21356795.7034
  11337680.85247   8816627.98045  22627151.0314                   22627148.4024
  -8380339.68447  -6523612.93744  23110097.7274                   23110096.1844
  11578585.93446   9005311.07042  24982317.9304                   24982315.5164
 11  8 10 17 55 30.0000000  0  9G03G08G07G10G13G28G19G23G11
  10146807.78146   7893754.15644  22979938.2194                   22979936.0004
  -8015074.95747  -6234900.57445  22419818.1334                   22419816.0204
  -5443123.14148  -4230475.56246  20959155.6414                   20959152.9304
   5967642.37146   4642908.48043  24979557.8284                   24979559.9924
   5262769.80948   4097823.52346  20971836.8364                   20971833.9574
  -6550576.93047  -5098118.28144  23307802.4924                   23307800.5204
   1731034.68847   1352388.22746  21359932.3914                   21359927.6684
  11415731.98047   8877446.88745  22642003.8364                   22642000.8754
  -8482035.41447  -6602856.32044  23090745.6024                   23090744.2464
 11  8 10 17 56  0.0000000  0  9G03G08G07G10G13G28G19G23G11
  10217634.93447   7948944.09444  22993415.4774                   22993414.3054
  -8115289.50047  -6312989.82045  22400748.0004                   22400745.0864
  -5512464.29748  -4284507.63346  20945960.4844                   20945956.7424
   5996293.50046   4665233.95743  24985011.7894                   24985012.1994
   5304661.75448   4130466.54346  20979808.5554                   20979805.6764
  -6626124.53547  -5156986.52744  23293426.2664                   23293423.6254
   1747817.81348   1365465.97346  21363126.3594                   21363121.4964
  11493777.23447   8938261.21545  22656855.2664                   22656852.3754
  -8583781.08247  -6682138.60944  23071384.1564                   23071382.7304
 11  8 10 17 56 30.0000000  0  9G03G08G07G10G13G28G19G23G11
  10288497.60547   8004161.69944  23006900.7344                   23006899.0554
  -8215707.18047  -6391237.34445  22381638.7894                   22381637.4414
  -5581826.07848  -4338555.77046  20932761.6804                   20932758.1254
   6024846.82046   4687483.16043  24990443.4064                   24990446.0084
   5346804.66448   4163305.12946  20987828.2274                   20987825.5164
  -6701707.51647  -5215882.32444  23279043.1884                   23279041.8594
   1764925.56347   1378796.66446  21366381.1954                   21366377.2894
  11571816.59047   8999070.94145  22671705.7504                   22671703.2114
  -8685570.55147  -6761455.02344  23052013.5394                   23052012.2774
 11  8 10 17 57  0.0000000  0  9G03G08G07G10G13G28G19G23G11
  10359397.70347   8059408.45744  23020392.7034                   23020390.6484
  -8316322.02747  -6469638.50045  22362493.0634                   22362490.9414
  -5651202.07848  -4392615.00046  20919559.7504                   20919556.4384
   6053303.84446   4709657.38343  24995859.5474                   24995861.5004
   5389200.90248   4196341.09846  20995895.5634                   20995893.1094
  -6777322.07047  -5274802.73844  23264654.3134                   23264652.5944
   1782360.58247   1392382.38746  21369699.4144                   21369695.1214
  11649851.23047   9059876.99245  22686555.8204                   22686552.9884
  -8787396.52747  -6840799.89144  23032637.4924                   23032635.4964
 11  8 10 17 57 30.0000000  0  8G03G08G07G13G28G19G23G11
  10430333.71146   8114683.20744  23033890.9844                   23033889.3404
  -8417130.77747  -6548190.77745  22343309.3674                   22343306.9844
  -5720589.28547  -4446682.96146  20906355.6724                   20906352.3794
   5431849.95348   4229574.07846  21004011.7424                   21004009.1524
  -6852967.58647  -5333747.25444  23250258.9924                   23250257.8594
   1800122.30547   1406222.66846  21373079.1644                   21373074.8714
  11727879.99247   9120678.45745  22701403.9304                   22701400.9344
  -8889254.57847  -6920169.75444  23013254.4144                   23013252.8714
 11  8 10 17 58  0.0000000  0  8G03G08G07G13G28G19G23G11
  10501302.57847   8169983.55144  23047396.4224                   23047394.7304
  -8518132.81647  -6626893.64845  22324089.2424                   22324087.3284
  -5789985.82848  -4500758.19546  20893149.8984                   20893146.7624
   5474749.14848   4263001.96546  21012175.3984                   21012172.8364
  -6928644.48447  -5392716.25444  23235858.4064                   23235856.7934
   1818208.83247   1420316.04746  21376521.1484                   21376516.8954
  11805899.87547   9181473.01645  22716251.1334                   22716247.8794
  -8991141.79747  -6999562.35244  22993865.8674                   22993864.2894
 11  8 10 17 58 30.0000000  0  8G03G08G07G13G28G19G23G11
  10572302.36347   8225307.98844  23060907.1804                   23060904.9344
  -8619325.43447  -6705745.02345  22304833.3204                   22304830.9064
  -5859389.19548  -4554838.74646  20879942.9694                   20879939.7774
   5517897.15648   4296623.73846  21020386.1484                   21020383.7664
  -7004352.62147  -5451709.55944  23221451.5944                   23221450.3714
   1836619.42247   1434661.94146  21380024.7034                   21380020.3054
  11883908.81647   9242259.05545  22731096.0004                   22731092.6914
  -9093053.97747  -7078974.38344  22974471.9774                   22974470.9964
 11  8 10 17 59  0.0000000  0  8G03G08G07G13G28G19G23G11
  10643333.16447   8280656.58644  23074424.1024                   23074422.7624
  -8720704.34047  -6784741.57445  22285541.2344                   22285539.3404
  -5928794.46948  -4608920.78546  20866735.4384                   20866732.1954
   5561294.37148   4330439.69946  21028644.4534                   21028641.6604
  -7080089.95747  -5510725.64844  23207038.9534                   23207038.1844
   1855354.81647   1449260.93446  21383589.7034                   21383585.2584
  11961906.84047   9303036.59844  22745937.9304                   22745935.3364
  -9194985.27747  -7158401.33244  22955075.5784                   22955074.0514
 11  8 10 17 59 30.0000000  0  8G03G08G07G13G28G19G23G11
  10714393.56647   8336028.26644  23087945.7114                   23087944.9024
  -8822266.40647  -6863880.84445  22266214.4454                   22266212.5944
  -5998198.37948  -4663001.75446  20853528.3284                   20853525.1724
   5604940.61348   4364449.71546  21036950.0004                   21036947.3204
  -7155855.04747  -5569763.32844  23192621.2894                   23192619.5904
   1874415.03147   1464113.02346  21387216.6954                   21387212.3244
  12039892.75847   9363804.70744  22760778.5164                   22760775.7304
  -9296930.72747  -7237839.30144  22935675.7734                   22935674.1564
 11  8 10 18  0  0.0000000  0  8G03G08G07G13G28G19G23G11
  10785478.20747   8391418.81344  23101473.3134                   23101471.8794
  -8924012.79347  -6943163.72745  22246852.8444                   22246850.5044
  -6067601.80548  -4717082.35246  20840321.5784                   20840318.1054
   5648830.48848   4398649.56346  21045302.0004                   21045299.7074
  -7231651.73047  -5628825.64144  23178197.5004                   23178196.0704
   1893794.94147   1479214.22746  21390904.4304                   21390900.5274
  12117860.88347   9424558.93044  22775615.2664                   22775612.5824
  -9398890.50447  -7317288.44944  22916273.4304                   22916272.2894
 11  8 10 18  0 30.0000000  0  8G03G08G07G13G28G19G23G11
  10856583.18047   8446825.20744  23115004.4614                   23115002.2894
  -9025942.95347  -7022589.81245  22227456.3204                   22227454.1334
  -6137003.86748  -4771161.88746  20827114.4384                   20827111.6094
   5692960.76648   4433036.73846  21053700.1174                   21053697.5744
  -7307481.41847  -5687913.66844  23163767.5634                   23163766.2154
   1913492.08247   1494562.61746  21394652.7034                   21394648.5354
  12195807.28547   9485296.22744  22790447.4694                   22790445.3324
  -9500862.01647  -7396746.71944  22896868.9224                   22896867.5314
 11  8 10 18  1  0.0000000  0  9G03G08G07G24G13G28G19G23G11
  10927706.67247   8502246.01644  23128538.8134                   23128537.3554
  -9128053.99247  -7102156.84045  22208024.8204                   22208023.2934
  -6206401.57448  -4825238.02046  20813908.7814                   20813905.6024
   3015600.16055   2363475.93453  24401392.2114                   24401396.1414
   5737330.34048   4467610.37946  21062143.0944                   21062140.8364
  -7383343.66847  -5747027.05144  23149331.8524                   23149330.2504
   1933505.50848   1510157.46946  21398461.2894                   21398456.8874
  12273730.36747   9546015.35244  22805275.7894                   22805273.8364
  -9602841.24647  -7476211.00844  22877462.8524                   22877461.0904
 11  8 10 18  1 30.0000000  0  9G03G08G07G24G13G28G19G23G11
  10998846.49647   8557679.56644  23142076.0864                   23142074.8834
  -9230344.28948  -7181863.55145  22188560.1024                   22188558.2034
  -6275792.44548  -4879308.84446  20800703.8984                   20800700.5784
   2911095.71946   2282044.09043  24381505.8204                   24381510.0824
   5781937.35548   4502369.03546  21070631.6954                   21070629.0474
  -7459238.32447  -5806165.70345  23134889.3204                   23134887.3984
   1953833.89148   1525997.74246  21402329.4224                   21402325.3094
  12351627.74247   9606714.41444  22820099.6484                   22820097.8524
  -9704824.39847  -7555678.37144  22858056.0704                   22858054.2304
 11  8 10 18  2  0.0000000  0  9G03G08G07G24G13G28G19G23G11
  11070006.14847   8613128.58244  23155617.1094                   23155615.6024
  -9332806.10947  -7261703.91845  22169062.1174                   22169060.0744
  -6345168.48448  -4933368.10246  20787501.9384                   20787499.4614
   2806314.11346   2200396.31643  24361566.2274                   24361570.8134
   5826785.39848   4537315.51246  21079166.1334                   21079163.4734
  -7535159.85947  -5865325.29744  23120442.1484                   23120439.9734
   1974481.41848   1542086.69946  21406259.2894                   21406254.2934
  12429502.56347   9667395.91444  22834919.1254                   22834917.5744
  -9806802.50047  -7635141.77344  22838650.1414                   22838649.1684
 11  8 10 18  2 30.0000000  0  9G03G08G07G24G13G28G19G23G11
  11141194.67247   8668600.08244  23169164.3444                   23169162.7774
  -9435426.02347  -7341667.46945  22149533.5864                   22149531.5234
  -6414515.91848  -4987405.06246  20774306.1094                   20774302.5474
   2701270.39546   2118544.23843  24341576.5394                   24341580.8914
   5871884.33248   4572457.47746  21087748.1254                   21087745.7814
  -7611097.16447  -5924497.15644  23105991.8134                   23105989.5204
   1995458.09848   1558432.12546  21410250.9534                   21410246.3484
  12507364.02747   9728067.00044  22849736.1644                   22849734.0164
  -9908760.28947  -7714589.35244  22819248.7664                   22819246.9454
 11  8 10 18  3  0.0000000  0  9G03G08G07G24G13G28G19G23G11
  11212429.44147   8724107.63344  23182720.0314                   23182718.2114
  -9538181.93747  -7421736.99645  22129980.5164                   22129978.5704
  -6483812.66848  -5041402.53546  20761119.0634                   20761116.2194
   2595987.57046   2036505.89543  24321542.3524                   24321546.3244
   5917252.04348   4607808.88746  21096381.1804                   21096379.1134
  -7687030.85247  -5983666.22344  23091541.9454                   23091540.1454
   2016782.00847   1575048.13746  21414308.5554                   21414303.9964
  12585229.38347   9788741.12545  22864553.7114                   22864551.7234
 -10010674.44147  -7794002.92644  22799854.5164                   22799853.1484
 11  8 10 18  3 30.0000000  0  9G03G08G07G24G13G28G19G23G11
  11283734.80147   8779670.19544  23196289.2504                   23196287.6374
  -9641045.46947  -7501890.38345  22110406.2114                   22110404.2384
  -6553029.66048  -5095337.88746  20747947.2114                   20747944.2114
   2490495.32846   1954304.35943  24301468.1724                   24301471.6604
   5962912.91048   4643388.71946  21105070.0554                   21105067.9104
  -7762934.29747  -6042811.72344  23077097.6564                   23077096.2194
   2038478.00847   1591954.08246  21418437.0554                   21418432.6914
  12663122.92647   9849437.23445  22879376.5944                   22879374.7274
 -10112514.99247  -7873359.15244  22780475.0474                   22780473.5274
 11  8 10 18  4  0.0000000  0  9G03G08G07G24G13G28G19G23G11
  11355145.12547   8835314.53544  23209877.7734                   23209876.4574
  -9743977.15647  -7582096.88345  22090818.7664                   22090816.1884
  -6622127.30948  -5149180.21546  20734798.9144                   20734795.7894
   2384834.19946   1871971.20343  24281361.6254                   24281364.9924
   6008902.41447   4679224.62946  21113821.4924                   21113818.9144
  -7838770.41447  -6101904.75444  23062666.9454                   23062664.3134
   2060581.88347   1609177.85946  21422643.3444                   21422638.9844
  12741079.35247   9910182.31644  22894211.1804                   22894209.2074
 -10214241.07047  -7952626.15645  22761116.8284                   22761115.5234
 11  8 10 18  4 30.0000000  0  9G03G08G07G24G13G28G19G23G11
  11426706.41447   8891076.50043  23223495.7814                   23223493.8134
  -9846927.25447  -7662317.73045  22071228.3284                   22071225.7074
  -6691055.57448  -5202890.55546  20721682.0474                   20721679.1994
   2279055.31646   1789546.27743  24261232.5944                   24261236.0434
   6055266.37948   4715352.33246  21122644.3754                   21122641.9614
  -7914491.67647  -6160908.29744  23048257.4694                   23048255.6454
   2083140.04747   1626755.61746  21426935.8204                   21426931.3244
  12819144.05547   9971011.77345  22909066.7194                   22909064.1724
 -10315801.66447  -8031764.22744  22741790.7274                   22741789.0944
 11  8 10 18  5  0.0000000  0  9G03G08G07G24G13G28G19G23G11
  11498477.28947   8947001.78543  23237152.8594                   23237151.6174
  -9949832.85547  -7742503.90245  22051645.6024                   22051643.3674
  -6759751.71148  -5256420.00046  20708609.6724                   20708606.4734
   2173222.85246   1707079.63343  24241092.2734                   24241096.2934
   6102063.37148   4751817.45746  21131549.6564                   21131547.1484
  -7990037.67247  -6219775.28945  23033881.6254                   23033879.1954
   2106211.49648   1644733.35246  21431326.6174                   21431322.0084
  12897375.34447  10031971.05144  22923953.3364                   22923951.2424
 -10417132.14147  -8110722.98444  22722508.4304                   22722506.1764
 11  8 10 18  5 30.0000000  0  9G03G08G07G24G13G28G19G23G11
  11570531.48846   9003147.83243  23250864.5314                   23250862.9064
 -10052615.08247  -7822593.93745  22032086.9924                   22032084.8834
  -6828136.35948  -5309706.74646  20695596.5474                   20695593.2544
   2067416.64546   1624633.41843  24220957.5554                   24220961.8204
   6149368.13748   4788678.24646  21140551.7034                   21140549.2154
  -8065331.95747  -6278446.11345  23019553.2974                   23019551.8444
   2129871.38748   1663169.59846  21435828.7734                   21435824.2504
  12975847.60947  10093118.07844  22938886.1804                   22938884.4614
 -10518152.46947  -8189440.07844  22703284.5474                   22703283.2074
 11  8 10 18  6  0.0000000  0  9G03G08G07G24G13G28G19G23G11
  11642959.74246   9059585.35243  23264647.4924                   23264645.9264
 -10155179.41447  -7902514.19545  22012569.6174                   22012567.5234
  -6896114.51248  -5362676.74646  20682660.9304                   20682657.4384
   1961732.66046   1542282.47343  24200847.1414                   24200851.0274
   6197271.28148   4826005.31646  21149667.8134                   21149664.9534
  -8140282.05947  -6336848.74644  23005290.3914                   23005288.6254
   2154210.43048   1682135.05946  21440460.3444                   21440456.1604
  13054650.96947  10154523.09044  22953881.8594                   22953879.9304
 -10618766.23447  -8267840.35244  22684138.4384                   22684136.7384
 11  8 10 18  6 30.0000000  0  9G03G08G07G24G13G28G19G23G11
  11715858.23846   9116389.28943  23278519.6094                   23278517.6994
 -10257425.12547  -7982186.16845  21993112.4454                   21993110.5784
  -6963585.16848  -5415251.28946  20669821.4454                   20669817.9614
   1856272.91446   1460106.24243  24180778.7894                   24180782.3554
   6245869.48447   4863873.98446  21158915.2194                   21158912.7274
  -8214789.39547  -6394906.39544  22991113.0084                   22991110.0434
   2179325.81648   1701705.46546  21445239.5634                   21445234.8954
  13133881.70347  10216261.14844  22968959.6644                   22968957.4494
 -10718871.20347  -8345844.16844  22665088.6564                   22665087.3484
 11  8 10 18  7  0.0000000  0  9G03G08G07G24G13G28G19G23G11
  11789323.30546   9173634.71543  23292499.3914                   23292497.9734
 -10359251.28947  -8061531.23045  21973736.2894                   21973733.8284
  -7030447.37948  -5467351.71546  20657098.1884                   20657094.6954
   1751139.37146   1378184.18843  24160771.5944                   24160775.4144
   6295259.12947   4902359.36746  21168313.8524                   21168311.7854
  -8288755.68747  -6452542.42244  22977037.7034                   22977034.8794
   2205314.42248   1721956.29746  21450185.4614                   21450180.9264
  13213635.74646  10278406.97744  22984136.2114                   22984134.2464
 -10818365.46947  -8423372.10244  22646156.5634                   22646154.3834
 11  8 10 18  7 30.0000000  0  9G03G08G07G24G13G28G19G23G11
  11863432.38346   9231381.96943  23306601.8444                   23306600.3244
 -10460575.80547  -8140485.39145  21954454.7034                   21954452.2584
  -7096619.16448  -5518914.15646  20644506.1024                   20644503.0554
   1646415.02346   1296580.97743  24140843.4844                   24140846.8524
   6345518.03148   4941522.08646  21177877.6644                   21177875.8134
  -8362101.35947  -6509694.85544  22963080.1334                   22963077.6914
   2232254.34048   1742948.41446  21455311.6094                   21455307.0124
  13293990.71547  10341021.07044  22999427.0234                   22999425.2934
 -10917165.54747  -8500359.10244  22627354.8444                   22627353.4924
 11  8 10 18  8  0.0000000  0  9G03G08G07G24G13G28G19G23G11
  11938223.54347   9289660.71544  23320834.2894                   23320833.2304
 -10561356.28147  -8219015.62145  21935276.8524                   21935274.3444
  -7162057.50848  -5569905.07846  20632053.2894                   20632050.2814
   1542143.87546   1215330.93843  24121000.6724                   24121004.4924
   6396684.59448   4981392.07446  21187614.4774                   21187611.8324
  -8434786.11347  -6566332.27745  22949248.8594                   22949246.6764
   2260184.13748   1764711.86746  21460626.3914                   21460622.1094
  13374984.92647  10404133.23844  23014840.2114                   23014838.5554
 -11015227.47347  -8576770.94144  22608694.1884                   22608692.4694
 11  8 10 18  8 30.0000000  0  9G03G08G07G24G13G28G19G23G11
  12013688.38347   9348464.43443  23335195.0084                   23335193.1334
 -10661596.48847  -8297124.85245  21916201.6724                   21916199.5594
  -7226765.96948  -5620327.25846  20619739.7734                   20619736.4774
   1438323.09047   1134431.77343  24101244.2274                   24101248.0044
   6448750.83248   5021963.11746  21197522.3834                   21197520.2114
  -8506816.28947  -6622459.64545  22935541.6414                   22935539.5354
   2289096.41447   1787240.87546  21466127.8524                   21466124.1094
  13456609.75447  10467736.79344  23030373.0314                   23030371.4534
 -11112553.77747  -8652609.55544  22590173.5864                   22590171.8244
 11  8 10 18  9  0.0000000  0  9G03G08G07G24G13G28G19G23G11
  12089768.65247   9407747.68043  23349672.5944                   23349670.7154
 -10761350.59847  -8374855.30145  21897219.0234                   21897217.1954
  -7290798.73048  -5670222.93046  20607554.4774                   20607551.7504
   1334899.78946   1053842.38343  24081564.1884                   24081566.7114
   6501658.28148   5063189.63746  21207590.2664                   21207588.0124
  -8578248.68447  -6678121.20344  22921948.6094                   22921946.1884
   2318933.01247   1810490.14546  21471805.9694                   21471801.5744
  13538806.21147  10531785.77344  23046015.2114                   23046013.0084
 -11209197.19947  -8727916.05545  22571782.6804                   22571781.3554
 11  8 10 18  9 30.0000000  0  9G03G08G07G24G13G28G19G23G11
  12166369.21547   9467436.32443  23364249.2424                   23364247.5784
 -10860709.57048  -8452277.86745  21878311.6484                   21878309.3954
  -7354245.94148  -5719662.32446  20595481.2194                   20595478.2074
   1231784.49246    973492.98843  24061941.3524                   24061944.5004
   6555312.00048   5104997.66846  21217800.3524                   21217798.3594
  -8649176.05547  -6733389.25045  22908451.5554                   22908449.4534
   2349599.25447   1834385.88346  21477641.4064                   21477637.1684
  13621479.22747  10596206.10244  23061747.1644                   23061745.0664
 -11305247.39847  -8802760.30144  22553505.0394                   22553503.4344
 11  8 10 18 10  0.0000000  0  9G03G08G07G24G13G28G19G23G11
  12243378.92247   9527443.81344  23378903.9304                   23378902.2974
 -10959779.57048  -8529475.25045  21859459.0234                   21859456.7304
  -7417214.36348  -5768728.64146  20583498.5314                   20583495.4264
   1128871.90646    893301.55143  24042357.8914                   24042360.8014
   6609601.25448   5147300.92246  21228131.3284                   21228129.2624
  -8719707.55147  -6788348.81245  22895029.7584                   22895027.3914
   2380984.61748   1858841.97746  21483614.3754                   21483609.6684
  13704517.59047  10660911.10544  23077549.3204                   23077547.1024
 -11400809.32847  -8877224.08645  22535320.1094                   22535318.7704
 11  8 10 18 10 30.0000000  0  9G03G08G07G24G13G28G19G23G11
  12320688.35947   9587684.84444  23393615.3834                   23393614.0594
 -11058665.44948  -8606529.17645  21840641.8834                   21840639.7274
  -7479808.55148  -5817503.34446  20571587.3134                   20571584.3444
   1026058.05146    813187.01243  24022791.8364                   24022795.4654
   6664416.66448   5190014.16046  21238562.6484                   21238560.4694
  -8789950.51247  -6843083.54745  22881663.1804                   22881661.4694
   2412980.04347   1883773.44146  21489702.4144                   21489698.0004
  13787811.84447  10725815.50844  23093399.3834                   23093397.8404
 -11495986.58647  -8951388.12145  22517208.1024                   22517206.2424
 11  8 10 18 11  0.0000000  0  9G03G08G07G24G13G28G19G23G11
  12398199.87547   9648083.33644  23408365.5864                   23408364.1524
 -11157460.83248  -8683512.58645  21821841.3754                   21821839.1334
  -7542121.70348  -5866059.05946  20559729.6564                   20559726.3954
    923250.91046    733077.73043  24003229.0314                   24003232.2424
   6719660.43048   5233061.19546  21249075.0474                   21249072.9694
  -8860000.97747  -6897668.28145  22868332.3524                   22868330.2774
   2445488.46947   1909104.65246  21495888.8364                   21495884.6374
  13871263.89847  10790842.87544  23109280.0704                   23109278.4344
 -11590871.04347  -9025324.00444  22499152.0864                   22499150.9574
 11  8 10 18 11 30.0000000  0  9G03G08G07G24G13G28G19G23G11
  12475835.58647   9708578.63344  23423139.3134                   23423137.9454
 -11256239.00448  -8760482.58645  21803044.8594                   21803042.7114
  -7604226.87948  -5914452.71546  20547911.9224                   20547908.0634
    820378.68046    652917.71543  23983652.8364                   23983655.1994
   6775255.18848   5276381.72746  21259654.4064                   21259652.6254
  -8929934.14547  -6952161.61745  22855024.2664                   22855022.9224
   2478432.81647   1934775.53946  21502157.7194                   21502153.8634
  13954796.11347  10855932.69944  23125175.4694                   23125174.1684
 -11685534.75447  -9099087.87544  22481138.6094                   22481136.9414
 11  8 10 18 12  0.0000000  0  9G03G08G07G24G13G28G19G23G11
  12553533.00447   9769122.00043  23437924.5004                   23437922.9774
 -11355057.73047  -8837484.17645  21784240.1884                   21784237.8554
  -7666181.99648  -5962729.44146  20536121.8524                   20536118.7814
    717384.43446    572662.62943  23964053.6644                   23964056.1134
   6831138.43447   5319927.04746  21270288.7504                   21270286.5904
  -8999810.67647  -7006610.82445  22841728.0234                   22841725.6914
   2511750.73847   1960737.51646  21508498.1884                   21508494.0744
  14038345.85547  10921036.17244  23141074.8834                   23141073.4024
 -11780034.34847  -9172723.86344  22463155.7274                   22463153.4534
 11  8 10 18 12 30.0000000  0  9G03G08G07G24G13G28G19G23G11
  12631248.30947   9829679.30543  23452713.6094                   23452711.6134
 -11453955.94948  -8914547.72345  21765420.8594                   21765418.4264
  -7728025.81648  -6010919.43446  20524353.6884                   20524350.0394
    614229.91846    492282.64543  23944423.9454                   23944426.2854
   6887266.71147   5363663.30946  21280970.0394                   21280967.5204
  -9069672.23847  -7061048.36745  22828433.5314                   22828431.3134
   2545398.89548   1986956.81646  21514901.2974                   21514896.9884
  14121869.34047  10986119.18444  23156968.7504                   23156967.2034
 -11874407.98447  -9246261.69145  22445197.2584                   22445195.5634
 11  8 10 18 13  0.0000000  0  9G03G08G07G24G13G28G19G23G11
  12708950.81646   9890226.64143  23467499.4694                   23467498.0394
 -11552960.40648  -8991694.03946  21746580.5944                   21746578.6334
  -7789784.97747  -6059043.46146  20512600.9224                   20512597.8914
    510890.05146    411758.22743  23924758.3444                   23924761.3954
   6943608.88347   5407566.23846  21291691.3134                   21291689.1884
  -9139548.02347  -7115496.99245  22815136.6254                   22815134.4264
   2579346.61748   2013409.57046  21521361.1094                   21521357.3094
  14205335.06347  11051157.19144  23172852.6644                   23172850.8914
 -11968680.76247  -9319720.92645  22427257.3754                   22427255.9924
 11  8 10 18 13 30.0000000  0  9G03G08G07G24G13G28G19G23G11
  12786623.30146   9950750.56643  23482280.4774                   23482278.9694
 -11652084.01248  -9068933.21545  21727717.9614                   21727715.4964
  -7851472.17648  -6107111.42646  20500862.2194                   20500858.8874
    407352.78146    331080.00043  23905056.1414                   23905058.3714
   7000147.70747   5451622.40645  21302450.0704                   21302448.5084
  -9209453.47347  -7169968.73445  22801833.7504                   22801832.2934
   2613577.23048   2040082.73846  21527875.0084                   21527871.0274
  14288725.89547  11116136.82844  23188721.7584                   23188719.4224
 -12062864.44147  -9393110.73445  22409335.3834                   22409333.6764
 11  8 10 18 14  0.0000000  0  9G03G08G07G24G13G28G19G23G11
  12864253.92246  10011241.89143  23497052.9064                   23497051.0904
 -11751333.83248  -9146270.72746  21708831.5704                   21708829.2624
  -7913094.26648  -6155128.64146  20489135.8984                   20489132.5354
    303612.41846    250243.51643  23885314.6644                   23885317.4734
   7056871.60947   5495822.78545  21313244.7034                   21313242.8054
  -9279398.12547  -7224471.00845  22788523.5704                   22788521.7704
   2648079.34848   2066967.47746  21534440.5784                   21534436.1884
  14372029.86347  11181048.79744  23204573.4614                   23204571.8714
 -12156964.81247  -9466435.64545  22391427.9064                   22391426.2304
 11  8 10 18 14 30.0000000  0  9G03G08G07G24G13G28G19G23G11
  12941839.47346  10071698.07443  23511816.6174                   23511815.1484
 -11850708.66448  -9223705.65245  21689920.7734                   21689918.3714
  -7974650.17648  -6203094.29346  20477422.5314                   20477419.1024
    199671.30946    169250.58643  23865534.2894                   23865538.7464
   7113777.06647   5540164.64545  21324073.0704                   21324071.2384
  -9349383.37547  -7279004.93445  22775205.8134                   22775203.7384
   2682849.94148   2094061.41046  21541057.5314                   21541052.9494
  14455243.47347  11245890.34444  23220408.8524                   23220407.1884
 -12250979.38747  -9539693.67245  22373537.9224                   22373536.1564
 11  8 10 18 15  0.0000000  0  9G03G08G07G24G13G28G19G23G11
  13019375.86346  10132115.97743  23526571.3984                   23526570.4344
 -11950207.53548  -9301237.23045  21670986.8834                   21670984.5744
  -8036138.66048  -6251007.42646  20465721.3754                   20465717.8794
     95531.45346     88102.75843  23845718.3204                   23845720.7194
   7170860.74247   5584645.36345  21334936.1094                   21334934.1844
  -9419410.97347  -7333571.84845  22761880.3754                   22761878.5164
   2717885.60548   2121361.90646  21547724.3134                   21547720.3014
  14538363.04347  11310658.61344  23236226.2424                   23236224.8054
 -12344906.11747  -9612883.27045  22355663.8284                   22355662.3714
 11  8 10 18 15 30.0000000  0  9G03G08G07G24G13G28G19G23G11
  13096862.85946  10192495.38743  23541317.1024                   23541315.6684
 -12049826.57048  -9378862.44546  21652029.7424                   21652027.8404
  -8097555.85948  -6298865.00046  20454034.4304                   20454030.9144
     -8802.03947      6804.07843  23825863.7274                   23825865.8984
   7228121.87947   5629264.37545  21345832.5944                   21345830.1374
  -9489479.47347  -7388170.64845  22748546.5784                   22748544.2664
   2753186.32048   2148868.91446  21554442.3284                   21554438.0784
  14621387.87547  11375353.05144  23252025.7114                   23252024.4924
 -12438740.06647  -9686000.55945  22337808.1174                   22337806.3874
 11  8 10 18 16  0.0000000  0  9G03G08G07G24G13G28G19G23G11
  13174299.24646  10252835.32443  23556052.7114                   23556051.9104
 -12149562.84048  -9456579.01646  21633050.6024                   21633048.4964
  -8158898.70348  -6346664.62546  20442360.8914                   20442357.4494
   -113325.11746    -74642.36743  23805973.8204                   23805976.7854
   7285559.05547   5674020.55545  21356762.1804                   21356760.4494
  -9559588.43747  -7442800.97345  22735205.3524                   22735203.3014
   2788750.50448   2176581.23446  21561209.7734                   21561204.9144
  14704316.04347  11439972.17644  23267805.8834                   23267805.7194
 -12532477.10547  -9759042.32845  22319970.5864                   22319968.5204
 11  8 10 18 16 30.0000000  0  9G03G08G07G24G13G28G19G23G11
  13251685.06346  10313135.92643  23570778.3984                   23570777.3364
 -12249410.93048  -9534382.70345  21614050.4384                   21614048.1334
  -8220162.08648  -6394402.33246  20430703.1884                   20430699.7344
   -218031.59046   -156231.68043  23786048.9844                   23786051.9614
   7343172.61747   5718914.16845  21367726.3594                   21367723.9224
  -9629735.60247  -7497461.07445  22721856.5314                   22721853.9924
   2824579.12948   2204499.60246  21568027.8524                   21568023.1334
  14787147.90647  11504516.23844  23283568.9144                   23283567.8914
 -12626110.93447  -9832003.68445  22302152.5234                   22302150.8014
 11  8 10 18 17  0.0000000  0  9G03G08G07G24G13G28G19G23G11
  13329019.41446  10373396.39543  23585495.2424                   23585493.6414
 -12349367.48448  -9612270.92245  21595029.2814                   21595026.6374
  -8281342.55148  -6442075.43746  20419060.7974                   20419057.8524
   -322917.01247   -237960.45343  23766088.9144                   23766093.4534
   7400961.35247   5763944.29345  21378722.7584                   21378720.7304
  -9699920.17247  -7552150.30145  22708500.8674                   22708498.6884
   2860671.30948   2232623.34846  21574895.7974                   21574891.6764
  14869882.37147  11568984.38744  23299312.7114                   23299311.9224
 -12719637.11747  -9904881.16045  22284354.5474                   22284352.9494
 11  8 10 18 17 30.0000000  0  9G03G08G07G24G13G28G19G23G11
  13406303.74647  10433617.89843  23600201.5474                   23600200.4924
 -12449426.93048  -9690239.30145  21575988.4144                   21575986.0004
  -8342434.16447  -6489679.30146  20407435.3914                   20407432.1604
   -427974.15247   -319823.05143  23746097.5234                   23746100.6484
   7458926.71947   5809112.04345  21389753.5474                   21389751.5904
  -9770139.03947  -7606866.26645  22695138.6644                   22695136.2274
   2897028.47748   2260953.57446  21581814.6804                   21581810.2504
  14952520.28947  11633377.32044  23315038.5864                   23315037.3984
 -12813048.57847  -9977669.24645  22266579.2584                   22266577.0434
 11  8 10 18 18  0.0000000  0  9G03G08G07G24G13G28G19G23G11
  15058956.77747  11721399.40243  23914691.3364                   23914690.5274
 -10974160.03948  -8540680.68045  21856721.8914                   21856720.1804
  -6828009.25848  -5309607.95746  20695620.9534                   20695617.8554
   1042227.21947    825788.53543  24025868.2344                   24025870.8984
   9092487.35547   7082016.37545  21700609.5634                   21700607.9494
  -8264966.85947  -6434004.78545  22981563.4454                   22981560.7934
   4509070.66848   3517090.31346  21888575.6644                   21888571.6604
  16610479.94547  12925293.67244  23630538.6094                   23630537.4144
 -11330915.56247  -8822760.34445  22548619.1884                   22548617.7974
 11  8 10 18 18 30.0000000  0  9G03G08G07G24G13G28G19G23G11
  15136143.89547  11781545.13343  23929380.0234                   23929378.7154
 -11074408.29748  -8618796.19545  21837646.1414                   21837643.7624
  -6888906.51648  -5357060.37146  20684032.1954                   20684029.1764
    936846.52747    743673.80543  24005814.8524                   24005816.7974
   9150807.99647   7127460.96945  21711707.9924                   21711705.9694
  -8335245.39847  -6488767.25045  22968189.9774                   22968186.9924
   4545961.45348   3545836.34446  21895596.0634                   21895591.6174
  16692927.61747  12989538.34444  23646227.3444                   23646227.2344
 -11424077.75047  -8895354.18445  22530891.5704                   22530889.0204
 11  8 10 18 19  0.0000000  0  9G03G08G07G24G13G28G19G23G11
  15213284.72347  11841654.78143  23944059.6884                   23944058.1884
 -11174741.95748  -8696978.25846  21818552.6884                   21818550.7424
  -6949697.27047  -5404429.79746  20672464.1884                   20672460.8554
    831314.85247    661441.44543  23985732.6024                   23985735.1914
   9209308.51247   7173045.71945  21722840.1954                   21722838.3594
  -8405548.57847  -6543548.91045  22954811.7034                   22954809.2664
   4583121.43448   3574792.13746  21902667.4844                   21902663.2974
  16775282.00847  13053710.35244  23661898.4924                   23661898.4964
 -11517104.82047  -8967842.74645  22513188.7114                   22513186.8714
 11  8 10 18 19 30.0000000  0  9G03G08G07G24G13G28G19G23G11
  15290379.27747  11901728.40643  23958730.0784                   23958728.7194
 -11275156.34848  -8775223.22345  21799444.7734                   21799442.4064
  -7010377.51248  -5451713.11346  20660917.3364                   20660913.8674
    725637.71547    579095.72744  23965622.6644                   23965625.1454
   9267988.61747   7218770.40645  21734006.7034                   21734005.0124
  -8475874.89547  -6598348.59445  22941428.7424                   22941426.8674
   4620550.82048   3603957.86346  21909789.9844                   21909785.6094
  16857542.78947  13117809.37944  23677552.8054                   23677552.7154
 -11609991.19547  -9040221.67245  22495513.1414                   22495510.9534
 11  8 10 18 20  0.0000000  0  9G03G08G07G24G13G28G19G23G11
  15367428.00447  11961766.28943  23973391.7344                   23973390.9884
 -11375645.94148  -8853526.78945  21780322.3524                   21780319.7504
  -7070941.61348  -5498905.92646  20649392.2274                   20649389.2504
    619821.69547    496641.77743  23945486.2424                   23945488.1844
   9326849.09047   7264635.62945  21745207.8364                   21745205.2114
  -8546221.37547  -6653164.01645  22928042.4694                   22928040.1764
   4658250.83248   3633334.46946  21916964.1334                   21916959.8364
  16939710.74247  13181836.10944  23693189.3914                   23693189.1484
 -11702729.98047  -9112485.60945  22477865.5084                   22477863.3954
 11  8 10 18 20 30.0000000  0  9G03G08G07G24G13G28G19G23G11
  15444428.82447  12021766.84844  23988044.4384                   23988043.6054
 -11476208.69948  -8931887.37545  21761185.7274                   21761183.4454
  -7131387.43748  -5546006.57847  20637889.7734                   20637886.8874
    513869.85947    414081.99643  23925324.2504                   23925326.1374
   9385887.21947   7310639.30545  21756442.2034                   21756440.3874
  -8616588.82047  -6707995.74245  22914651.6644                   22914649.4384
   4696219.35548   3662920.29346  21924189.3914                   21924185.0634
  17021783.42247  13245788.56644  23708807.5394                   23708807.0204
 -11795318.32847  -9184632.31245  22460246.4224                   22460243.9064
 11  8 10 18 21  0.0000000  0  9G03G08G07G24G13G28G19G23G11
  15521382.38747  12081730.58644  24002688.5234                   24002687.6254
 -11576839.32848  -9010300.84446  21742036.7194                   21742033.6214
  -7191709.46948  -5593010.76646  20626410.9534                   20626407.8594
    407788.83647    331421.56343  23905136.9304                   23905140.0944
   9445103.63747   7356781.89145  21767710.5474                   21767708.8054
  -8686974.53947  -6762841.71545  22901257.5474                   22901255.6094
   4734456.71548   3692715.60546  21931465.4694                   21931461.6024
  17103760.96547  13309666.91843  23724406.9454                   23724406.6214
 -11887750.00847  -9256656.93745  22442656.9694                   22442655.3444
 11  8 10 18 21 30.0000000  0  9G03G08G07G24G13G28G19G23G11
  15598288.28546  12141657.16843  24017323.0084                   24017322.0984
 -11677534.10548  -9088764.28946  21722874.8284                   21722872.2734
  -7251904.41048  -5639915.91846  20614956.0234                   20614953.2734
    301583.03947    248663.87543  23884927.1804                   23884929.8794
   9504496.91047   7403062.29345  21779012.5944                   21779011.0634
  -8757377.85547  -6817701.39545  22887860.2274                   22887858.2664
   4772962.06348   3722719.74246  21938792.8754                   21938788.5864
  17185642.30947  13373470.28944  23739988.8834                   23739989.0314
 -11980020.48047  -9328555.94545  22425098.7894                   22425096.3714
 11  8 10 18 22  0.0000000  0  9G03G08G07G24G13G28G19G23G11
  15675145.61346  12201545.88743  24031948.4454                   24031947.8404
 -11778288.71148  -9167274.37546  21703701.8284                   21703699.4884
  -7311967.86348  -5686718.61346  20603526.4924                   20603523.2234
    195257.91847    165813.25843  23864694.5474                   23864696.4774
   9564066.82847   7449480.32845  21790348.6414                   21790347.0004
  -8827797.16847  -6872573.54745  22874459.8054                   22874457.6954
   4811735.36348   3752932.66846  21946171.4384                   21946167.1644
  17267427.11747  13437198.44143  23755552.4924                   23755552.2624
 -12072124.55547  -9400325.30145  22407571.8834                   22407570.1484
 11  8 10 18 22 30.0000000  0  9G03G08G07G24G13G28G19G23G11
  15751951.54346  12261394.59443  24046564.2194                   24046564.0004
 -11879101.47748  -9245829.75846  21684517.7344                   21684514.8714
  -7371898.12148  -5733417.53546  20592122.4924                   20592119.3134
     88816.68047     82872.08643  23844438.7504                   23844440.6764
   9623810.08247   7496033.44145  21801717.6174                   21801715.5784
  -8898233.35247  -6927458.85245  22861056.5554                   22861054.5164
   4850773.64148   3783352.07046  21953600.1954                   21953595.6644
  17349112.45346  13500849.06643  23771096.5704                   23771096.5474
 -12164059.34047  -9471962.73445  22390077.3984                   22390075.0634
 11  8 10 18 23  0.0000000  0  9G03G08G07G24G13G28G19G23G11
  15828703.81346  12321201.48043  24061170.0234                   24061169.3554
 -11979970.50448  -9324428.99246  21665322.9384                   21665320.6914
  -7431693.51648  -5780011.36346  20580743.7504                   20580740.6094
    -17738.05547      -157.44943  23824162.6564                   23824164.9574
   9683724.00847   7542719.53945  21813118.6484                   21813116.6174
  -8968687.33247  -6982358.02045  22847649.3444                   22847647.2774
   4890074.45748   3813976.04346  21961078.9064                   21961074.5904
  17430695.09047  13564419.64844  23786621.1174                   23786621.7624
 -12255822.15247  -9543466.16445  22372614.9144                   22372613.4454
 11  8 10 18 23 30.0000000  0  9G03G08G07G24G13G28G19G23G11
  15905402.21146  12380966.35943  24075765.2894                   24075764.5704
 -12080891.21148  -9403068.48445  21646118.5004                   21646116.5234
  -7491349.74648  -5826496.75846  20569391.4454                   20569388.5124
   -124400.50046    -83270.94543  23803864.5234                   23803866.9654
   9743808.52747   7589538.57045  21824552.6884                   21824550.8164
  -9039157.49247  -7037269.80545  22834239.3364                   22834237.1804
   4929637.73048   3844804.54346  21968607.3914                   21968603.1804
  17512174.86746  13627910.10244  23802125.6414                   23802126.9224
 -12347407.45347  -9614831.28145  22355187.2034                   22355185.1054
 11  8 10 18 24  0.0000000  0  9G03G08G07G24G13G28G19G23G11
  15982048.19546  12440690.41043  24090350.4534                   24090349.7074
 -12181857.56648  -9481743.55146  21626905.1174                   21626902.6804
  -7550860.82848  -5872869.04346  20558067.0234                   20558063.6134
   -231163.69147   -166462.92243  23783547.9924                   23783550.9494
   9804064.11347   7636490.89545  21836019.2664                   21836017.1724
  -9109640.70347  -7092191.77045  22820826.8914                   22820824.7504
   4969464.93448   3875838.69546  21976186.3364                   21976181.6524
  17593553.05147  13691321.35944  23817613.0084                   23817613.1684
 -12438808.55547  -9686052.87145  22337793.6254                   22337791.5984
 11  8 10 18 24 30.0000000  0  9G03G08G07G24G13G28G19G23G11
  16058646.02046  12500376.92643  24104926.3204                   24104925.6214
 -12282860.42248  -9560447.06246  21607684.9144                   21607682.6764
  -7610217.61348  -5919121.09846  20546771.9694                   20546768.4064
   -338017.46947   -249725.48443  23763215.2344                   23763216.9614
   9864495.34447   7683580.09045  21847518.4454                   21847516.7624
  -9180130.25447  -7147118.64845  22807413.3524                   22807411.2934
   5009560.38748   3907081.87546  21983816.3284                   21983812.3914
  17674833.94946  13754656.82043  23833079.7584                   23833079.9304
 -12530015.14847  -9757122.89845  22320437.5004                   22320436.0004
 11  8 10 18 25  0.0000000  0  9G03G08G07G24G13G28G19G23G11
  16135202.56346  12560031.28943  24119494.8754                   24119493.6604
 -12383888.64148  -9639170.32846  21588459.9064                   21588457.9454
  -7669409.08248  -5965244.33246  20535508.2194                   20535504.4844
   -444949.78946   -333049.26243  23742866.0394                   23742868.2464
   9925108.23047   7730810.83245  21859053.1414                   21859050.9104
  -9250618.47747  -7202044.50845  22793999.3674                   22793997.1644
   5049930.74248   3938539.26646  21991498.2194                   21991494.2734
  17756023.64146  13817921.20344  23848530.6094                   23848531.1094
 -12621015.70747  -9828032.36745  22303121.0234                   22303119.4614
 11  8 10 18 25 30.0000000  0  9G03G08G07G24G13G28G19G23G11
  16211725.11346  12619659.18443  24134056.6644                   24134056.1024
 -12484930.61348  -9717904.32446  21569232.2274                   21569230.3054
  -7728423.83648  -6011229.86347  20524277.6954                   20524274.8444
   -551947.56246   -416424.03943  23722505.0234                   23722506.8834
   9985909.80947   7778188.59845  21870623.0864                   21870620.9884
  -9321096.04747  -7256962.07445  22780588.1174                   22780586.0394
   5090582.94948   3970216.26246  21999234.3674                   21999229.8324
  17837129.33646  13881120.14143  23863965.1564                   23863964.9734
 -12711797.73047  -9898771.55145  22285846.0164                   22285843.7624
 11  8 10 18 26  0.0000000  0  9G03G08G07G24G13G28G19G23G11
  16288222.90646  12679267.81643  24148614.1564                   24148612.7854
 -12585972.60948  -9796638.33646  21550004.6644                   21550002.8674
  -7787247.87948  -6057066.79347  20513084.1334                   20513080.6994
   -658996.16046   -499838.41043  23702134.4844                   23702136.5784
  10046908.99647   7825720.35545  21882231.0944                   21882229.2234
  -9391552.23447  -7311862.95345  22767181.1094                   22767178.5434
   5131526.19548   4002120.05946  22007025.2974                   22007021.6214
  17918159.61346  13944260.34843  23879383.9304                   23879384.9534
 -12802346.12547  -9969328.68745  22268614.9844                   22268612.4024
 11  8 10 18 26 30.0000000  0  9G03G08G07G24G13G28G19G23G11
  16364704.30946  12738863.65643  24163167.7734                   24163167.4884
 -12687000.62548  -9875361.45346  21530779.5474                   21530777.1914
  -7845868.39548  -6102745.12146  20501928.8674                   20501925.3324
   -766081.07047   -583281.08243  23681756.5474                   23681759.1254
  10108114.50047   7873412.86745  21893878.0554                   21893876.3634
  -9461976.26647  -7366738.80145  22753779.7504                   22753777.7624
   5172769.52747   4034257.68446  22014873.7344                   22014869.9534
  17999123.28146  14007348.60244  23894791.5234                   23894792.1484
 -12892646.93047 -10039692.90245  22251431.1414                   22251429.3954
 11  8 10 18 27  0.0000000  0  9G03G08G07G24G13G28G19G23G11
  16441179.43846  12798454.63343  24177720.2894                   24177718.9574
 -12788001.16848  -9954063.16046  21511559.9454                   21511557.6804
  -7904271.38748  -6148253.95746  20490815.0704                   20490811.7624
   -873187.35246   -666740.40243  23661374.9534                   23661377.1374
  10169534.91847   7921272.85245  21905565.6644                   21905564.3674
  -9532357.09047  -7421580.96945  22740386.8204                   22740384.4574
   5214322.03948   4066636.22345  22022781.5554                   22022777.1524
  18080029.52046  14070392.11743  23910187.8524                   23910188.2274
 -12982685.27747 -10109852.61345  22234297.3284                   22234295.1954
 11  8 10 18 27 30.0000000  0  9G03G08G07G24G13G28G19G23G11
  16517654.18047  12858045.30943  24192273.8834                   24192272.2154
 -12888962.93448 -10032734.64846  21492347.4224                   21492345.2034
  -7962445.73048  -6193584.62946  20479744.7734                   20479741.6884
   -980302.65246   -750206.73443  23640991.6024                   23640993.3204
  10231176.49647   7969305.15245  21917296.3594                   21917294.5164
  -9602686.80147  -7476383.31645  22727003.3984                   22727001.1454
   5256190.07448   4099260.62545  22030748.2504                   22030744.3444
  18160884.56646  14133395.74243  23925574.1334                   23925575.0744
 -13072449.45347 -10179798.68045  22217216.0704                   22217213.8324
 11  8 10 18 28  0.0000000  0  8G08G07G24G13G28G19G23G11
 -12989877.17248 -10111369.10946  21473143.8754                   21473141.1524
  -8020383.05948  -6238730.60547  20468719.9534                   20468716.7544
  -1087417.17246   -833672.46143  23620608.2974                   23620610.5744
  10293042.96947   8017512.71945  21929069.0864                   21929067.3284
  -9672959.31247  -7531141.08645  22713630.6254                   22713629.0164
   5298377.57048   4132133.96545  22038776.6254                   22038772.4184
  18241692.34446  14196362.52043  23940950.9614                   23940951.8364
 -13161930.09047 -10249523.80945  22200188.9144                   22200186.2274
 11  8 10 18 28 30.0000000  0  8G08G07G24G13G28G19G23G11
 -13090737.07448 -10189961.22746  21453950.6954                   21453949.0554
  -8078076.61748  -6283686.62947  20457741.3674                   20457738.2154
  -1194523.06647   -917131.46943  23600227.0554                   23600228.7194
  10355135.95747   8065896.78145  21940884.6174                   21940883.6844
  -9743170.46547  -7585851.03545  22700270.4224                   22700268.0554
   5340886.84048   4165258.03945  22046866.0704                   22046861.3014
  18322454.82046  14259294.00443  23956320.4774                   23956321.1914
 -13251119.30147 -10319021.85545  22183216.3594                   22183214.4454
 11  8 10 18 29  0.0000000  0  8G08G07G24G13G28G19G23G11
 -13191533.79748 -10268504.11346  21434770.1174                   21434767.9414
  -8135518.19948  -6328446.30547  20446810.1724                   20446807.0474
  -1301610.91847  -1000576.41043  23579848.5474                   23579850.4184
  10417459.12147   8114460.19145  21952745.1884                   21952742.6954
  -9813315.08247  -7640509.14145  22686922.5084                   22686919.6254
   5383721.66848   4198635.78945  22055016.7114                   22055012.6254
  18403175.57446  14322192.97343  23971681.6724                   23971681.5474
 -13340008.00447 -10388285.74245  22166300.8444                   22166299.2544
 11  8 10 18 29 30.0000000  0  8G08G07G24G13G28G19G23G11
 -13292257.24248 -10346989.89846  21415602.8754                   21415601.1804
  -8192697.65648  -6373001.73447  20435929.4144                   20435926.2424
  -1408669.32847  -1083998.40244  23559475.8984                   23559477.8794
  10480017.82447   8163207.15245  21964649.3984                   21964647.8054
  -9883385.63347  -7695109.53945  22673587.8054                   22673585.8714
   5426887.43848   4232271.41045  22063231.3054                   22063226.9964
  18483859.96546  14385063.61743  23987035.2734                   23987035.6484
 -13428585.42247 -10457307.06245  22149445.5394                   22149443.2304
 11  8 10 18 30  0.0000000  0  8G08G07G24G13G28G19G23G11
 -13392901.95748 -10425414.33246  21396450.9534                   21396448.7734
  -8249610.03548  -6417349.05147  20425099.4694                   20425096.0084
  -1515691.78147  -1167392.38744  23539110.0394                   23539112.2384
  10542812.60947   8212138.06645  21976599.1644                   21976597.0984
  -9953379.45747  -7749650.15645  22660268.6804                   22660266.6294
   5470384.65248   4266165.29745  22071508.4774                   22071504.6644
  18564508.90246  14447906.58243  24002383.0704                   24002383.3754
 -13516845.23447 -10526080.90245  22132650.1174                   22132647.9614
 11  8 10 18 30 30.0000000  0  8G08G07G24G13G28G19G23G11
 -13493465.57048 -10503775.59046  21377314.2034                   21377312.4144
  -8306252.98048  -6461486.41047  20414320.5394                   20414317.2664
  -1622674.87147  -1250755.68044  23518751.6334                   23518753.6214
  10605840.67247   8261250.75045  21988592.7274                   21988590.7194
 -10023297.02347  -7804131.33645  22646963.3834                   22646961.3204
   5514211.40247   4300315.97746  22079848.2114                   22079843.9024
  18645119.70746  14510719.85943  24017722.8204                   24017723.3284
 -13604784.40647 -10594604.89545  22115915.6884                   22115913.6484
 11  8 10 18 31  0.0000000  0  8G08G07G24G13G28G19G23G11
 -13593945.66048 -10582071.74246  21358193.4694                   21358191.1174
  -8362624.50448  -6505412.27747  20403593.2424                   20403590.4774
  -1729615.36347  -1334085.79744  23498401.2504                   23498403.7074
  10669099.10547   8310542.93845  22000630.5704                   22000628.7504
 -10093139.29347  -7858553.85945  22633673.0634                   22633670.3014
   5558364.87148   4334721.23846  22088250.7664                   22088246.7384
  18725689.57846  14573501.23843  24033055.1884                   24033055.9534
 -13692400.00047 -10662876.75045  22099243.3834                   22099241.3404
 11  8 10 18 31 30.0000000  0  8G08G07G24G13G28G19G23G11
 -13694339.94548 -10660301.03946  21339089.1724                   21339086.8204
  -8418722.66848  -6549125.14147  20392918.2974                   20392914.9264
  -1836510.30947  -1417380.41844  23478059.7504                   23478061.6054
  10732584.92647   8360012.32445  22012712.0234                   22012709.7504
 -10162907.05147  -7912918.34045  22620396.7344                   22620394.2974
   5602842.43847   4369379.03945  22096714.4224                   22096710.1764
  18806216.00846  14636248.78943  24048379.2344                   24048379.3554
 -13779689.19947 -10730894.27345  22082632.3524                   22082630.1604
 11  8 10 18 32  0.0000000  0  8G08G07G24G13G28G19G23G11
 -13794648.39548 -10738463.46146  21320000.7814                   21319999.2344
  -8474547.85548  -6592625.29746  20382295.2974                   20382292.1644
  -1943358.46947  -1500638.56244  23457727.4064                   23457729.0354
  10796293.74647   8409655.48045  22024835.1484                   22024833.2074
 -10232602.73047  -7967226.62945  22607133.8674                   22607131.4024
   5647639.49247   4404285.80145  22105239.4614                   22105235.0084
  18886694.50846  14698958.97744  24063693.4064                   24063694.1484
 -13866651.43447 -10798657.01645  22066084.3284                   22066082.2734
 11  8 10 18 32 30.0000000  0  8G08G07G24G13G28G19G23G11
 -13894871.72748 -10816559.55146  21300929.3054                   21300927.0704
  -8530100.89148  -6635913.37947  20371723.7034                   20371720.7034
  -2050160.04747  -1583860.41443  23437403.5164                   23437405.2034
  10860218.85947   8459467.15245  22036999.8594                   22036997.7384
 -10302230.70347  -8021482.16445  22593884.5554                   22593881.6914
   5692750.00447   4439436.80545  22113822.9614                   22113819.4224
  18967119.02046  14761627.07044  24078998.0784                   24078998.8714
 -13953287.07047 -10866165.28945  22049598.0784                   22049596.1484
 11  8 10 18 33  0.0000000  0  8G08G07G24G13G28G19G23G11
 -13995005.74248 -10894586.05546  21281874.5704                   21281871.8204
  -8585377.91848  -6678986.39847  20361204.7814                   20361202.0274
  -2156909.25447  -1667041.46944  23417090.1414                   23417091.5044
  10924359.56347   8509446.82845  22049205.3674                   22049203.9494
 -10371789.69147  -8075683.95345  22580647.7734                   22580645.1414
   5738173.62947   4474831.79345  22122467.1334                   22122463.4774
  19047489.00046  14824252.71543  24094292.6254                   24094293.3914
 -14039591.38347 -10933415.38345  22033174.3984                   22033172.6724
 11  8 10 18 33 30.0000000  0  8G08G07G24G13G28G19G23G11
 -14095050.09048 -10972542.68046  21262836.8754                   21262834.4414
  -8640378.80948  -6721844.24647  20350738.5554                   20350735.3984
  -2263604.88747  -1750180.77343  23396785.7894                   23396787.7774
  10988711.50047   8559591.08245  22061451.4384                   22061449.4964
 -10441281.84447  -8129833.66445  22567423.7734                   22567420.9064
   5783905.88747   4510467.27745  22131169.4224                   22131165.6954
  19127800.00846  14886832.37543  24109575.3674                   24109576.2234
 -14125563.28547 -11000406.44945  22016815.2584                   22016812.5354
 11  8 10 18 34  0.0000000  0  9G17G08G07G24G13G28G19G23G11
   4545341.45756   3560346.82053  24574780.1804                   24574782.8914
 -14195001.44548 -11050426.85246  21243816.4924                   21243814.3364
  -8695100.56648  -6764484.57447  20340325.3364                   20340322.1764
  -2370242.75447  -1833275.07044  23376493.7664                   23376495.0664
  11053272.53547   8609898.27745  22073736.7424                   22073735.2624
 -10510707.05147  -8183931.19145  22554212.1724                   22554209.9844
   5829945.23047   4546342.05145  22139930.7584                   22139927.1334
  19208050.39846  14949364.81343  24124846.8134                   24124848.4264
 -14211198.96147 -11067135.53945  22000518.5314                   22000516.6094
 11  8 10 18 34 30.0000000  0  9G17G08G07G24G13G28G19G23G11
   4405814.09446   3451624.30142  24548228.3594                   24548230.9844
 -14294859.91048 -11128238.63346  21224814.0314                   21224811.8094
  -8749544.30548  -6806908.26247  20329964.9064                   20329962.1254
  -2476822.31247  -1916323.93444  23356212.2974                   23356213.6804
  11118037.02347   8660364.00845  22086061.3134                   22086060.1484
 -10580068.78147  -8237979.26245  22541012.5314                   22541010.8754
   5876286.13747   4582451.79745  22148749.1024                   22148745.4654
  19288234.94146  15011845.94143  24140104.6954                   24140107.2074
 -14296498.38347 -11133602.59845  21984286.0394                   21984284.9414
 11  8 10 18 35  0.0000000  0  9G17G08G07G24G13G28G19G23G11
   4266314.63346   3342923.59443  24521683.1334                   24521686.0394
 -14394625.91048 -11205978.37546  21205829.2814                   21205827.2384
  -8803710.53548  -6849115.71147  20319657.8134                   20319654.6844
  -2583342.99647  -1999326.92644  23335942.2894                   23335943.3164
  11182999.35947   8710983.91045  22098423.2194                   22098421.6604
 -10649370.36747  -8291980.46545  22527825.4694                   22527823.1644
   5922923.23447   4618792.34845  22157623.4064                   22157620.0004
  19368348.22746  15074271.54743  24155350.7734                   24155351.6484
 -14381461.26647 -11199807.42245  21968119.0164                   21968116.9884
 11  8 10 18 35 30.0000000  0  9G17G08G07G24G13G28G19G23G11
   4126843.32046   3234244.78143  24495142.6334                   24495145.2424
 -14494299.15248 -11283645.82446  21186861.9924                   21186859.8954
  -8857599.16048  -6891106.83247  20309402.6954                   20309400.0164
  -2689803.34447  -2082282.91044  23315682.7194                   23315684.1844
  11248155.07847   8761754.48045  22110821.4614                   22110820.6094
 -10718614.41047  -8345936.83245  22514648.9534                   22514646.5634
   5969852.38347   4655360.46145  22166554.3524                   22166550.4964
  19448385.63346  15136638.00043  24170581.6254                   24170583.7464
 -14466086.87947 -11265749.43445  21952015.1954                   21952013.3204
 11  8 10 18 36  0.0000000  0  9G17G08G07G24G13G28G19G23G11
   3987405.54346   3125592.07043  24468608.3834                   24468611.6054
 -14593874.10948 -11361236.69546  21167913.6954                   21167911.5634
  -8911204.82448  -6932877.50447  20299201.9694                   20299198.7424
  -2796196.96547  -2165186.88343  23295436.0474                   23295437.6334
  11313504.30547   8812675.85245  22123257.5314                   22123256.3094
 -10787798.56647  -8399846.53145  22501483.6094                   22501481.0164
   6017073.93447   4692156.41845  22175540.3204                   22175536.2934
  19528348.09446  15198946.02043  24185798.0944                   24185800.1524
 -14550369.37947 -11331424.07845  21935976.5474                   21935974.5124
 11  8 10 18 36 30.0000000  0  9G17G08G07G24G13G28G19G23G11
   3848005.32446   3016968.66844  24442081.2114                   24442084.1024
 -14693346.75448 -11438747.83246  21148984.8284                   21148982.0314
  -8964524.53548  -6974425.32047  20289055.6884                   20289052.6174
  -2902518.88747  -2248035.01243  23275203.6644                   23275205.1804
  11379046.10947   8863747.27745  22135730.0314                   22135728.1024
 -10856921.89847  -8453708.82045  22488330.1644                   22488327.2194
   6064587.12147   4729179.64545  22184581.6094                   22184578.0554
  19608234.62946  15261194.94543  24201000.0784                   24201002.8674
 -14634304.46547 -11396828.01245  21920004.2194                   21920002.2974
 11  8 10 18 37  0.0000000  0  9G17G08G07G24G13G28G19G23G11
   3708647.73047   2908378.48044  24415562.2274                   24415565.7894
 -14792711.56248 -11516174.94146  21130076.1254                   21130073.7734
  -9017552.98048  -7015746.18447  20278964.8054                   20278961.6054
  -3008762.80947  -2330822.34444  23254986.4844                   23254987.4534
  11444780.51647   8914968.80545  22148238.6484                   22148237.4494
 -10925982.31247  -8507522.09445  22475188.1254                   22475185.3054
   6112392.17647   4766430.30145  22193678.7664                   22193675.1334
  19688045.89146  15323385.19143  24216187.6024                   24216190.7974
 -14717886.35947 -11461956.71545  21904099.5004                   21904097.4184
 11  8 10 18 37 30.0000000  0  9G17G08G07G24G13G28G19G23G11
   3569338.21147   2799825.75444  24389052.5474                   24389055.8324
 -14891963.18748 -11593513.86346  21111188.7194                   21111186.3134
  -9070285.57048  -7056836.52747  20268929.8524                   20268926.8794
  -3114922.41047  -2413544.00044  23234785.3674                   23234785.9534
  11510707.41047   8966340.29345  22160784.0164                   22160782.9384
 -10994976.97347  -8561284.12545  22462058.7114                   22462055.4184
   6160489.37547   4803908.59045  22202831.6884                   22202827.8204
  19767781.70346  15385516.63743  24231362.0394                   24231364.4614
 -14801109.15647 -11526805.61345  21888262.5704                   21888260.0824
 11  8 10 18 38  0.0000000  0  9G17G08G07G24G13G28G19G23G11
   3430086.66047   2691318.20744  24362554.2664                   24362557.0944
 -14991091.36748 -11670756.59446  21092325.7424                   21092323.5434
  -9122712.36748  -7097688.57847  20258953.5234                   20258950.6334
  -3220986.80547  -2496191.44144  23214601.1174                   23214602.8714
  11576831.55547   9017865.50044  22173367.0944                   22173366.2624
 -11063899.31247  -8614989.81245  22448943.3984                   22448940.4144
   6208884.00047   4841618.64545  22212040.7114                   22212036.9184
  19847447.44946  15447593.47343  24246521.8054                   24246524.5204
 -14883962.64547 -11591366.73445  21872495.8834                   21872493.8554
 11  8 10 18 38 30.0000000  0  9G17G08G07G24G13G28G19G23G11
   3290903.42247   2582863.91844  24336067.9304                   24336070.7774
 -15090085.37948 -11747894.77746  21073487.5474                   21073485.1644
  -9174823.07048  -7138294.32046  20249037.1254                   20249034.2114
  -3326944.27347  -2578755.57444  23194437.5944                   23194439.4024
  11643158.87547   9069549.00845  22185988.8674                   22185988.2074
 -11132741.43747  -8668633.00045  22435843.0474                   22435840.0594
   6257581.74247   4879564.89545  22221307.6414                   22221303.3404
  19927049.23846  15509620.52043  24261670.0474                   24261672.4774
 -14966435.63747 -11655631.38345  21856801.8444                   21856799.5554
 11  8 10 18 39  0.0000000  0  9G17G08G07G24G13G28G19G23G11
   3151799.93847   2474471.77744  24309597.1484                   24309600.4064
 -15188933.96148 -11824919.63746  21054677.0474                   21054674.9614
  -9226606.81648  -7178645.29747  20239182.9924                   20239179.7154
  -3432782.78547  -2661227.00843  23174297.7814                   23174298.8714
  11709694.95747   9121395.19145  22198650.0084                   22198649.5744
 -11201494.92247  -8722207.12545  22422759.7114                   22422756.9454
   6306588.94547   4917752.28945  22230633.5944                   22230629.5594
  20006593.34446  15571602.57043  24276806.6174                   24276810.1134
 -15048516.53947 -11719590.50045  21841182.2504                   21841180.4534
 11  8 10 18 39 30.0000000  0  9G17G08G07G24G13G28G19G23G11
   3012791.09446   2366153.38343  24283145.5004                   24283147.5864
 -15287622.11748 -11901819.48846  21035897.1484                   21035894.9304
  -9278049.09848  -7218730.19947  20229393.6174                   20229390.9494
  -3538486.40647  -2743593.32844  23154183.2274                   23154184.0354
  11776449.88347   9173411.89544  22211353.9064                   22211352.4574
 -11270148.30147  -8775703.23045  22409695.2974                   22409692.7584
   6355915.26247   4956188.34045  22240020.2194                   22240015.8524
  20086089.92646  15633547.59043  24291934.8054                   24291937.6524
 -15130190.25847 -11783232.33645  21825640.6644                   21825637.9734
 11  8 10 18 40  0.0000000  0  9G17G08G07G24G13G28G19G23G11
   2873886.74646   2257916.43043  24256711.5634                   24256714.9734
 -15386139.84848 -11978586.54746  21017150.2274                   21017148.1604
  -9329140.71148  -7258541.85547  20219671.6954                   20219668.4534
  -3644044.23447  -2825846.02044  23134095.6884                   23134097.1954
  11843428.14147   9225602.64844  22224098.9774                   22224097.8094
 -11338694.59447  -8829115.90245  22396651.0864                   22396648.9804
   6405565.95747   4994877.15645  22249468.1174                   22249463.9414
  20165543.79346  15695459.35943  24307054.4774                   24307056.8364
 -15211446.39847 -11846548.78145  21810178.0084                   21810176.0514
 11  8 10 18 40 30.0000000  0  8G17G08G07G24G13G28G19G11
   2735095.75046   2149767.81643  24230300.4144                   24230302.7464
 -15484477.87148 -12055213.57446  20998437.1024                   20998434.2774
  -9379872.70348  -7298073.28547  20210017.4534                   20210014.5984
  -3749445.87547  -2907977.03544  23114038.5474                   23114039.6374
  11910633.69947   9277970.50044  22236888.3204                   22236887.4924
 -11407127.56247  -8882440.26645  22383628.9454                   22383626.5824
   6455545.05547   5033821.87545  22258978.8594                   22258974.5904
 -15292275.59847 -11909532.55145  21794796.5554                   21794794.1564
 11  8 10 18 41  0.0000000  0  8G17G08G07G24G13G28G19G11
   4171852.38746   3269318.65243  24503706.0004                   24503708.9064
 -14007203.23848 -10904090.47746  21279552.8754                   21279550.5084
  -7854814.44948  -6109716.21547  20500226.4534                   20500223.4184
  -2279257.68747  -1762375.71144  23393805.7194                   23393807.0904
  13553488.57447  10558117.03945  22549513.0234                   22549512.0274
  -9900018.58247  -7708069.60245  22670422.5944                   22670420.0164
   8081275.55547   6300624.82445  22568345.1174                   22568341.2934
 -13797245.14148 -10744573.72345  22079291.6414                   22079288.6294
 11  8 10 18 41 30.0000000  0  8G17G08G07G24G13G28G19G11
   4033316.75046   3161369.05543  24477343.1254                   24477345.8554
 -14105152.78148 -10980414.78546  21260913.3914                   21260911.5664
  -7904799.94148  -6148665.96147  20490714.5084                   20490711.4534
  -2384316.00847  -1844239.21544  23373813.7894                   23373815.0864
  13621162.07447  10610849.51245  22562390.8834                   22562390.0824
  -9968205.50047  -7761202.23845  22657446.5164                   22657444.6024
   8131925.36747   6340092.17245  22577983.5474                   22577979.5634
 -13877190.61348 -10806868.87145  22064078.7034                   22064075.9494
 11  8 10 18 42  0.0000000  0  8G17G08G07G24G13G28G19G11
   3894925.47746   3053531.94143  24451008.8204                   24451010.8094
 -14202891.00448 -11056574.43446  21242314.8984                   21242312.4344
  -7954396.04348  -6187312.27747  20481276.9454                   20481273.8444
  -2489184.21547  -1925954.54344  23353858.2344                   23353859.7154
  13689078.65647  10663771.40245  22575315.1564                   22575314.6564
 -10036256.82447  -7814229.20745  22644497.1094                   22644494.6254
   8182920.14147   6379828.33645  22587687.5084                   22587683.9304
 -13956677.14847 -10868806.41445  22048952.2814                   22048949.9224
 11  8 10 18 42 30.0000000  0  8G17G08G07G24G13G28G19G11
   3756683.08646   2945810.78144  24424701.8984                   24424703.3914
 -14300412.88348 -11132565.48846  21223757.3204                   21223755.2664
  -8003598.24648  -6225651.67247  20471913.7504                   20471910.8484
  -2593856.73047  -2007517.43044  23333939.3524                   23333940.5044
  13757237.47347  10716882.04345  22588285.1334                   22588284.4454
 -10104171.00847  -7867149.32845  22631573.6954                   22631570.6994
   8234259.54747   6419833.03545  22597456.8674                   22597453.4384
 -14035699.60247 -10930382.31245  22033914.7894                   22033912.7424
 11  8 10 18 43  0.0000000  0  8G17G08G07G24G13G28G19G11
   3618591.99246   2838207.56344  24398423.3524                   24398425.4454
 -14397716.19148 -11208386.25046  21205240.8204                   21205238.5984
  -8052404.53148  -6263682.54747  20462626.8834                   20462623.5474
  -2698329.97347  -2088925.00844  23314058.4064                   23314060.1764
  13825635.76647  10770179.29345  22601301.0864                   22601300.2704
 -10171948.69147  -7919963.07045  22618675.9304                   22618673.1094
   8285940.85247   6460104.14845  22607291.5004                   22607287.6564
 -14114255.60547 -10991594.75845  22018965.7974                   22018963.8984
 11  8 10 18 43 30.0000000  0  8G17G08G07G24G13G28G19G11
   3480653.64146   2730723.39144  24372174.7034                   24372177.1054
 -14494799.17648 -11284035.31246  21186766.8284                   21186764.3834
  -8100814.51648  -6301404.60547  20453414.1254                   20453411.3834
  -2802601.79347  -2170175.64144  23294216.1804                   23294217.2734
  13894269.87547  10823660.28945  22614361.8754                   22614361.6954
 -10239591.56647  -7972671.77045  22605803.4694                   22605801.2704
   8337960.59447   6500638.97745  22617190.8054                   22617186.7154
 -14192343.36747 -11052442.32845  22004106.5234                   22004104.5084
 11  8 10 18 44  0.0000000  0  9G17G08G07G24G26G13G28G19G11
   3342865.98446   2623356.62944  24345954.4844                   24345956.2194
 -14591663.41448 -11359513.93446  21168333.9454                   21168331.8834
  -8148830.36348  -6338819.55947  20444276.7504                   20444274.0354
  -2906673.27747  -2251270.18043  23274411.8524                   23274412.7384
   6140476.69556   4801298.99653  24340500.3834                   24340499.2664
  13963132.59447  10877319.43045  22627466.1334                   22627465.7734
 -10307104.55147  -8025279.25845  22592956.5474                   22592953.4384
   8390311.91847   6541432.17245  22627152.7344                   22627148.9534
 -14269964.56248 -11112926.35545  21989335.7894                   21989333.2544
 11  8 10 18 44 30.0000000  0  9G17G08G07G24G26G13G28G19G11
   3205224.05546   2516103.41844  24319761.9774                   24319763.7304
 -14688313.49648 -11434825.68046  21149941.7894                   21149939.9184
  -8196457.36748  -6375931.52047  20435214.0864                   20435211.0984
  -3010547.84847  -2332211.27344  23254645.0234                   23254645.7894
   6016584.40246   4704759.63743  24316924.0084                   24316923.7854
  14032214.31647  10931149.21544  22640612.1334                   22640611.7234
 -10374495.12947  -8077791.36345  22580132.1094                   22580129.5784
   8442985.29347   6582476.32845  22637176.2114                   22637172.5004
 -14347123.46548 -11173050.14145  21974652.5784                   21974650.5274
 11  8 10 18 45  0.0000000  0  9G17G08G07G24G26G13G28G19G11
   3067721.89546   2408959.11344  24293595.5084                   24293597.6644
 -14784755.10548 -11509974.97746  21131590.1564                   21131587.6334
  -8243701.54348  -6412745.17247  20426223.9144                   20426221.1454
  -3114230.48047  -2413002.82844  23234915.0704                   23234915.7424
   5893067.89546   4608513.12543  24293419.5784                   24293419.9924
  14101503.85547  10985140.91444  22653797.5704                   22653797.0354
 -10441772.22347  -8130215.03945  22567329.8984                   22567327.2304
   8495969.69947   6623762.84045  22647259.1414                   22647254.9494
 -14423825.83647 -11232818.19145  21960056.5004                   21960054.5554
 11  8 10 18 45 30.0000000  0  9G17G08G07G24G26G13G28G19G11
   2930354.41046   2301919.76643  24267455.4454                   24267456.9774
 -14880993.38748 -11584965.84046  21113276.6884                   21113274.1604
  -8290568.49648  -6449264.88347  20417305.2664                   20417302.4694
  -3217725.39847  -2493648.08644  23215220.7344                   23215221.3364
   5769922.87146   4512556.02343  24269985.6094                   24269986.5394
  14170990.74247  11039286.40244  22667020.4304                   22667020.6414
 -10508944.05947  -8182556.68745  22554547.4774                   22554544.6214
   8549255.07447   6665283.89545  22657398.8984                   22657394.9614
 -14500076.89147 -11292234.57845  21945546.6484                   21945544.3014
 11  8 10 18 46  0.0000000  0  9G17G08G07G24G26G13G28G19G11
   2793120.18446   2194984.23843  24241340.9924                   24241342.1994
 -14977029.02048 -11659798.79346  21095001.5944                   21094999.4344
  -8337060.11748  -6485492.13347  20408458.2894                   20408455.2194
  -3321032.80547  -2574147.25044  23195561.6564                   23195562.5204
   5647148.67246   4416887.89843  24246622.6024                   24246622.2234
  14240668.57447  11093580.66445  22680279.8594                   22680279.2814
 -10576014.67647  -8234819.49245  22541784.5474                   22541781.6054
   8602835.51247   6707034.83245  22667594.9774                   22667591.2934
 -14575877.64148 -11351300.06645  21931122.6024                   21931120.2424
 11  8 10 18 46 30.0000000  0  9G17G08G07G24G26G13G28G19G11
   2656017.47746   2088151.16043  24215249.9064                   24215251.8164
 -15072863.42648 -11734474.94546  21076764.9694                   21076762.5314
  -8383178.24648  -6521428.34447  20399682.0474                   20399678.8284
  -3424153.03947  -2654500.56244  23175938.1334                   23175939.0864
   5524744.32846   4321507.95343  24223329.5474                   24223328.8794
  14310530.68847  11148018.53944  22693574.5474                   22693573.9184
 -10642988.73047  -8287007.04345  22529039.3674                   22529036.8554
   8656704.20347   6749010.39545  22677846.0084                   22677842.1134
 -14651229.50848 -11410015.77745  21916782.9924                   21916780.6844
 11  8 10 18 47  0.0000000  0  9G17G08G07G24G26G13G28G19G11
   2519043.75046   1981418.56343  24189185.2424                   24189185.9104
 -15168498.88748 -11808996.07846  21058566.0234                   21058563.6604
  -8428926.00848  -6557075.97347  20390976.6334                   20390973.7274
  -3527087.58246  -2734709.20344  23156350.3594                   23156351.1414
   5402708.34847   4226415.07843  24200107.2194                   24200106.0944
  14380569.43847  11202594.02744  22706903.0634                   22706902.0124
 -10709871.37547  -8339123.37145  22516312.3284                   22516309.8714
   8710853.81347   6791204.85545  22688150.2584                   22688146.5474
 -14726134.60547 -11468383.35945  21902529.3134                   21902526.6484
 11  8 10 18 47 30.0000000  0  9G17G08G07G24G26G13G28G19G11
   2382196.05546   1874784.16444  24163143.7114                   24163144.6174
 -15263938.02048 -11883364.21946  21040404.7194                   21040402.5354
  -8474307.05148  -6592437.83647  20382340.8524                   20382337.9654
  -3629838.57047  -2814774.80544  23136797.7584                   23136798.9534
   5281037.99246   4131607.07443  24176954.7344                   24176952.6684
  14450776.31647  11257300.55944  22720262.8134                   22720261.4024
 -10776669.21947  -8391173.60545  22503600.8054                   22503598.1914
   8765276.54347   6833612.13745  22698506.5704                   22698502.7854
 -14800595.91047 -11526405.13345  21888359.7894                   21888357.5084
 11  8 10 18 48  0.0000000  0  9G17G08G07G24G26G13G28G19G11
   2245474.27346   1768247.89143  24137126.5314                   24137127.0314
 -15359180.98448 -11957579.50446  21022280.1954                   21022277.8164
  -8519321.71148  -6627514.20347  20373774.6884                   20373772.0634
  -3732405.34447  -2894696.86744  23117279.3754                   23117280.3954
   5159734.14846   4037084.66043  24153869.8754                   24153869.6914
  14521146.46947  11312134.30544  22733653.9534                   22733653.2074
 -10843384.98447  -8443159.90245  22490905.5164                   22490902.6294
   8819967.21947   6876228.21145  22708914.2194                   22708910.1844
 -14874613.29748 -11584080.98445  21874274.8364                   21874272.3794
 11  8 10 18 48 30.0000000  0  9G17G08G07G24G26G13G28G19G11
   2108874.16847   1661806.44544  24111132.1484                   24111132.6294
 -15454231.39548 -12031644.74646  21004193.0394                   21004190.6884
  -8563974.87148  -6662308.88347  20365277.7114                   20365274.9144
  -3834790.93047  -2974477.74244  23097796.1644                   23097797.0864
   5038793.39546   3942845.14143  24130856.3364                   24130855.9104
  14591670.39547  11367087.85544  22747074.3204                   22747073.6724
 -10910025.73447  -8495087.74245  22478223.6174                   22478221.2974
   8874916.89147   6919046.09445  22719370.7034                   22719366.6214
 -14948191.02347 -11641414.25445  21860273.2504                   21860271.3244
 11  8 10 18 49  0.0000000  0  9G17G08G07G24G26G13G28G19G11
   1972392.83247   1555457.51644  24085160.8524                   24085161.9264
 -15549091.28548 -12105561.53546  20986141.8204                   20986139.0784
  -8608269.56648  -6696824.25447  20356848.8204                   20356845.9804
  -3936997.06247  -3054118.78944  23078346.7274                   23078348.2344
   4918213.54346   3848886.89543  24107910.6094                   24107909.4494
  14662340.21947  11422155.10244  22760522.4304                   22760521.8364
 -10976597.09447  -8546961.50845  22465555.5394                   22465553.0354
   8930117.76647   6962059.72745  22729874.8134                   22729871.3324
 -15021331.70347 -11698406.96545  21846355.0474                   21846352.6954
 11  8 10 18 49 30.0000000  0  9G17G08G07G24G26G13G28G19G11
   1836028.77046   1449199.99644  24059211.0634                   24059212.3594
 -15643762.10948 -12179330.99246  20968126.4694                   20968123.5944
  -8652207.52048  -6731061.62947  20348487.8984                   20348485.1844
  -4039023.69547  -3133619.96544  23058932.4144                   23058932.7384
   4797994.00846   3755209.41043  24085033.0864                   24085032.8984
  14733149.79347  11477331.24644  22773996.6254                   22773996.1764
 -11043103.10247  -8598784.34045  22452899.9384                   22452897.3914
   8985564.06647   7005264.59045  22740426.1254                   22740422.2504
 -15094036.38747 -11755059.94145  21832519.6954                   21832517.4184
 11  8 10 18 50  0.0000000  0  9G17G08G07G24G26G13G28G19G11
   1699778.38746   1343031.07444  24033283.0084                   24033284.9184
 -15738247.07848 -12252955.63746  20950146.1254                   20950143.7664
  -8695792.85548  -6765024.24247  20340193.5164                   20340190.8874
  -4140873.54347  -3212983.40644  23039550.6884                   23039551.1884
   4678132.14546   3661810.60943  24062223.4694                   24062223.1214
  14804090.18847  11532609.30944  22787496.5554                   22787496.4144
 -11109550.43747  -8650561.48445  22440255.8674                   22440252.9844
   9041246.88747   7048653.76245  22751022.1564                   22751018.6134
 -15166308.64847 -11811375.97345  21818767.0704                   21818764.3714
 11  8 10 18 50 30.0000000  0  9G17G08G07G24G26G13G28G19G11
   1563639.60546   1236949.09444  24007376.5634                   24007378.7504
 -15832547.84848 -12326436.73846  20932201.7274                   20932199.2384
  -8739028.19548  -6798714.12547  20331966.1564                   20331963.3134
  -4242547.41046  -3292209.69144  23020202.0864                   23020203.1024
   4558626.27346   3568689.21943  24039481.7584                   24039481.5984
  14875154.31647  11587983.80544  22801020.0474                   22801019.7234
 -11175943.94547  -8702296.67245  22427621.3284                   22427619.1564
   9097159.73047   7092222.17645  22761661.9694                   22761658.0314
 -15238150.15247 -11867356.34445  21805095.8594                   21805093.6094
 11  8 10 18 51  0.0000000  0  9G17G08G07G24G26G13G28G19G11
   1427608.46147   1130950.97744  23981490.4694                   23981492.8444
 -15926668.37148 -12399777.39546  20914290.9774                   20914288.5354
  -8781917.91448  -6832134.69147  20323804.6724                   20323802.0784
  -4344048.41447  -3371301.27344  23000887.0084                   23000888.5084
   4439473.10246   3475842.64143  24016808.9694                   24016807.7974
  14946333.11347  11643447.64144  22814564.9384                   22814563.9024
 -11242290.50847  -8753995.27045  22414996.0704                   22414993.8164
   9153293.49647   7135962.75045  22772343.4224                   22772340.3204
 -15309565.00447 -11923004.25845  21791506.0634                   21791503.9304
 11  8 10 18 51 30.0000000  0  9G17G08G07G24G26G13G28G19G11
   1291685.61346   1025037.29344  23955624.6644                   23955627.7464
 -16020607.10948 -12472976.39546  20896415.1884                   20896412.9184
  -8824461.92248  -6865285.88347  20315708.3914                   20315706.1334
  -4445374.81647  -3450256.82444  22981605.9694                   22981606.5004
   4320674.06346   3383271.99243  23994201.9844                   23994201.1484
  15017622.09847  11698997.32444  22828131.0234                   22828130.1054
 -11308592.50447  -8805659.14845  22402379.4224                   22402376.9024
   9209643.71147   7179871.96545  22783066.5164                   22783063.4494
 -15380552.56647 -11978319.22745  21777997.4384                   21777995.0084
 11  8 10 18 52  0.0000000  0  9G17G08G07G24G26G13G28G19G11
   1155868.47747    919205.96544  23929779.8364                   23929781.9654
 -16114366.30148 -12546035.49646  20878573.2424                   20878570.9264
  -8866663.12948  -6898169.94547  20307678.1724                   20307675.0634
  -4546528.14147  -3529077.49644  22962356.4304                   22962357.9384
   4202227.25446   3290975.87543  23971662.4144                   23971661.3444
  15089013.61347  11754626.91044  22841716.5474                   22841716.3714
 -11374854.97347  -8857292.23045  22389769.7504                   22389767.2974
   9266203.38747   7223944.38745  22793830.0474                   22793826.2814
 -15451115.17647 -12033303.06245  21764570.1094                   21764567.7154
 11  8 10 18 52 30.0000000  0  9G17G08G07G24G26G13G28G19G11
   1020154.55547    813455.03544  23903955.1954                   23903955.8674
 -16207947.90648 -12618956.21546  20860765.4454                   20860762.8954
  -8908524.50448  -6930789.20347  20299711.9924                   20299709.4884
  -4647509.39547  -3607764.10244  22943140.6564                   22943141.3404
   4084130.96146   3198952.85543  23949189.9064                   23949188.5554
  15160500.06347  11810330.46544  22855319.9774                   22855320.0744
 -11441083.37547  -8908898.74645  22377167.3524                   22377164.9774
   9322965.36347   7268174.45745  22804631.4064                   22804627.5274
 -15521255.20347 -12087957.60245  21751222.8444                   21751220.1644
 11  8 10 18 53  0.0000000  0  9G17G08G07G24G26G13G28G19G11
    884541.38347    707782.63744  23878148.0004                   23878149.6294
 -16301354.27748 -12691740.38346  20842990.4694                   20842988.1254
  -8950049.32448  -6963146.22347  20291810.2424                   20291807.3714
  -4748320.47747  -3686318.09844  22923956.6334                   22923958.0944
   3966383.13746   3107201.34443  23926783.7664                   23926782.4264
  15232073.73047  11866101.97744  22868940.3284                   22868939.4804
 -11507283.19547  -8960483.00845  22364569.4774                   22364566.6604
   9379922.01247   7312556.19945  22815470.3054                   22815466.2704
 -15590975.58647 -12142285.15645  21737955.1254                   21737952.8834
 11  8 10 18 53 30.0000000  0  9G17G08G07G24G26G13G28G19G11
    749026.80147    602187.02344  23852360.4304                   23852361.8244
 -16394586.75448 -12764389.05946  20825249.2344                   20825246.3834
  -8991239.60948  -6995242.56647  20283971.9614                   20283969.0824
  -4848961.87546  -3764739.86344  22904804.7974                   22904805.8834
   3848983.39547   3015721.08244  23904441.6884                   23904442.3014
  15303728.30947  11921936.54744  22882575.3754                   22882575.5824
 -11573458.85547  -9012048.43045  22351976.5944                   22351974.4614
   9437066.90647   7357084.65645  22826344.0234                   22826340.6174
 -15660277.62947 -12196286.73445  21724767.8524                   21724765.1524
 11  8 10 18 54  0.0000000  0  9G17G08G07G24G26G13G28G19G11
    613609.27747    496667.03944  23826590.7814                   23826592.7544
 -16487646.44948 -12836903.09446  20807540.2504                   20807537.4574
  -9032097.59048  -7027079.95747  20276197.3054                   20276194.0784
  -4949434.20747  -3843029.91044  22885685.9224                   22885686.9224
   3731930.04347   2924510.76643  23882167.1954                   23882167.3754
  15375456.71547  11977828.63744  22896225.2734                   22896225.1374
 -11639614.84447  -9063598.50445  22339387.8754                   22339385.5274
   9494393.64847   7401754.80545  22837253.8284                   22837249.5354
 -15729162.99647 -12249963.61745  21711659.0314                   21711656.7344
 11  8 10 18 54 30.0000000  0  9G17G08G07G24G26G13G28G19G11
    478287.10547    391221.36744  23800840.3594                   23800840.8324
 -16580534.59048 -12909283.45346  20789864.3134                   20789861.7734
  -9072625.58248  -7058660.23047  20268485.1334                   20268481.6414
  -5049738.34046  -3921188.88344  22866598.8054                   22866599.0514
   3615222.14147   2833569.60244  23859959.3674                   23859958.6844
  15447252.22747  12033773.01644  22909887.2974                   22909887.2274
 -11705756.07447  -9115137.10945  22326801.2424                   22326798.7894
   9551895.38347   7446561.32045  22848195.3914                   22848192.3914
 -15797633.35947 -12303317.13345  21698629.9144                   21698627.0664
 11  8 10 18 55  0.0000000  0  9G17G08G07G24G26G13G28G19G11
    343059.16047    285849.10244  23775107.3594                   23775107.3794
 -16673251.86348 -12981530.66846  20772220.4534                   20772217.5744
  -9112825.00448  -7089984.47347  20260835.0944                   20260832.4964
  -5149874.07047  -3999216.63744  22847543.3984                   22847543.9224
   3498859.43447   2742897.41044  23837816.0704                   23837815.8444
  15519108.71147  12089764.91444  22923561.3524                   22923561.1294
 -11771886.01647  -9166666.91045  22314216.9844                   22314214.8204
   9609566.63747   7491499.92645  22859169.7504                   22859166.6994
 -15865690.16847 -12356348.39845  21685678.8284                   21685676.1724
 11  8 10 18 55 30.0000000  0  9G17G08G07G24G26G13G28G19G11
    207923.30147    180548.63344  23749390.8914                   23749391.8954
 -16765799.48448 -13053645.69146  20754609.3054                   20754607.1454
  -9152698.19548  -7121054.50447  20253247.7424                   20253244.5354
  -5249842.03547  -4077113.66844  22828520.1174                   22828520.7934
   3382840.82846   2652493.34843  23815737.8444                   23815737.8834
  15591019.53947  12145799.14544  22937245.3754                   22937245.5004
 -11838009.05147  -9218191.34045  22301634.4454                   22301631.5004
   9667400.69147   7536565.38745  22870175.3754                   22870172.2464
 -15933335.17247 -12409058.77345  21672806.7504                   21672803.7814
 11  8 10 18 56  0.0000000  0  9G17G08G07G24G26G13G28G19G11
     72879.59046     75319.96144  23723692.6414                   23723694.2934
 -16858177.52748 -13125628.58246  20737030.7194                   20737028.2194
  -9192245.92248  -7151870.93747  20245722.3204                   20245719.0664
  -5349641.43047  -4154879.34444  22809528.9924                   22809528.8284
   3267166.63347   2562357.62943  23793725.8914                   23793725.3954
  15662979.09447  12201871.35244  22950938.8524                   22950939.2464
 -11904128.87947  -9269713.25845  22289052.1724                   22289049.5594
   9725392.59847   7581753.83645  22881211.0234                   22881207.8134
 -16000568.32447 -12461448.23045  21660012.3754                   21660009.7974
 11  8 10 18 56 30.0000000  0  9G17G08G07G24G26G13G28G19G11
    -62071.29347    -29836.35244  23698012.2274                   23698014.2074
 -16950384.77048 -13197478.36746  20719484.0474                   20719481.3634
  -9231468.32848  -7182433.86347  20238258.2814                   20238255.3524
  -5449270.67247  -4232512.44544  22790569.9384                   22790570.2704
   3151837.79746   2472491.07043  23771779.6954                   23771779.5274
  15734983.07447  12257978.18844  22964641.2344                   22964641.1804
 -11970247.32047  -9321234.10245  22276470.3054                   22276467.4024
   9783538.00847   7627061.90645  22892275.8204                   22892272.0864
 -16067389.38747 -12513516.57445  21647296.7814                   21647294.2544
 11  8 10 18 57  0.0000000  0  9G17G08G07G24G26G13G28G19G11
   -196930.32047   -134921.11344  23672349.4694                   23672351.3364
 -17042421.35948 -13269195.18446  20701970.1724                   20701967.5864
  -9270366.37948  -7212744.04747  20230856.0164                   20230853.0744
  -5548729.07047  -4310012.42644  22771643.7814                   22771644.2034
   3036854.60246   2382893.82843  23749898.4064                   23749899.1884
  15807026.05147  12314115.40244  22978350.9384                   22978350.6294
 -12036367.70747  -9372756.46945  22263887.7274                   22263885.1254
   9841831.61747   7672485.45345  22903368.9614                   22903365.1954
 -16133798.82048 -12565264.16845  21634659.1024                   21634657.0314
 11  8 10 18 57 30.0000000  0  9G17G08G07G24G26G13G28G19G11
   -331696.89147   -239933.83644  23646703.8524                   23646705.0274
 -17134286.30548 -13340778.25446  20684488.8134                   20684486.3794
  -9308940.05948  -7242801.47347  20223515.9774                   20223512.8794
  -5648015.09447  -4387378.09044  22752750.1724                   22752750.6524
   2922218.15246   2293566.78943  23728084.1254                   23728083.9924
  15879103.37947  12370279.35944  22992066.5394                   22992066.6214
 -12102492.37947  -9424282.17245  22251304.9844                   22251302.2424
   9900268.99647   7718021.03545  22914489.4924                   22914484.9064
 -16199796.52347 -12616690.93745  21622100.4534                   21622098.2074
 11  8 10 18 58  0.0000000  0  9G17G08G07G24G26G13G28G19G11
   -466368.66447   -344872.69544  23621077.2274                   23621077.9614
 -17225976.80148 -13412225.38746  20667040.5164                   20667038.1604
  -9347188.12948  -7272605.18447  20216237.4224                   20216234.6024
  -5747125.51647  -4464606.91044  22733889.7894                   22733890.4574
   2807931.20346   2204512.05543  23706336.2194                   23706335.5434
  15951212.37147  12426467.99644  23005788.4304                   23005789.2464
 -12168621.55147  -9475811.37545  22238720.7894                   22238717.8404
   9958848.04747   7763667.00845  22925636.1954                   22925632.5984
 -16265380.34047 -12667795.19145  21609620.3134                   21609618.1294
 11  8 10 18 58 30.0000000  0  9G17G08G07G24G26G13G28G19G11
   -600946.24247   -449738.17245  23595467.7584                   23595468.6024
 -17317492.53148 -13483536.34046  20649625.4694                   20649623.4414
  -9385111.17248  -7302155.61747  20209021.0554                   20209018.3594
  -5846059.67647  -4541698.39144  22715063.3054                   22715063.7304
   2693994.13346   2115729.98443  23684654.6254                   23684652.8794
  16023347.50447  12482677.00844  23019515.8984                   23019515.9144
 -12234758.77347  -9527346.84845  22226135.2344                   22226132.4694
  10017563.33647   7809419.12945  22936809.3284                   22936805.8524
 -16330550.54747 -12718577.16045  21597219.0164                   21597216.3324
 11  8 10 18 59  0.0000000  0  9G17G08G07G24G26G13G28G19G11
   -735426.20347   -554527.59045  23569877.2194                   23569877.5164
 -17408829.60948 -13554708.07046  20632244.6094                   20632242.3484
  -9422706.02048  -7331450.31647  20201866.9224                   20201863.9414
  -5944812.75847  -4618648.78144  22696271.3984                   22696271.5474
   2580411.06647   2027223.78943  23663041.6174                   23663039.6414
  16095507.50047  12538905.40244  23033247.3914                   23033247.5784
 -12300902.80947  -9578887.63345  22213548.5784                   22213545.5824
  10076414.18847   7855276.88745  22948008.9384                   22948004.7304
 -16395303.78147 -12769034.21545  21584896.7894                   21584894.3484
 11  8 10 18 59 30.0000000  0  9G17G08G07G24G26G13G28G19G11
   -869806.39547   -659239.25445  23544304.9614                   23544305.9454
 -17499985.16048 -13625738.36346  20614898.2344                   20614895.8164
  -9459971.32048  -7360488.22747  20194775.7584                   20194772.7704
  -6043381.68447  -4695455.64844  22677513.5704                   22677514.1564
   2467184.91047   1938995.64843  23641494.3284                   23641493.1134
  16167689.84047  12595151.16844  23046983.7034                   23046984.0084
 -12367054.53547  -9630434.39545  22200960.3674                   22200957.2304
  10135397.40647   7901237.78945  22959232.8444                   22959228.9224
 -16459638.23047 -12819164.93445  21572654.5394                   21572651.8794
 11  8 10 19  0  0.0000000  0  9G17G08G07G24G26G13G28G19G11
  -1004082.94147   -763870.19144  23518753.0004                   23518753.6094
 -17590955.06648 -13696624.00046  20597587.4924                   20597585.4614
  -9496903.94948  -7389266.91447  20187747.5634                   20187744.3364
  -6141761.60547  -4772115.24644  22658792.3444                   22658793.2234
   2354319.71147   1851048.75443  23620016.4384                   23620015.2814
  16239892.77047  12651413.00844  23060723.0234                   23060724.0274
 -12433213.09847  -9681986.49245  22188370.6094                   22188367.5004
  10194512.54347   7947301.46545  22970481.8364                   22970478.1954
 -16523550.03548 -12868966.31645  21560492.0944                   21560489.3634
 11  8 10 19  0 30.0000000  0  9G17G08G07G24G26G13G28G19G11
  -1138252.44147   -868417.69944  23493220.8914                   23493221.1954
 -17681735.46548 -13767361.96146  20580312.5474                   20580310.1174
  -9533500.96148  -7417784.07847  20180783.3204                   20180780.5204
  -6239947.55947  -4848623.69144  22640108.8054                   22640109.1644
   2241819.76646   1763386.48043  23598608.3674                   23598607.3954
  16312115.07847  12707689.91844  23074467.3364                   23074467.8324
 -12499377.56247  -9733543.19945  22175779.6254                   22175777.3594
  10253758.32447   7993466.97345  22981756.2194                   22981752.4224
 -16587036.14148 -12918435.99245  21548411.0864                   21548408.2854
 11  8 10 19  1  0.0000000  0  9G17G08G07G24G26G13G28G19G11
  -1272311.39147   -972879.07844  23467710.0784                   23467710.7504
 -17772322.00848 -13837948.87146  20563074.2664                   20563072.2584
  -9569759.23048  -7446037.28147  20173883.6414                   20173880.5164
  -6337935.33247  -4924977.73044  22621461.9224                   22621462.7234
   2129689.21547   1676012.10243  23577271.3134                   23577270.4694
  16384355.49647  12763980.93444  23088214.3674                   23088215.0044
 -12565546.64547  -9785103.50445  22163188.4304                   22163185.8874
  10313133.23047   8039733.07845  22993054.7814                   22993051.0314
 -16650092.87547 -12967571.09845  21536411.9614                   21536409.2854
 11  8 10 19  1 30.0000000  0  9G17G08G07G24G26G13G28G19G11
  -1406256.14847  -1077251.42644  23442220.9924                   23442221.4224
 -17862710.86348 -13908381.73446  20545873.9924                   20545872.1214
  -9605676.00448  -7474024.39147  20167049.1644                   20167046.1094
  -6435720.46147  -5001173.87544  22602854.2344                   22602854.6134
   2017931.87547   1588928.52043  23556004.0394                   23556003.4384
  16456612.36347  12820284.80544  23101964.2894                   23101964.9804
 -12631719.76647  -9836666.95345  22150596.0084                   22150593.0044
  10372636.27047   8086099.03145  23004377.9924                   23004374.1884
 -16712717.28148 -13016369.31645  21524494.7034                   21524492.1764
 11  8 10 19  2  0.0000000  0  9G17G08G07G24G26G13G28G19G11
  -1540084.37147  -1181533.01644  23416754.3204                   23416754.6764
 -17952898.29748 -13978657.65646  20528711.8054                   20528709.5474
  -9641248.64148  -7501743.34447  20160279.6884                   20160276.7854
  -6533298.78547  -5077208.84844  22584285.2114                   22584285.3794
   1906551.25047   1502138.46144  23534809.4614                   23534808.8054
  16528883.60947  12876599.85944  23115717.1484                   23115717.9574
 -12697896.98447  -9888233.60545  22138002.9064                   22138000.1684
  10432265.86747   8132563.60545  23015724.4224                   23015721.1254
 -16774906.51247 -13064828.44545  21512660.5944                   21512657.9804
 11  8 10 19  2 30.0000000  0  9G17G08G07G24G26G13G28G19G11
  -1673794.05147  -1285722.21144  23391310.0394                   23391310.4924
 -18042882.09448 -14048774.89146  20511588.6024                   20511585.9384
  -9676476.63348  -7529193.74647  20153576.0634                   20153573.3834
  -6630667.44547  -5153080.45744  22565756.8984                   22565757.0274
   1795549.57047   1415643.67244  23513686.8594                   23513685.7344
  16601166.27747  12932923.80944  23129472.4454                   23129472.4924
 -12764079.10547  -9939804.07045  22125409.1174                   22125405.9964
  10492019.14847   8179124.56645  23027095.7034                   23027091.6334
 -16836659.34447 -13112947.52345  21500909.0474                   21500906.6764
 11  8 10 19  3  0.0000000  0  9G17G08G07G24G26G13G28G19G11
   -231957.71947   -162213.18444  23665682.8754                   23665683.2544
 -16557235.47748 -12891128.16846  20794297.8444                   20794295.3984
  -8135935.96948  -6328772.46547  20446731.2974                   20446728.1454
  -5152398.77047  -4001182.73044  22847062.0394                   22847061.9774
   3260354.47747   2557050.11344  23792429.6884                   23792428.6724
  18248876.00047  14216853.26244  23443021.3524                   23443021.7194
 -11254843.51647  -8763776.32045  22412606.4774                   22412603.7424
  12127312.33247   9453378.94545  23338281.7274                   23338277.9844
 -15322550.76247 -11933122.63745  21789034.5234                   21789032.0664
 11  8 10 19  3 30.0000000  0  9G17G08G07G24G26G13G28G19G11
   -365422.59447   -266211.62544  23640285.1484                   23640285.0864
 -16646802.26248 -12960920.46146  20777253.8054                   20777251.5554
  -8170468.36748  -6355680.84047  20440160.1564                   20440157.1644
  -5249336.63347  -4076718.66844  22828615.3054                   22828615.0354
   3150120.60247   2471153.64844  23771452.4454                   23771452.3324
  18321174.53147  14273189.57043  23456778.7814                   23456779.3054
 -11321035.43047  -8815354.41845  22400011.1024                   22400008.6524
  12187306.58247   9500127.68845  23349698.1954                   23349694.6914
 -15383423.34047 -11980555.78545  21777450.6884                   21777447.9494
 11  8 10 19  4  0.0000000  0  9G17G08G07G24G26G13G28G19G11
   -498758.96547   -370109.93445  23614911.6254                   23614912.2624
 -16736153.44948 -13030544.75446  20760250.8674                   20760248.6684
  -8204647.47348  -6382313.93447  20433656.0394                   20433653.0704
  -5346051.62547  -4152080.93744  22810211.0164                   22810211.0594
   3040277.31347   2385561.53944  23750550.3674                   23750549.1484
  18393479.58247  14329530.96543  23470538.2114                   23470538.4694
 -11387229.77747  -8866934.41445  22387414.1094                   22387411.6054
  12247420.67647   9546969.78945  23361137.8204                   23361134.1374
 -15443849.79747 -12027641.31645  21765952.3134                   21765949.9104
 11  8 10 19  4 30.0000000  0  9G17G08G07G24G26G13G28G19G11
   -631963.19947   -473905.26645  23589564.1024                   23589564.1604
 -16825285.07848 -13099997.96546  20743289.8984                   20743287.3094
  -8238470.74648  -6408669.74247  20427219.7034                   20427216.8984
  -5442538.89147  -4227265.76644  22791850.1954                   22791849.6764
   2930828.72746   2300276.95344  23729721.9924                   23729721.7274
  18465790.05147  14385876.59443  23484298.3054                   23484299.0124
 -11453426.07847  -8918515.93045  22374818.0864                   22374815.5164
  12307653.22347   9593904.19144  23372599.4384                   23372595.8954
 -15503827.33248 -12074377.03145  21754538.8984                   21754536.0554
 11  8 10 19  5  0.0000000  0  9G17G08G07G24G26G13G28G19G11
   -765032.61747   -577595.55145  23564241.4304                   23564242.1994
 -16914193.12948 -13169276.95746  20726371.0474                   20726368.5664
  -8271935.13348  -6434745.90247  20420851.5634                   20420848.7384
  -5538794.13747  -4302269.80944  22773532.6024                   22773532.9454
   2821778.85547   2215303.09844  23708971.1094                   23708970.2894
  18538104.21947  14442225.08243  23498059.6804                   23498060.3094
 -11519623.41047  -8970098.23845  22362220.9144                   22362217.9774
  12368003.37947   9640930.23844  23384083.6804                   23384079.8874
 -15563352.75047 -12120760.44545  21743211.5944                   21743208.8674
 11  8 10 19  5 30.0000000  0  9G17G08G07G24G26G13G28G19G11
   -897961.05147   -681176.00045  23538946.3204                   23538946.1374
 -17002871.38748 -13238376.89846  20709496.1254                   20709493.7854
  -8305035.80948  -6460538.65647  20414552.8054                   20414549.8794
  -5634810.55547  -4377087.73444  22755261.9384                   22755261.6334
   2713133.81647   2130644.67244  23688296.6564                   23688295.4414
  18610422.86347  14498577.05943  23511821.7814                   23511822.2704
 -11585818.73448  -9021678.99245  22349624.2424                   22349621.1764
  12428471.73447   9688048.39144  23395590.7194                   23395586.8914
 -15622421.01648 -12166787.64145  21731970.6094                   21731968.5634
 11  8 10 19  6  0.0000000  0  9G17G08G07G24G26G13G28G19G11
  -1030744.35947   -784643.37144  23513678.0944                   23513677.8444
 -17091314.42248 -13307293.54746  20692666.2274                   20692663.2934
  -8337768.87548  -6486044.95747  20408323.8914                   20408321.1254
  -5730582.68447  -4451715.32044  22737036.8914                   22737036.9964
   2604898.46147   2046305.48843  23667699.6884                   23667699.1684
  18682745.78947  14554932.35244  23525584.8914                   23525585.7194
 -11652010.20348  -9073256.75045  22337028.9454                   22337025.7544
  12489058.62546   9735258.89544  23407120.1094                   23407116.2894
 -15681027.82048 -12212455.25045  21720818.5164                   21720815.9924
 11  8 10 19  6 30.0000000  0  9G17G08G07G24G26G13G28G19G11
  -1163378.34047   -887994.35944  23488438.5554                   23488437.8834
 -17179517.48048 -13376023.20346  20675881.4774                   20675879.1454
  -8370131.14148  -6511262.32447  20402165.6414                   20402162.4574
  -5826105.25847  -4526148.43044  22718859.7424                   22718859.9454
   2497077.44547   1962289.17243  23647182.1094                   23647181.5164
  18755072.60247  14611290.69144  23539348.5474                   23539349.8834
 -11718196.26248  -9124830.27346  22324433.6094                   22324430.8914
  12549763.17646   9782561.09444  23418672.1334                   23418667.8014
 -15739169.31648 -12257760.27045  21709754.3134                   21709752.1414
 11  8 10 19  7  0.0000000  0  9G17G08G07G24G26G13G28G19G11
  -1295858.85547   -991225.77744  23463227.5314                   23463228.3364
 -17267475.96548 -13444562.27746  20659143.4614                   20659141.4574
  -8402118.98848  -6536187.94147  20396078.2584                   20396075.6174
  -5921372.98047  -4600382.97344  22700731.1724                   22700731.2154
   2389675.38747   1878599.30943  23626744.0554                   23626742.7074
  18827402.22747  14667651.19944  23553112.7034                   23553113.0474
 -11784375.44947  -9176398.46145  22311840.5234                   22311837.5514
  12610585.38746   9829954.98044  23430245.8834                   23430242.1414
 -15796841.93747 -12302699.95345  21698779.9774                   21698777.0164
 11  8 10 19  7 30.0000000  0  9G17G08G07G24G26G13G28G19G11
  -1428182.87547  -1094335.23844  23438046.5004                   23438047.5314
 -17355186.31648 -13512908.00046  20642452.8444                   20642450.4144
  -8433730.33248  -6560820.17247  20390062.8754                   20390060.1804
  -6016382.05947  -4674415.97345  22682650.8594                   22682651.4454
   2282695.53147   1795238.44943  23606387.2344                   23606384.5744
  18899732.64147  14724012.31644  23566876.8594                   23566877.9654
 -11850547.40247  -9227961.00445  22299248.2274                   22299245.0314
  12671523.59846   9877439.23444  23441842.0394                   23441838.3014
 -15854043.05147 -12347272.20745  21687894.2034                   21687891.9964
 11  8 10 19  8  0.0000000  0  9G17G08G07G24G26G13G28G19G11
  -1560349.17647  -1197321.85244  23412896.6334                   23412896.3404
 -17442646.64148 -13581058.90246  20625809.5314                   20625807.5904
  -8464964.20348  -6585158.27347  20384119.1484                   20384116.5984
  -6111129.90647  -4748245.40244  22664620.8054                   22664621.3444
   2176139.92647   1712208.16444  23586110.1564                   23586108.2624
  18972060.62547  14780371.55944  23580640.7424                   23580641.5904
 -11916713.15247  -9279518.71945  22286656.9144                   22286654.2934
  12732574.37946   9925011.21944  23453459.6174                   23453455.9414
 -15910771.73447 -12391476.33645  21677099.6174                   21677097.2194
 11  8 10 19  8 30.0000000  0  9G17G08G07G24G26G13G28G19G11
  -1692356.39847  -1300184.47744  23387776.7894                   23387776.0124
 -17529854.37548 -13649012.97746  20609214.6724                   20609211.9884
  -8495819.85548  -6609201.63747  20378247.7584                   20378244.8834
  -6205613.56647  -4821868.99244  22646641.0084                   22646641.6804
   2070010.66047   1629510.09043  23565914.0234                   23565912.4694
  19044383.75847  14836726.99644  23594402.7584                   23594404.0434
 -11982873.64147  -9331072.32045  22274067.0864                   22274064.6454
  12793735.28546   9972669.00844  23465098.4614                   23465094.9654
 -15967026.57047 -12435311.24245  21666394.7504                   21666392.2274
 11  8 10 19  9  0.0000000  0  9G17G08G07G24G26G13G28G19G11
  -1824202.74647  -1402921.76244  23362686.7194                   23362686.8324
 -17616807.15648 -13716768.38346  20592667.9144                   20592665.1604
  -8526296.19148  -6632949.44947  20372448.3674                   20372445.2114
  -6299830.31247  -4895284.59445  22628713.0474                   22628712.7274
   1964309.90247   1547145.90644  23545799.8054                   23545798.4344
  19116697.86747  14893075.41043  23608164.5864                   23608165.3244
 -12049029.27748  -9382622.14545  22261478.2194                   22261475.3714
  12855003.19546  10020410.18044  23476757.2974                   23476753.3954
 -16022806.51247 -12478776.09845  21655780.1954                   21655777.3164
 11  8 10 19  9 30.0000000  0  9G17G08G07G24G26G13G28G19G11
  -1955890.88347  -1505535.77044  23337627.4384                   23337627.1684
 -17703507.23048 -13784326.87946  20576169.7504                   20576166.3324
  -8556396.44548  -6656404.20347  20366720.4384                   20366717.3634
  -6393781.93747  -4968493.60944  22610834.3984                   22610834.6294
   1859034.99247   1465113.51644  23525767.2114                   23525764.6294
  19188995.79747  14949411.21543  23621921.5634                   23621922.9494
 -12115185.80948  -9434172.67245  22248888.8204                   22248886.0204
  12916370.91046  10068229.14144  23488434.9774                   23488431.4104
 -16078114.69947 -12521873.35545  21645255.2584                   21645252.9924
 11  8 10 19 10  0.0000000  0  9G17G08G07G24G26G13G28G19G11
  -2087418.24247  -1608024.50044  23312598.6484                   23312598.3554
 -17789950.92248 -13851685.58646  20559719.9774                   20559717.4144
  -8586118.91448  -6679564.58247  20361064.4614                   20361061.8364
  -6487464.78147  -5041493.18744  22593007.0084                   22593007.0594
   1754189.06347   1383415.44543  23505815.4224                   23505814.0394
  19261275.76247  15005732.99643  23635676.5944                   23635678.2344
 -12181343.23048  -9485723.89145  22236299.4384                   22236297.0784
  12977836.77346  10116124.57044  23500131.5004                   23500127.9184
 -16132949.00447 -12564601.35246  21634820.5394                   21634817.7234
 11  8 10 19 10 30.0000000  0  9G17G08G07G24G26G13G28G19G11
  -2218780.96147  -1710384.95745  23287601.2894                   23287600.1174
 -17876133.92248 -13918841.16846  20543319.6254                   20543317.3054
  -8615460.57048  -6702428.22347  20355480.7114                   20355477.8984
  -6580873.89547  -5114279.46145  22575231.6724                   22575232.0824
   1649776.68847   1302055.17243  23485946.4924                   23485945.4264
  19333536.48447  15062039.79343  23649427.6724                   23649428.9844
 -12247499.74648  -9537274.40645  22223710.2734                   22223707.6724
  13039399.68446  10164095.62544  23511846.4384                   23511843.4734
 -16187306.03547 -12606957.44545  21624476.7584                   21624474.0904
 11  8 10 19 11  0.0000000  0  9G17G08G07G24G26G13G28G19G11
  -2349975.56247  -1812614.38345  23262635.1254                   23262634.6454
 -17962051.83248 -13985790.18446  20526970.2664                   20526967.8874
  -8644418.28948  -6724992.69547  20349970.1174                   20349967.4774
  -6674004.35247  -5186848.59045  22557509.6174                   22557509.2664
   1545801.82847   1221035.85944  23466160.4924                   23466159.3714
  19405777.28547  15118331.05543  23663174.8594                   23663176.1254
 -12313654.05548  -9588823.21545  22211121.7034                   22211118.9384
  13101059.64846  10212142.29744  23523579.8754                   23523576.4024
 -16241182.68048 -12648939.21545  21614224.0864                   21614222.0824
 11  8 10 19 11 30.0000000  0  9G17G08G07G24G26G13G28G19G11
  -2480993.63747  -1914706.26645  23237703.7734                   23237702.5314
 -18047695.23848 -14052525.30546  20510672.7734                   20510670.5594
  -8672984.64548  -6747252.20347  20344534.6484                   20344531.4144
  -6766846.80547  -5259193.29345  22539841.7974                   22539842.4184
   1442273.14547   1140364.16844  23446459.0004                   23446459.2504
  19478001.81347  15174609.64143  23676919.3674                   23676920.0084
 -12379800.31648  -9640365.73046  22198534.8054                   22198531.9924
  13162820.73846  10260267.77344  23535332.9924                   23535329.4884
 -16294571.00048 -12690540.47345  21604064.8444                   21604062.1604
 11  8 10 19 12  0.0000000  0  9G17G08G07G24G26G13G28G19G11
  -2611825.84447  -2016653.30945  23212806.6484                   23212806.2074
 -18133054.48048 -14119039.00046  20494429.2974                   20494427.0314
  -8701150.74648  -6769199.83647  20339174.6484                   20339171.5984
  -6859390.96547  -5331305.56645  22522231.2734                   22522231.4534
   1339200.45747   1060047.84844  23426845.1804                   23426844.6174
  19550214.34447  15230878.89543  23690660.6954                   23690663.0124
 -12445931.90648  -9691896.82045  22185950.2504                   22185947.2154
  13224687.19946  10308475.36344  23547105.8984                   23547102.3164
 -16347462.41048 -12731754.53145  21594000.0554                   21593997.2464
 11  8 10 19 12 30.0000000  0  9G17G08G07G24G26G13G28G19G11
  -2742464.31647  -2118449.38345  23187946.6804                   23187946.8324
 -18218120.80948 -14185324.44946  20478241.8134                   20478239.5124
  -8728909.32048  -6790829.91047  20333892.2734                   20333889.7734
  -6951627.60547  -5403178.22345  22504679.5084                   22504679.9224
   1236591.96546    980093.22344  23407318.3284                   23407318.9304
  19622418.43847  15287141.58243  23704400.9694                   23704402.5084
 -12512043.01248  -9743411.94545  22173369.7814                   22173367.1524
  13286663.05947  10356768.19944  23558899.5474                   23558895.7464
 -16399849.36748 -12772575.50445  21584030.9224                   21584028.5514
 11  8 10 19 13  0.0000000  0  9G17G08G07G24G26G13G28G19G11
  -2872901.85247  -2220088.88344  23163125.0004                   23163125.6214
 -18302885.90248 -14251375.16846  20462111.4924                   20462109.3094
  -8756254.23448  -6812137.64147  20328688.6484                   20328686.0354
  -7043548.31647  -5474804.69144  22487187.0084                   22487187.2934
   1134455.73846    900506.60943  23387882.7424                   23387883.1484
  19694616.50447  15343399.53143  23718140.3134                   23718141.8634
 -12578128.87948  -9794907.41445  22160794.1564                   22160790.8404
  13348750.96146  10405148.34844  23570714.5784                   23570711.1884
 -16451724.97348 -12812998.03145  21574159.5084                   21574156.4734
 11  8 10 19 13 30.0000000  0  9G17G08G07G24G26G13G28G19G11
  -3003134.15247  -2321568.46545  23138343.0864                   23138343.3014
 -18387345.00848 -14317187.45346  20446039.5634                   20446036.9144
  -8783181.82448  -6833120.19946  20323564.6564                   20323561.9454
  -7135148.09047  -5546181.10244  22469756.2424                   22469756.8594
   1032795.71946    821291.05943  23368537.4844                   23368536.7934
  19766808.27747  15399652.58643  23731878.1884                   23731879.8094
 -12644187.63348  -9846381.74645  22148223.4384                   22148220.1644
  13410950.78146  10453615.69144  23582550.5864                   23582547.3014
 -16503085.62548 -12853019.28945  21564385.9774                   21564383.3164
 11  8 10 19 14  0.0000000  0  9G17G08G07G24G26G13G28G19G11
  -3133161.31647  -2422888.19145  23113599.4304                   23113599.4144
 -18471497.35548 -14382760.70346  20430026.1564                   20430023.3594
  -8809692.91848  -6853778.20747  20318519.9774                   20318517.1844
  -7226425.73447  -5617306.46544  22452386.9614                   22452387.0704
    931612.53946    742447.11744  23349283.1954                   23349282.5354
  19838989.14147  15455897.11343  23745613.8674                   23745615.7624
 -12710221.71948  -9897836.85945  22135657.7894                   22135654.3634
  13473258.25046  10502166.91844  23594407.4224                   23594403.8164
 -16553932.14848 -12892639.92645  21554709.9144                   21554707.3054
 11  8 10 19 14 30.0000000  0  9G17G08G07G24G26G13G28G19G11
  -3262983.48447  -2524048.19145  23088894.8754                   23088894.3284
 -18555342.40248 -14448094.50446  20414070.6334                   20414068.3954
  -8835788.49248  -6874112.43747  20313553.9694                   20313551.0124
  -7317380.29747  -5688180.11344  22435078.8364                   22435078.6724
    830906.42646    663974.86344  23330119.9614                   23330119.1254
  19911154.52747  15512129.58643  23759346.7584                   23759348.1374
 -12776233.99248  -9949274.98445  22123095.5704                   22123092.8524
  13535668.74647  10550798.42244  23606284.0554                   23606280.5594
 -16604265.47748 -12931860.68745  21545131.8674                   21545129.0554
 11  8 10 19 15  0.0000000  0  9G17G08G07G24G26G13G28G19G11
  -3392601.90647  -2625049.45345  23064229.4774                   23064228.8984
 -18638880.34848 -14513189.00446  20398173.8984                   20398171.4144
  -8861470.04748  -6894124.05147  20308666.8754                   20308663.9384
  -7408011.62547  -5758801.89144  22417832.5164                   22417831.8754
    730676.78147    585873.88344  23311047.1804                   23311046.0594
  19983298.62946  15568345.46544  23773075.7274                   23773077.3244
 -12842227.10548 -10000698.17646  22110537.1884                   22110534.6604
  13598177.11747  10599506.18844  23618179.2894                   23618175.5664
 -16654086.86348 -12970682.52745  21535651.5554                   21535648.2464
 11  8 10 19 15 30.0000000  0  9G17G08G07G24G26G13G28G19G11
  -3522016.80147  -2725892.11345  23039602.8594                   23039601.9144
 -18722110.53548 -14578043.69146  20382335.5944                   20382333.4224
  -8886738.91448  -6913814.09047  20303858.5474                   20303855.7974
  -7498318.90647  -5829171.14844  22400647.3914                   22400647.1174
    630923.53147    508144.10244  23292063.9384                   23292062.8984
  20055416.59846  15624540.96143  23786799.3754                   23786801.1414
 -12908203.90248 -10052108.65246  22097982.2894                   22097979.5554
  13660778.87547  10648286.74244  23630091.6024                   23630088.3874
 -16703397.24648 -13009106.17645  21526267.5784                   21526264.7234
 11  8 10 19 16  0.0000000  0  9G17G08G07G24G26G13G28G19G11
  -3651230.94547  -2826578.35245  23015014.1174                   23015013.7504
 -18805034.59448 -14642659.84446  20366555.9614                   20366553.6214
  -8911598.34448  -6933185.08647  20299127.9454                   20299125.1724
  -7588304.25847  -5899289.55144  22383523.5474                   22383523.4414
    531644.10247    430783.56644  23273172.9384                   23273171.9344
  20127500.94946  15680710.25443  23800516.4534                   23800519.1844
 -12974169.67248 -10103510.53145  22085429.7274                   22085426.7194
  13723467.06347  10697134.63344  23642020.9924                   23642017.2584
 -16752200.31248 -13047134.52745  21516980.8914                   21516978.1524
 11  8 10 19 16 30.0000000  0  9G17G08G07G24G26G13G28G19G11
  -3780246.39847  -2927109.74645  22990463.2664                   22990462.6454
 -18887654.48448 -14707038.96946  20350833.6094                   20350831.0984
  -8936051.74248  -6952239.69547  20294474.6414                   20294471.6214
  -7677968.57847  -5969157.77345  22366460.7584                   22366460.9414
    432836.41847    353790.60544  23254370.0944                   23254369.4694
  20199545.24246  15736848.34443  23814226.9924                   23814228.6764
 -13040128.81648 -10154907.25445  22072878.0084                   22072874.9064
  13786235.03547  10746044.69544  23653965.2814                   23653961.4964
 -16800498.90648 -13084769.77045  21507789.6334                   21507787.3094
 11  8 10 19 17  0.0000000  0  9G17G08G07G24G26G13G28G19G11
  -3909066.22347  -3027488.72745  22965949.0704                   22965949.0824
 -18969972.57048 -14771182.93046  20335169.1564                   20335166.8714
  -8960102.59848  -6970980.64147  20289897.7734                   20289895.0664
  -7767313.48847  -6038777.10944  22349458.7894                   22349459.5514
    334498.26247    277163.47344  23235656.2814                   23235655.4534
  20271541.52046  15792948.99243  23827927.3524                   23827929.4694
 -13106086.33248 -10206302.71545  22060326.5554                   22060323.8134
  13849075.57447  10795011.29744  23665923.7114                   23665919.9574
 -16848296.41448 -13122014.56645  21498694.0944                   21498691.5124
 11  8 10 19 17 30.0000000  0  9G17G08G07G24G26G13G28G19G11
  -4037694.18747  -3127718.20345  22941472.3444                   22941472.1914
 -19051991.80148 -14835094.01646  20319561.4694                   20319558.8244
  -8983755.70748  -6989411.64847  20285396.9454                   20285394.2624
  -7856341.87147  -6108149.82445  22332517.2504                   22332517.1374
    236625.73847    200899.19944  23217031.3594                   23217030.8554
  20343481.41046  15849005.73443  23841616.9224                   23841619.9844
 -13172048.55947 -10257701.83245  22047774.4844                   22047771.8754
  13911980.32047  10844027.93044  23677894.0164                   23677890.5984
 -16895597.53148 -13158872.55545  21489693.4304                   21489690.5554
 11  8 10 19 18  0.0000000  0  9G17G08G07G24G26G13G28G19G11
  -4166132.46947  -3227799.87945  22917031.0084                   22917030.5944
 -19133713.08648 -14898772.93446  20304010.2114                   20304007.9734
  -9007013.90248  -7007534.93446  20280971.1024                   20280968.3164
  -7945054.87947  -6177276.78945  22315636.0394                   22315635.9964
    139217.34047    124996.60244  23198495.6024                   23198495.1844
  20415359.04347  15905013.92643  23855295.2114                   23855298.1294
 -13238019.78548 -10309107.95346  22035220.2584                   22035217.9884
  13974943.57047  10893090.14144  23689875.3524                   23689871.9224
 -16942405.07448 -13195345.95345  21480785.5944                   21480782.9104
 11  8 10 19 18 30.0000000  0  9G17G08G07G24G26G13G28G19G11
  -4294383.10247  -3327735.33245  22892625.3284                   22892625.4884
 -19215137.55948 -14962220.57046  20288515.8284                   20288513.0234
  -9029879.90248  -7025352.62147  20276619.5554                   20276616.6524
  -8033453.07447  -6246158.44945  22298813.8054                   22298814.1804
     42271.25046     49454.22744  23180047.2584                   23180046.4804
  20487167.81647  15960968.46943  23868960.5084                   23868962.9964
 -13304004.31648 -10360524.44545  22022664.1334                   22022661.1484
  14037958.91047  10942192.94544  23701866.5944                   23701863.0744
 -16988721.71148 -13231436.82845  21471972.0314                   21471969.1214
 11  8 10 19 19  0.0000000  0  9G17G08G07G24G26G13G28G19G11
  -4422446.66447  -3427525.00445  22868255.7974                   22868255.2114
 -19296264.86348 -15025436.64546  20273077.6334                   20273075.1024
  -9052354.89848  -7042865.62547  20272342.7894                   20272340.0124
  -8121536.12147  -6314794.53145  22282053.6174                   22282052.2814
    -54212.83646    -25728.14543  23161686.6024                   23161686.1954
  20558902.31647  16016865.12943  23882611.3914                   23882614.2544
 -13370004.68047 -10411953.28146  22010104.7504                   22010101.7934
  14101021.72747  10991332.75444  23713867.5944                   23713864.2464
 -17034548.67648 -13267146.13346  21463251.2344                   21463248.9264
 11  8 10 19 19 30.0000000  0  9G17G08G07G24G26G13G28G19G11
  -4550322.12947  -3527168.10545  22843921.8834                   22843921.2774
 -19377093.66448 -15088420.12946  20257696.5164                   20257694.0164
  -9074439.15648  -7060074.16047  20268140.5164                   20268137.4654
  -8209302.47347  -6383183.85545  22265351.2814                   22265350.9884
   -150233.85546   -100549.68443  23143414.5004                   23143413.5084
  20630559.06347  16072701.27343  23896246.7424                   23896249.3754
 -13436022.57048 -10463395.77346  21997541.7974                   21997539.0164
  14164128.82847  11040507.07044  23725876.8284                   23725872.6214
 -17079886.09048 -13302473.98045  21454624.2504                   21454621.5314
 11  8 10 19 20  0.0000000  0  9G17G08G07G24G26G13G28G19G11
  -4678010.01247  -3626665.04745  22819624.0164                   22819622.9804
 -19457623.21548 -15151170.42246  20242372.3204                   20242369.7114
  -9096133.78948  -7076979.09446  20264012.2974                   20264009.3244
  -8296751.18047  -6451325.64845  22248710.4534                   22248709.7894
   -245792.04747   -175010.57443  23125230.2974                   23125229.5274
  20702133.33646  16128473.05943  23909867.4064                   23909869.9184
 -13502060.05148 -10514853.52746  21984975.2894                   21984972.6604
  14227275.62547  11089712.31644  23737892.8134                   23737888.9304
 -17124734.94948 -13337421.13346  21446089.7814                   21446087.0744
 11  8 10 19 20 30.0000000  0  9G17G08G07G24G26G13G28G19G11
  -4805510.69147  -3726016.12545  22795361.0474                   22795361.0124
 -19537853.10248 -15213687.21946  20227105.1024                   20227102.6764
  -9117439.72348  -7093581.14547  20259957.4454                   20259955.0514
  -8383881.34447  -6519219.23445  22232130.1024                   22232129.4184
   -340887.27346   -249110.68744  23107134.4774                   23107134.1564
  20773620.53546  16184177.05143  23923470.7894                   23923473.8954
 -13568119.59047 -10566328.47345  21972404.5474                   21972402.1054
  14290457.71347  11138945.06444  23749915.8754                   23749912.7034
 -17169096.15648 -13371988.29345  21437647.9224                   21437645.2234
 11  8 10 19 21  0.0000000  0  9G17G08G07G24G26G13G28G19G11
  -4932821.76647  -3825219.44945  22771134.5944                   22771134.1094
 -19617780.08648 -15275967.98846  20211895.1414                   20211892.9964
  -9138355.81648  -7109879.42247  20255977.6334                   20255974.4454
  -8470689.83247  -6586862.16845  22215610.8754                   22215610.6914
   -435516.94946   -322848.07444  23089127.3984                   23089126.2584
  20845018.64546  16239811.59443  23937058.4844                   23937061.0944
 -13634201.28947 -10617820.69145  21959829.7504                   21959826.8674
  14353673.26247  11188203.88344  23761946.4844                   23761941.9614
 -17212968.28148 -13406174.34845  21429299.1804                   21429296.4414
 11  8 10 19 21 30.0000000  0  9G17G08G07G24G26G13G28G19G11
  -5059943.21147  -3924275.01245  22746943.4384                   22746942.8914
 -19697403.35948 -15338012.09846  20196743.6884                   20196741.0984
  -9158882.69148  -7125874.41047  20252071.2274                   20252068.6604
  -8557175.55547  -6654253.59845  22199153.2974                   22199152.7274
   -529681.32047   -396222.86744  23071208.0084                   23071206.7464
  20916323.08246  16295373.17243  23950627.1884                   23950630.0474
 -13700307.46147 -10669331.96945  21947249.9304                   21947247.2274
  14416918.17647  11237485.58644  23773981.0474                   23773976.9694
 -17256352.17648 -13439979.96545  21421043.9384                   21421041.0234
 11  8 10 19 22  0.0000000  0  9G17G08G07G24G26G13G28G19G11
  -5186874.18047  -4023182.15245  22722789.2344                   22722789.0434
 -19776721.15248 -15399818.17246  20181649.7894                   20181647.0354
  -9179020.37148  -7141566.13347  20248239.1414                   20248236.6454
  -8643336.22347  -6721391.72345  22182757.0784                   22182757.2194
   -623378.64547   -469233.73844  23053378.2034                   23053377.2344
  20987530.51246  16350859.13343  23964177.8594                   23964180.5274
 -13766439.13348 -10720863.11746  21934665.2344                   21934662.5664
  14480189.60546  11286787.93843  23786021.0084                   23786016.8714
 -17299247.80948 -13473405.12545  21412881.2814                   21412877.9614
 11  8 10 19 22 30.0000000  0  9G17G08G07G24G26G13G28G19G11
  -5313610.68047  -4121937.74645  22698672.3674                   22698671.7114
 -19855728.20348 -15461382.10546  20166615.7274                   20166612.8794
  -9198765.73448  -7156952.14847  20244482.0944                   20244479.0084
  -8729167.12547  -6788272.88745  22166424.0084                   22166423.9884
   -716605.18447   -541877.76244  23035637.2424                   23035637.4494
  21058640.55946  16406269.23843  23977709.2664                   23977712.9384
 -13832594.16848 -10772412.47745  21922076.3754                   21922073.1994
  14543487.32446  11336110.78944  23798065.8754                   23798062.4264
 -17341652.09848 -13506447.41045  21404811.7274                   21404808.8164
 11  8 10 19 23  0.0000000  0  9G17G08G07G24G26G13G28G19G11
  -3864723.71147  -2992934.82445  22974386.4064                   22974385.6644
 -18358996.81248 -14295097.91446  20451434.1174                   20451431.6994
  -7642693.90248  -5944428.66846  20540592.5944                   20540589.9924
  -7239239.35947  -5627290.14545  22449948.0164                   22449947.6334
    766067.37147    613451.54344  23317780.6804                   23317779.6604
  22705071.32446  17689201.91043  24291014.8284                   24291018.8484
 -12323347.60248  -9596376.19145  22209276.6254                   22209273.5704
  16182230.21547  12613053.23444  24109908.3594                   24109904.8674
 -15808139.32848 -12311502.37145  21696629.2424                   21696626.3524
 11  8 10 19 23 30.0000000  0  9G17G08G07G24G26G13G28G19G11
  -3991054.09047  -3091373.97745  22950346.4224                   22950345.9534
 -18437363.66848 -14356162.98846  20436521.2664                   20436518.8204
  -7661639.88748  -5959191.81647  20536986.7734                   20536984.4454
  -7324390.32847  -5693641.48845  22433744.0004                   22433744.4804
    673799.97347    541554.89544  23300222.3204   23300221.9804   22775990.39546
  17744463.11343                  24304511.3134                   24304514.5594
 -12389538.55148  -9647953.53546  22196680.7424                   22196678.0314
  16245585.61746  12662421.03544  24121964.5234                   24121961.2584
 -15849545.92248 -12343767.24645  21688750.1334                   21688747.4774
 11  8 10 19 24  0.0000000  0  9G17G08G07G24G26G13G28G19G11
  -4117167.70347  -3189644.23445  22926347.8364                   22926347.4064
 -18515394.88348 -14416966.54746  20421672.2894                   20421670.1334
  -7680174.28148  -5973634.23046  20533460.3204                   20533457.3674
  -7409185.91047  -5759715.88745  22417608.0394                   22417608.1994
    582026.29747    470042.98844  23282758.8914   23282758.4144   22846821.69546
  17799655.96543                  24317989.9384                   24317993.5514
 -12455736.85948  -9699536.61746  22184084.1094                   22184080.5274
  16308977.61746  12711817.35244  24134027.3984                   24134024.3164
 -15890441.38348 -12375633.81645  21680967.5314                   21680964.7704
 11  8 10 19 24 30.0000000  0  9G17G08G07G24G26G13G28G19G11
  -4243052.64147  -3287736.30145  22902392.3364                   22902392.1764
 -18593078.12548 -14477498.94146  20406889.4924                   20406887.3204
  -7698285.63348  -5987746.98846  20530013.7504                   20530011.0664
  -7493613.42247  -5825503.49645  22401541.8054                   22401541.9964
    490758.27347    398925.08244  23265390.9924   23265390.3364   22917572.67246
  17854786.18843                  24331453.8054                   24331457.8794
 -12521932.95748  -9751117.98446  22171487.3134                   22171484.3484
  16372414.31347  12761248.48844  24146098.8834                   24146096.2624
 -15930815.00448 -12407093.77745  21673284.8134                   21673282.1994
 11  8 10 19 25  0.0000000  0  9G17G08G07G24G26G13G28G19G11
  -4368697.80547  -3385641.53945  22878482.5164                   22878482.5744
 -18670400.93048 -14537750.47746  20392175.6484                   20392172.8164
  -7715963.78148  -6001522.18747  20526649.8984                   20526647.0044
  -7577660.43447  -5890994.60245  22385548.3984                   22385548.1884
    400007.05547    328209.89544  23248122.3914   23248120.8714   22988250.12946
  17909859.16043                  24344903.8054                   24344907.8014
 -12588117.22348  -9802690.14145  22158892.8524                   22158889.6214
  16435902.75447  12810719.92644  24158181.2584                   24158177.4694
 -15970656.34448 -12438138.96946  21665703.5554                   21665700.4614
 11  8 10 19 25 30.0000000  0  9G17G08G07G24G26G13G28G19G11
  -4494091.61747  -3483350.89845  22854620.9694                   22854620.6954
 -18747351.18048 -14597711.71146  20377532.6884                   20377530.2774
  -7733197.86348  -6014951.37146  20523370.3594                   20523367.5164
  -7661314.30147  -5956179.36345  22369629.3834                   22369628.7584
    309784.62947    257906.73044  23230952.7504   23230952.0594   23058861.31346
  17964880.48443                  24358340.8444                   24358345.2664
 -12654280.17248  -9854245.67245  22146302.5704                   22146299.3754
  16499450.57847  12860237.65644  24170273.9224                   24170270.6994
 -16009954.57848 -12468760.96145  21658225.2344                   21658222.5784
 11  8 10 19 26  0.0000000  0  9G17G08G07G24G26G13G28G19G11
  -4619228.38747  -3580859.97745  22830808.4534                   22830807.5004
 -18823922.09848 -14657377.34846  20362961.2274                   20362959.1884
  -7749983.23048  -6028030.91047  20520176.1484                   20520172.9734
  -7744568.72347  -6021052.86345  22353786.5234                   22353786.4224
    220096.50047    188019.88744  23213886.1254   23213884.4924   23129407.92647
  18019851.47343                  24371766.6024                   24371770.2384
 -12720418.44548  -9905781.97346  22133716.4384                   22133713.8984
  16563059.73447  12909803.17244  24182378.0004                   24182374.9454
 -16048704.90248 -12498956.01245  21650851.1484                   21650848.3914
 11  8 10 19 26 30.0000000  0  9G17G08G07G24G26G13G28G19G11
  -4744101.75847  -3678163.80145  22807045.3134                   22807044.9844
 -18900106.36348 -14716741.70346  20348464.1094                   20348461.7274
  -7766314.53148  -6040756.62146  20517068.7194                   20517065.1054
  -7827416.09047  -6085609.19145  22338021.5474                   22338020.7074
    130949.21947    118554.49644  23196921.6884   23196920.5044   23199891.97347
  18074773.75043                  24385179.0394                   24385183.4924
 -12786527.29747  -9957295.35246  22121136.1564                   22121133.4024
  16626732.66047  12959418.35944  24194495.8054                   24194491.9614
 -16086902.35547 -12528720.24245  21643582.5784                   21643579.8444
 11  8 10 19 27  0.0000000  0  9G17G08G07G24G26G13G28G19G11
  -4868708.31247  -3775259.71545  22783333.8984                   22783332.9414
 -18975899.98848 -14775801.67646  20334041.0864                   20334038.6914
  -7782189.56648  -6053126.80946  20514047.3054                   20514044.8834
  -7909852.12547  -6149844.98445  22322334.6484                   22322333.5044
     42345.87547     49512.96544  23180061.3364   23180060.2934   23270312.54747
  18129646.55543                  24398580.0944                   24398582.9304
 -12852605.55947 -10008784.90246  22108562.2584                   22108559.3204
  16690468.69947  13009082.75044  24206624.4924                   24206620.3794
 -16124544.50047 -12558051.77045  21636419.1094                   21636416.6454
 11  8 10 19 27 30.0000000  0  9G17G08G07G24G26G13G28G19G11
  -4993046.55147  -3872146.54745  22759672.9844                   22759672.2114
 -19051300.32048 -14834555.18446  20319692.7894                   20319690.3284
  -7797607.48448  -6065140.78546  20511113.5084                   20511110.7664
  -7991874.36747  -6213758.35945  22306725.8524                   22306725.5474
    -45711.74647    -19103.36744  23163304.5394   23163302.7074   23340667.02346
  18184467.85543                  24411967.8364                   24411971.3054
 -12918653.48447 -10060250.80545  22095993.5164                   22095990.7974
  16754265.43447  13058794.41444  24218763.7274                   24218760.3524
 -16161630.75847 -12586950.13745  21629362.1334                   21629359.3634
 11  8 10 19 28  0.0000000  0  9G17G08G07G24G26G13G28G19G11
  -5117114.24647  -3968822.57045  22736063.6724                   22736062.8444
 -19126304.08648 -14892999.67246  20305420.2584                   20305417.7734
  -7812566.85248  -6076797.46546  20508267.0314                   20508264.0944
  -8073479.45748  -6277346.65645  22291196.6414                   22291196.2034
   -133221.09047    -87292.43744  23146651.8284   23146650.0314   23410953.52746
  18239236.20742                  24425343.3054                   24425346.1684
 -12984670.73448 -10111692.79345  22083430.8444                   22083427.9804
  16818121.53147  13108552.35244  24230914.7734                   24230912.1914
 -16198159.62948 -12615414.18045  21622410.9304                   21622408.1994
 11  8 10 19 28 30.0000000  0  9G17G08G07G24G26G13G28G19G11
  -5240910.70747  -4065287.24645  22712505.8594                   22712505.2854
 -19200909.85548 -14951134.03546  20291223.1564                   20291221.0594
  -7827068.27348  -6088097.30146  20505507.5944                   20505504.7344
  -8154665.77347  -6340608.67245  22275746.9844                   22275747.2584
   -220181.72347   -155053.94944  23130103.4614   23130102.3284   23481168.82046
  18293948.98442                  24438703.8754                   24438708.9304
 -13050658.55548 -10163111.86746  22070874.2734                   22070870.9844
  16882033.94947  13158354.14844  24243077.2504                   24243073.9774
 -16234131.44148 -12643444.15245  21615565.9144                   21615563.4104
 11  8 10 19 29  0.0000000  0  9G17G08G07G24G26G13G28G19G11
  -5364430.66447  -4161536.44945  22689000.5004                   22689000.1374
 -19275111.66048 -15008953.63346  20277103.1254                   20277100.6884
  -7841107.52748  -6099037.00447  20502835.7424                   20502832.9104
  -8235427.18447  -6403539.57445  22260378.3444                   22260378.4774
   -306588.53547   -222383.89144  23113661.5004   23113660.3404   23551313.71946
  18348606.93042                  24452053.0234                   24452056.6644
 -13116613.74648 -10214505.50845  22058322.8284                   22058319.9304
  16946003.96547  13208200.83244  24255250.2194                   24255247.3634
 -16269542.64848 -12671037.27745  21608827.2814                   21608824.3324
 11  8 10 19 29 30.0000000  0  9G17G08G07G24G26G13G28G19G11
  -5487676.02347  -4257571.68745  22665547.1884                   22665546.7464
 -19348910.15248 -15066458.94946  20263059.7894                   20263057.2074
  -7854686.95748  -6109618.40647  20500252.0634                   20500248.5664
  -8315764.37147  -6466139.92645  22245090.9694                   22245090.2584
   -392443.08647   -289283.52044  23097323.2274   23097322.1024   23621382.50446
  18403205.51242                  24465387.1644                   24465390.9844
 -13182539.53947 -10265876.21946  22045777.6564                   22045774.7344
  17010026.34847  13258088.33644  24267433.1884                   24267430.7974
 -16304395.51647 -12698195.34445  21602194.9454                   21602191.9774
 11  8 10 19 30  0.0000000  0  9G17G08G07G24G26G13G28G19G11
  -5610642.32447  -4353389.48845  22642147.7274                   22642147.4224
 -19422300.02748 -15123645.87146  20249093.8524                   20249091.6054
  -7867803.11348  -6119838.80146  20497755.9534                   20497752.7034
  -8395671.72747  -6528405.32445  22229885.0704                   22229884.5634
   -477740.79747   -355749.24244  23081091.7424   23081089.8324   23691375.67246
  18457745.21543                  24478707.3204                   24478712.1134
 -13248433.29747 -10317221.98046  22033238.4224                   22033235.3484
  17074101.54346  13308017.01243  24279626.6724                   24279623.1414
 -16338686.56647 -12724915.63745  21595669.3284                   21595666.3954
 11  8 10 19 30 30.0000000  0  9G17G08G07G24G26G13G28G19G11
  -5733330.46947  -4448990.54745  22618801.0634                   22618800.2194
 -19495281.00048 -15180514.16446  20235205.9534                   20235204.0474
  -7880458.13348  -6129699.88346  20495348.0394                   20495344.9574
  -8475149.71147  -6590336.16845  22214761.1484                   22214760.5824
   -562482.68747   -421781.85544  23064965.8754   23064964.7934   23761287.82846
  18512221.78143                  24492011.5944                   24492016.2344
 -13314298.05548 -10368545.14546  22020704.6954                   22020701.7234
  17138224.90246  13357983.18443  24291828.6804                   24291826.0634
 -16372418.25848 -12751200.05545  21589250.8204                   21589247.7504
 11  8 10 19 31  0.0000000  0  9G17G08G07G24G26G13G28G19G11
  -5855737.94547  -4544372.90645  22595507.6644                   22595507.0824
 -19567850.22748 -15237061.61746  20221396.5634                   20221394.5394
  -7892650.43448  -6139200.39546  20493027.9924                   20493024.6724
  -8554194.69947  -6651929.60245  22199719.3284                   22199719.0164
   -646666.62947   -487379.69944  23048946.4774   23048945.2704   23831117.66047
  18566634.22343                  24505300.1884                   24505305.0434
 -13380133.17648 -10419845.21145  22008177.0864                   22008173.4104
  17202395.07046  13407985.87143  24304040.1254                   24304036.6724
 -16405589.27348 -12777047.59445  21582938.3284                   21582935.6564
 11  8 10 19 31 30.0000000  0  9G17G08G07G24G26G13G28G19G11
  -5977865.55947  -4639537.18445  22572267.7894                   22572266.6954
 -19640007.06648 -15293287.73046  20207665.7274                   20207663.3404
  -7904382.12548  -6148341.98846  20490795.2734                   20490792.6094
  -8632806.33247  -6713185.36745  22184760.0704                   22184759.6524
   -730293.50047   -552543.47344  23033032.5234   23033031.6954   23900860.35547
  18620978.70743                  24518572.2194                   24518577.4264
 -13445941.21948 -10471124.18746  21995653.8984                   21995650.6844
  17266607.69947  13458021.65643  24316260.0004                   24316256.0824
 -16438201.21948 -12802459.48045  21576732.7734                   21576729.5084
 11  8 10 19 32  0.0000000  0  9G17G08G07G24G26G13G28G19G11
  -6099712.57847  -4734482.82445  22549080.8284                   22549079.5314
 -19711750.16848 -15349191.44546  20194013.3754                   20194011.0704
  -7915653.34848  -6157124.77746  20488650.4924                   20488647.7584
  -8710983.10947  -6774102.26645  22169883.3594                   22169882.9734
   -813362.55947   -617272.58244  23017225.3054   23017223.3164   23970512.51647
  18675252.68843                  24531826.8914                   24531831.7194
 -13511723.18748 -10522382.84446  21983135.8054                   21983132.9064
  17330859.85547  13508088.21543  24328486.7274                   24328482.3984
 -16470254.88748 -12827436.35945  21570632.6644                   21570630.0514
 11  8 10 19 32 30.0000000  0  9G17G08G07G24G26G13G28G19G11
  -6221276.63347  -4829207.97345  22525947.8594                   22525947.0634
 -19783075.94948 -15404769.96546  20180440.5864                   20180438.4694
  -7926462.37948  -6165547.42646  20486593.6954                   20486590.6994
  -8788721.46547  -6834677.55945  22155090.2664                   22155089.7544
   -895871.23447   -681565.01244  23001523.5554   23001522.1764   24040073.31346
  18729455.46943                  24545064.6484                   24545069.1414
 -13577478.12948 -10573620.44146  21970623.6884                   21970620.0474
  17395150.48847  13558184.77343  24340720.6094                   24340716.3594
 -16501748.40248 -12851976.73845  21564639.7664                   21564637.0124
 11  8 10 19 33  0.0000000  0  9G17G08G07G24G26G13G28G19G11
  -6342558.23447  -4923713.03945  22502868.9774                   22502867.8134
 -19853984.47348 -15460023.35546  20166947.3364                   20166944.9884
  -7936811.19948  -6173611.46547  20484624.3914                   20484621.4694
  -8866021.24647  -6894911.09845  22140380.1414                   22140380.2154
   -977820.54347   -745421.58244  22985929.6564   22985929.1414   24109537.09446
  18783582.62543                  24558282.3134                   24558287.6334
 -13643208.80148 -10624839.13346  21958115.5704                   21958112.3284
  17459475.21947  13608307.89543  24352960.8914                   24352957.9574
 -16532683.90648 -12876082.30545  21558752.9534                   21558749.9924
 11  8 10 19 33 30.0000000  0  9G17G08G07G24G26G13G28G19G11
  -6463558.05947  -5017998.53145  22479842.9384                   22479842.0314
 -19924474.69148 -15514950.79747  20153533.0634                   20153530.9574
  -7946701.20748  -6181318.00846  20482742.5084                   20482739.4384
  -8942881.96947  -6954802.51245  22125753.9144                   22125753.7774
  -1059210.85947   -808842.60244  22970441.3134   22970440.0204   24178899.80546
  18837631.02743                  24571482.1724                   24571487.5204
 -13708917.34048 -10676040.57846  21945611.3054                   21945607.9534
  17523829.98846  13658454.43843  24365207.7034                   24365204.3244
 -16563063.12948 -12899754.40645  21552971.9384                   21552969.6024
 11  8 10 19 34  0.0000000  0  9G17G08G07G24G26G13G28G19G11
  -6584276.61747  -5112064.85945  22456870.8284                   22456870.7304
 -19994546.68748 -15569552.34047  20140199.0864                   20140196.9224
  -7956134.08248  -6188668.32846  20480947.2664                   20480944.4414
  -9019303.40647  -7014351.62945  22111211.5084                   22111211.1954
  -1140042.88347   -871828.55144  22955059.9774   22955058.8014   24248157.37946
  18891597.48442                  24584661.8364                   24584667.9184
 -13774605.59847 -10727226.22746  21933111.2734                   21933108.0434
  17588210.50047  13708621.00843  24377458.3284                   24377455.4924
 -16592887.68048 -12922994.30945  21547296.3754                   21547294.1644
 11  8 10 19 34 30.0000000  0  9G17G08G07G24G26G13G28G19G11
  -6704715.14847  -5205912.98445  22433952.4614                   22433951.1174
 -20064200.93748 -15623828.38346  20126944.3134                   20126941.9264
  -7965112.17248  -6195664.25846  20479238.6414                   20479236.1414
  -9095286.11747  -7073558.88745  22096752.4534                   22096752.5354
  -1220318.52747   -934380.95744  22939783.6564   22939782.5234   24317303.95345
  18945477.47742                  24597820.3754                   24597826.0234
 -13840277.00048 -10778398.73845  21920614.8204                   21920611.3284
  17652611.68846  13758803.72743  24389713.9064                   24389710.9844
 -16622160.26247 -12945804.10245  21541725.7664                   21541723.2734
 11  8 10 19 35  0.0000000  0  9G17G08G07G24G26G13G28G19G11
  -6824875.03547  -5299543.98445  22411086.5784                   22411085.5004
 -20133437.33648 -15677778.81647  20113768.8204                   20113766.9924
  -7973637.77348  -6202307.60546  20477616.5704                   20477613.5664
  -9170830.18048  -7132424.33645  22082377.1094                   22082376.5434
  -1300038.58647   -996500.46944  22924613.9694   22924612.6684   24386334.64546
  18999267.13742                  24610956.8204                   24610962.5744
 -13905934.13348 -10829560.12545  21908120.5234                   21908116.9694
  17717029.17647  13808999.13344  24401972.2664                   24401969.4774
 -16650883.34448 -12968185.71545  21536260.2734                   21536257.3634
 11  8 10 19 35 30.0000000  0  8G17G08G07G24G26G28G19G11
  -6944758.43447  -5392959.53945  22388272.7974                   22388272.2234
 -20202257.31648 -15731404.77346  20100672.8594                   20100670.5044
  -7981714.22348  -6208600.95346  20476079.8364                   20476076.9804
  -9245936.94947  -7190949.03145  22068084.3754                   22068084.1484
  -1379205.80147  -1058189.18444  22909548.4144   22909547.4024
 -13971581.40248 -10880713.82846  21895627.8364                   21895624.7304
  17781457.36747  13859202.84044  24414233.0314                   24414229.7194
 -16679060.35948 -12990141.81646  21530898.2114                   21530895.6884
 11  8 10 19 36  0.0000000  0  8G17G08G07G24G26G28G19G11
  -7064368.12547  -5486161.80545  22365511.8914                   22365511.1134
 -20270662.81648 -15784707.75446  20087655.9614                   20087653.6024
  -7989345.41848  -6214547.36346  20474627.5314                   20474625.0864
  -9320608.62147  -7249134.70745  22053875.5084                   22053874.8324
  -1457823.14147  -1119449.43044  22894588.2664   22894586.7074
 -14037222.81648 -10931862.97746  21883137.0314                   21883133.6724
  17845889.80147  13909409.86744  24426493.8914                   24426490.6024
 -16706695.49648 -13011675.68445  21525639.5314                   21525637.0704
 11  8 10 19 36 30.0000000  0  8G17G08G07G24G26G28G19G11
  -7183702.66448  -5579149.67245  22342803.9614                   22342802.1724
 -20338651.52048 -15837685.96546  20074718.0634                   20074716.0984
  -7996530.94948  -6220146.49646  20473260.0634                   20473257.4574
  -9394842.75047  -7306979.42645  22039749.0864                   22039748.5864
  -1535889.49647  -1180280.31244  22879732.1804   22879731.3364
 -14102858.60548 -10983007.73045  21870646.6414                   21870643.3324
  17910324.27746  13959618.48044  24438754.6644                   24438752.7624
 -16733788.53148 -13032787.13345  21520483.9534                   21520480.8404
 11  8 10 19 37  0.0000000  0  8G17G08G07G24G26G28G19G11
  -7302758.53947  -5671920.39845  22320148.1254                   22320146.3364
 -20406218.69148 -15890335.71146  20061860.1644                   20061857.7624
  -8003268.22748  -6225396.36346  20471978.2194                   20471975.4964
  -9468634.66847  -7364479.58645  22025706.6254                   22025706.4024
  -1613401.43447  -1240679.22744  22864982.9384   22864981.2274
 -14168486.68747 -11034146.47746  21858157.7504                   21858154.8204
  17974760.90246  14009828.77744  24451017.0004                   24451014.4064
 -16760336.79348 -13053474.09445  21515431.8054                   21515429.2114
 11  8 10 19 37 30.0000000  0  8G17G08G07G24G26G28G19G11
  -7421535.28948  -5764473.61745  22297545.8054                   22297544.2704
 -20473363.02748 -15942655.96546  20049083.1954                   20049081.1604
  -8009558.06248  -6230297.56246  20470781.3284                   20470778.3984
  -9541983.08647  -7421634.16045  22011748.6254                   22011748.6524
  -1690358.57847  -1300645.80944  22850338.3754   22850336.6294
 -14234108.22347 -11085280.12546  21845670.8364                   21845667.0744
  18039196.78146  14060038.45343  24463278.2664                   24463276.1054
 -16786341.41848 -13073737.44145  21510483.3284                   21510480.5474
 11  8 10 19 38  0.0000000  0  8G17G08G07G24G26G28G19G11
  -7540039.30148  -5856814.31645  22274995.2114                   22274993.5204
 -20540090.34848 -15994651.28146  20036385.4064                   20036383.0434
  -8015407.84848  -6234855.87146  20469668.2814                   20469665.4064
  -9614893.47747  -7478447.40245  21997874.2894                   21997874.3284
  -1766767.78547  -1360185.43044  22835797.4774   22835796.7734
 -14299731.10548 -11136414.81646  21833182.8444                   21833179.5164
  18103622.16446  14110239.98844  24475538.8834                   24475535.5784
 -16811810.01248 -13093583.09445  21505636.8134                   21505634.3404
 11  8 10 19 38 30.0000000  0  8G17G08G07G24G26G28G19G11
  -7658274.15648  -5948945.28545  22252495.5314                   22252494.1414
 -20606403.21948 -16046323.64846  20023766.6254                   20023764.0554
  -8020822.28948  -6239074.94546  20468637.5784                   20468634.7854
  -9687368.70747  -7534921.55945  21984082.6484                   21984082.5664
  -1842632.51247  -1419300.77344  22821361.1334   22821360.2504
 -14365360.30548 -11187554.43745  21820694.1414                   21820691.0664
  18168030.15646  14160427.94543  24487794.9304                   24487792.8594
 -16836747.80948 -13113015.14145  21500891.2194                   21500888.5904
 11  8 10 19 39  0.0000000  0  8G17G08G07G24G26G28G19G11
  -7776242.82048  -6040868.83245  22230046.7504                   22230045.0904
 -20672303.60548 -16097674.59846  20011226.2114                   20011224.0274
  -8025805.72748  -6242958.17646  20467689.6024                   20467686.8634
  -9759411.03547  -7591058.38745  21970373.7194                   21970373.0474
  -1917956.45347  -1477994.73844  22807027.6254   22807026.7894
 -14431000.68748 -11238702.76246  21808203.3674                   21808199.5434
  18232414.03546  14210597.13344  24500046.8834                   24500044.4304
 -16861159.53548 -13132037.24645  21496246.0784                   21496243.2234
 11  8 10 19 39 30.0000000  0  8G17G08G07G24G26G28G19G11
  -7893947.80548  -6132586.90645  22207647.9144                   22207646.5944
 -20737792.69948 -16148705.06246  19998764.0394                   19998761.8284
  -8030361.27048  -6246507.99646  20466822.5084                   20466819.5944
  -9831021.71947  -7646858.87145  21956746.2584                   21956746.0004
  -1992741.94147  -1536269.12944  22792796.0004   22792795.3594
 -14496655.87548 -11289862.62545  21795709.3984                   21795705.9804
  18296768.14146  14260743.10243  24512292.9224                   24512290.3594
 -16885048.08648 -13150651.69545  21491700.0864                   21491697.3874
 11  8 10 19 40  0.0000000  0  8G17G08G07G24G26G28G19G11
  -8011389.08647  -6224099.50845  22185299.4384                   22185298.4924
 -20802869.97348 -16199414.62546  19986380.0704                   19986377.7344
  -8034490.35248  -6249725.50046  20466036.9694                   20466034.2974
  -9902200.09047  -7702322.49245  21943201.8444                   21943200.9104
  -2066989.52047  -1594124.39544  22778666.9384   22778666.5084
 -14562327.40648 -11341035.22346  21783212.5944                   21783209.1374
  18361089.64146  14310863.72743  24524532.7504                   24524530.5164
 -16908415.01648 -13168859.68445  21487253.5704                   21487250.7664
 11  8 10 19 40 30.0000000  0  8G17G08G07G24G26G28G19G11
  -8128565.53148  -6315405.73845  22163001.4694                   22163000.7464
 -20867533.46948 -16249801.77347  19974075.0394                   19974072.5784
  -8038193.09447  -6252610.78946  20465332.2114                   20465329.4534
  -9972944.50447  -7757447.97345  21929739.0474                   21929738.7664
  -2140698.64847  -1651560.07844  22764641.2664   22764640.4384
 -14628015.65648 -11392220.85246  21770712.0314                   21770709.1054
  18425375.84446  14360956.84443  24536766.7034                   24536763.5004
 -16931260.77748 -13186661.57045  21482906.1414                   21482903.2384
 11  8 10 19 41  0.0000000  0  8G17G08G07G24G26G28G19G11
  -8245475.82448  -6406504.57845  22140754.2974                   22140753.1374
 -20931780.35248 -16299864.28546  19961849.3054                   19961847.1764
  -8041469.23448  -6255163.65246  20464708.6174                   20464705.7894
 -10043252.63347  -7812233.48445  21916360.0474                   21916359.2774
  -2213867.94947  -1708575.11744  22750717.5394   22750716.1334
 -14693720.44148 -11443419.35946  21758209.2034                   21758206.2424
  18489625.04746  14411021.09843  24548992.4454                   24548989.9344
 -16953585.36748 -13204057.35545  21478657.9384                   21478655.2154
 11  8 10 19 41 30.0000000  0  8G17G08G07G24G26G28G19G11
  -8362118.34448  -6497394.77345  22118557.6254                   22118556.3164
 -20995607.77048 -16349599.93746  19949703.5394                   19949701.0354
  -8044318.00048  -6257383.50046  20464166.9304                   20464164.0664
 -10113121.96147  -7866677.07045  21903064.3134                   21903063.7664
  -2286496.09447  -1765168.45344  22736896.5164   22736895.5824
 -14759441.71548 -11494630.71946  21745703.0164                   21745699.8284
  18553835.74646  14461055.38343  24561211.4064                   24561208.0394
 -16975388.69548 -13221046.96545  21474508.9064                   21474506.2074
 11  8 10 19 42  0.0000000  0  8G17G08G07G24G26G28G19G11
  -6903065.94548  -5360470.75046  22396206.4694                   22396205.2734
 -19483590.26248 -15171404.48446  20237431.0084                   20237428.5204
  -6471317.84848  -5031669.13346  20763498.5944                   20763495.8284
  -8607126.58647  -6693174.12945  22189646.1254                   22189645.1024
   -783158.16047   -593736.26644  23022972.7114   23022971.2034
 -13249755.75848 -10318252.03146  22032986.7424                   22032983.3444
  20193425.27346  15738657.54743  24873215.5314                   24873212.1454
 -15421248.32448 -12010028.49645  21770251.8054                   21770248.4224
 11  8 10 19 42 30.0000000  0  8G17G08G07G24G26G28G19G11
  -7019162.00448  -5450935.13746  22374114.1564                   22374112.4064
 -19546566.28948 -15220476.72746  20225447.1414                   20225444.4384
  -6473305.28148  -5033217.81246  20763120.6724                   20763117.5864
  -8676105.41847  -6746923.82045  22176518.9844                   22176518.9024
   -854694.78147   -649479.05944  23009359.1884   23009358.8834
 -13315503.69548 -10369484.18446  22020475.1724                   22020472.1254
  20257559.63346  15788632.35943  24885418.9844                   24885416.6884
 -15442002.45748 -12026200.55545  21766302.8444                   21766299.8204
 11  8 10 19 43  0.0000000  0  8G17G08G07G24G26G28G19G11
  -7134977.73448  -5541181.10245  22352074.8054                   22352073.1764
 -19609108.17248 -15269210.66846  20213545.2344                   20213542.9844
  -6474856.37148  -5034426.48846  20762825.2894                   20762822.9224
  -8744630.50447  -6800319.93445  22163479.4064                   22163479.0084
   -925678.93447   -704791.38344  22995851.0314   22995850.5784
 -13381259.46148 -10420722.43746  22007962.1174                   22007959.1564
  20321658.25446  15838579.28143  24897617.1094                   24897614.0824
 -15462226.84048 -12041959.81245  21762454.0084                   21762451.2664
 11  8 10 19 43 30.0000000  0  8G17G08G07G24G26G28G19G11
  -7250510.50447  -5631206.57845  22330089.8444                   22330088.3794
 -19671212.06248 -15317603.30946  20201727.3594                   20201725.3524
  -6475969.71148  -5035294.04346  20762613.5164                   20762610.8094
  -8812698.35547  -6853359.77045  22150526.9924                   22150526.3094
   -996108.42647   -759671.48044  22982449.0394   22982447.3714
 -13447021.98048 -10471965.94946  21995447.8444                   21995444.8094
  20385720.50446  15888497.89543  24909807.7114                   24909804.8284
 -15481920.42248 -12057305.46145  21758706.3594                   21758703.7734
 11  8 10 19 44  0.0000000  0  8G17G08G07G24G26G28G19G11
  -7365754.43048  -5721006.96945  22308159.1484                   22308158.3484
 -19732871.75448 -15365649.82846  20189993.8754                   20189991.6684
  -6476641.02748  -5035817.17246  20762486.0864                   20762483.0004
  -8880302.46547  -6906038.24645  22137661.8204                   22137661.3204
  -1065977.87547   -814115.17644  22969153.6804   22969151.9774
 -13512786.52748 -10523211.05146  21982933.6094                   21982930.7854
  20449749.30546  15938390.45343  24921991.8984                   24921989.0434
 -15501079.01648 -12072234.24245  21755060.8834                   21755057.9104
 11  8 10 19 44 30.0000000  0  7G17G08G07G24G26G28G11
  -7480707.40248  -5810580.64545  22286284.6334                   22286283.1094
 -19794083.67648 -15413347.43446  20178345.6254                   20178343.4774
  -6476868.99648  -5035994.84446  20762442.4384                   20762440.1884
  -8947439.87547  -6958353.05945  22124886.0004                   22124885.7664
  -1135285.53947   -868121.13344  22955964.7584   22955963.3284
 -13578552.28948 -10574457.08646  21970418.5314                   21970415.3714
 -15519701.60548 -12086745.35545  21751516.8754                   21751513.7274
 11  8 10 19 45  0.0000000  0  7G17G08G07G24G26G28G11
  -7595367.40248  -5899926.02346  22264465.3754                   22264463.7424
 -19854844.66448 -15460693.66446  20166783.5084                   20166780.8794
  -6476653.02748  -5035826.58246  20762483.7504                   20762480.8914
  -9014108.04747  -7010302.23845  22112199.5084                   22112198.9654
  -1204029.94947   -921688.19944  22942882.5554   22942881.6764
 -13644318.87148 -10625703.77046  21957903.7034                   21957900.9454
 -15537788.16448 -12100838.78145  21748075.0704                   21748072.0164
 11  8 10 19 45 30.0000000  0  7G17G08G07G24G26G28G11
  -7709728.16848  -5989038.23445  22242703.0234                   22242701.5204
 -19915147.88748 -15507683.19547  20155307.7504                   20155305.7424
  -6475987.71548  -5035308.18046  20762610.1564                   20762607.5124
  -9080299.98047  -7061880.33245  22099603.3134                   22099602.9654
  -1272205.44147   -974811.94544  22929909.3594   22929908.4224
 -13710081.03548 -10676946.99646  21945389.6644                   21945386.3244
 -15555333.64548 -12114510.58645  21744736.2974                   21744733.5634
 11  8 10 19 46  0.0000000  0  7G17G08G07G24G26G28G11
  -7823782.64148  -6077911.78546  22220999.1644                   22220998.0744
 -19974985.63348 -15554310.01646  20143921.6414                   20143919.2854
  -6474867.73448  -5034435.50446  20762823.5784                   20762820.8674
  -9146007.93047  -7113081.28545  22087099.7584                   22087099.3204
  -1339805.10947  -1027487.02044  22917045.9844   22917044.4574
 -13775832.45748 -10728181.85946  21932877.3524                   21932873.8874
 -15572332.67248 -12127756.58245  21741501.8284                   21741498.8484
 11  8 10 19 46 30.0000000  0  7G17G08G07G24G26G28G11
  -7937527.91448  -6166544.40245  22199354.2274                   22199352.5944
 -20034353.37548 -15600570.59846  20132624.2194                   20132622.0784
  -6473291.05948  -5033206.93746  20763123.9454                   20763120.8524
  -9211228.02047  -7163902.09445  22074688.7664                   22074688.0124
  -1406826.72347  -1079711.65644  22904292.4224   22904290.1524
 -13841571.84048 -10779407.33646  21920367.6484                   21920364.5234
 -15588783.71148 -12140575.58245  21738371.2664                   21738368.2424
 11  8 10 19 47  0.0000000  0  7G17G08G07G24G26G28G11
  -8050963.05948  -6254935.35945  22177768.3134                   22177766.5594
 -20093249.36748 -15646463.57846  20121416.6954                   20121414.4414
  -6471258.06648  -5031622.82046  20763510.5004                   20763507.7304
  -9275958.66047  -7214341.51645  22062370.8674                   22062370.2034
  -1473269.64847  -1131485.37144  22891647.9774   22891647.5474
 -13907299.27748 -10830623.49246  21907860.2274                   21907856.7344
 -15604687.38348 -12152968.05545  21735344.4694                   21735341.9224
 11  8 10 19 47 30.0000000  0  7G17G08G07G24G26G28G11
  -8164088.98848  -6343085.37546  22156241.3204                   22156239.2934
 -20151674.06248 -15691989.32446  20110298.6024                   20110296.5944
  -6468770.94148  -5029684.83646  20763983.5084                   20763981.5944
  -9340200.48447  -7264400.04345  22050146.0234                   22050145.4264
  -1539135.76647  -1182809.61344  22879114.0944   22879112.7894
 -13973017.19548 -10881832.25446  21895354.8054                   21895351.2034
 -15620046.43448 -12164936.15245  21732421.9614                   21732418.9344
 11  8 10 19 48  0.0000000  0  7G17G08G07G24G26G28G11
  -8276907.75048  -6430996.04346  22134772.3134                   22134770.4734
 -20209628.55548 -15737148.66846  20099270.5004                   20099267.9414
  -6465833.18448  -5027395.71146  20764542.8054                   20764540.3524
  -9403954.50047  -7314078.45745  22038013.7274                   22038013.6564
  -1604427.59846  -1233686.33244  22866689.6884   22866688.6454
 -14038728.70748 -10933036.00446  21882849.9144                   21882846.6604
 -15634864.40648 -12176482.63345  21729601.9534                   21729599.0314
 11  8 10 19 48 30.0000000  0  7G17G08G07G24G26G28G11
  -8389420.55948  -6518668.30546  22113361.6094                   22113360.2504
 -20267113.34848 -15781942.02747  20088331.6414                   20088329.0664
  -6462446.83247  -5024757.03146  20765187.5164                   20765184.5944
  -9467221.34047  -7363377.25445  22025974.8284                   22025973.8484
  -1669146.66446  -1284116.77344  22854373.9844   22854372.7194
 -14104435.69548 -10984236.21946  21870346.1254                   21870343.4414
 -15649143.71547 -12187609.37945  21726885.4304                   21726882.0704
 11  8 10 19 49  0.0000000  0  7G17G08G07G24G26G28G11
  -8501626.44148  -6606101.40646  22092009.3674                   22092008.2544
 -20324126.60548 -15826367.94547  20077482.0784                   20077479.6134
  -6458612.57448  -5021769.32846  20765916.5864                   20765914.1294
  -9529999.64848  -7412295.37945  22014028.9304                   22014028.3094
  -1733292.82047  -1334100.77044  22842167.8834   22842166.3874
 -14170138.56648 -11035433.23446  21857843.5004                   21857840.0554
 -15662885.31647 -12198317.12945  21724270.1094                   21724267.1054
 11  8 10 19 49 30.0000000  0  7G17G08G07G24G26G28G11
  -8613524.98848  -6693295.02346  22070715.9144                   22070714.7544
 -20380666.62948 -15870425.11746  20066723.0944                   20066720.4494
  -6454331.00048  -5018433.07446  20766731.7114                   20766729.2734
  -9592287.83648  -7460831.60245  22002175.3364                   22002174.3634
  -1796866.06647  -1383638.36344  22830070.0784   22830068.7544
 -14235837.82048 -11086627.43046  21845341.0944                   21845338.2774
 -15676090.60948 -12208606.98445  21721757.0784                   21721754.5864
 11  8 10 19 50  0.0000000  0  7G17G08G07G24G26G28G11
  -8725114.10948  -6780247.52746  22049481.3364                   22049479.5744
 -20436730.41448 -15914111.19146  20056054.2664                   20056051.7274
  -6449601.37948  -5014747.69146  20767631.6484                   20767628.9964
  -9654083.12547  -7508983.74645  21990416.0394                   21990415.1844
  -1859864.84047  -1432728.28944  22818081.5234   22818080.6094
 -14301532.41448 -11137817.99246  21832839.8524                   21832836.9184
 -15688758.68748 -12218478.22745  21719346.3364                   21719343.7424
 11  8 10 19 50 30.0000000  0  7G17G08G07G24G26G28G11
  -8836392.19548  -6866957.67646  22028305.8834                   22028303.8634
 -20492315.24648 -15957424.05146  20045477.0084                   20045474.1484
  -6444422.91048  -5010712.56246  20768617.3134                   20768614.6564
  -9715383.12147  -7556749.95345  21978750.8524                   21978750.0864
  -1922288.07847  -1481369.77344  22806202.9454   22806201.6024
 -14367221.71148 -11189004.44146  21820339.6644                   21820336.1644
 -15700889.52347 -12227930.84845  21717038.0314                   21717035.4304
 11  8 10 19 51  0.0000000  0  7G17G08G07G24G26G28G11
  -8947356.74648  -6953423.50046  22007189.5164                   22007188.5704
 -20547418.01248 -16000361.27046  20034991.0784                   20034989.1254
  -6438794.99248  -5006327.21546  20769688.2734                   20769685.3444
  -9776185.03547  -7604128.04745  21967181.2114                   21967179.8164
  -1984133.96947  -1529561.35944  22794434.1884   22794432.7734
 -14432904.27348 -11240185.62146  21807840.6254                   21807837.2544
 -15712482.57048 -12236964.41445  21714831.9384                   21714829.7194
 11  8 10 19 51 30.0000000  0  7G17G08G07G24G26G28G11
  -9058006.46548  -7039643.99646  21986133.5784                   21986132.1644
 -20602036.72748 -16042921.31646  20024597.7584                   20024595.1994
  -6432717.83648  -5001591.80946  20770844.7194                   20770841.9574
  -9836487.29747  -7651116.81645  21955706.0314                   21955705.0234
  -2045402.33647  -1577302.93444  22782775.1804   22782773.0044
 -14498580.19148 -11291361.64546  21795343.0234                   21795339.7274
 -15723538.47748 -12245579.41445  21712728.0234                   21712725.1914
 11  8 10 19 52  0.0000000  0  7G17G08G07G24G26G28G11
  -9168342.08648  -7125619.75445  21965137.6334                   21965135.8324
 -20656170.69548 -16085103.62947  20014296.1724                   20014293.9774
  -6426192.93748  -4996507.51246  20772086.3284                   20772083.7504
  -9896289.84847  -7697716.19545  21944325.5164                   21944324.6524
  -2106094.27747  -1624595.34844  22771225.5634   22771224.2114
 -14564250.65248 -11342533.40646  21782846.3204                   21782843.1564
 -15734059.03548 -12253777.27045  21710726.1954                   21710723.0984
 11  8 10 19 52 30.0000000  0  7G17G08G07G24G26G28G11
  -9278361.98447  -7211349.50046  21944201.3444                   21944199.5394
 -20709817.92648 -16126906.66846  20004087.4454                   20004085.0904
  -6419220.34048  -4991074.35946  20773413.2114                   20773410.8284
  -9955590.31247  -7743924.33645  21933041.1024                   21933040.1604
  -2166208.74247  -1671437.77344  22759786.8444   22759785.3404
 -14629915.09448 -11393700.47746  21770350.8364                   21770346.7894
 -15744044.84847 -12261558.42245  21708826.0234                   21708822.7234
 11  8 10 19 53  0.0000000  0  7G17G08G07G24G26G28G11
  -9388065.58648  -7296832.77046  21923325.6484                   21923323.8404
 -20762976.70348 -16168329.09047  19993971.7814                   19993969.3754
  -6411800.39148  -4985292.62946  20774825.3134                   20774822.9654
 -10014387.48848  -7789740.32045  21921852.4614                   21921851.3204
  -2225745.93747  -1717830.39844  22748456.6334   22748456.0004
 -14695574.27048 -11444863.45346  21757856.2894                   21757853.2504
 -15753496.50048 -12268923.35545  21707027.2974                   21707024.7854
 11  8 10 19 53 30.0000000  0  7G17G08G07G24G26G28G11
  -9497450.94548  -7382068.05946  21902510.6334                   21902508.7074
 -20815644.28548 -16209368.77346  19983949.4064                   19983947.0904
  -6403932.89148  -4979162.14846  20776322.5944                   20776320.1604
 -10072679.02748  -7835162.28145  21910759.5704                   21910758.9884
  -2284704.76247  -1763772.34844  22737237.3054   22737235.6804
 -14761226.44148 -11496020.96546  21745363.0784                   21745359.4614
 -15762414.03148 -12275872.08245  21705330.4304                   21705327.7154
 11  8 10 19 54  0.0000000  0  7G17G08G07G24G26G28G11
  -9606519.68048  -7467056.62546  21881755.1804                   21881753.0354
 -20867821.57848 -16250026.40247  19974020.7344                   19974018.1024
  -6395620.38748  -4972684.91446  20777904.4384                   20777901.6214
 -10130465.80147  -7880190.91845  21899763.3914                   21899762.2814
  -2343087.44147  -1809265.35244  22726127.6804   22726126.4024
 -14826874.07448 -11547174.95346  21732870.4454                   21732867.1724
 -15770800.75048 -12282407.18745  21703734.6024                   21703731.6564
 11  8 10 19 54 30.0000000  0  7G17G08G07G24G26G28G11
  -9715270.05148  -7551797.12546  21861060.3594                   21861058.2114
 -20919506.24248 -16290300.18046  19964185.2034                   19964182.7814
  -6386862.62548  -4965860.72346  20779570.5314                   20779568.2934
 -10187745.60547  -7924824.51245  21888863.0164                   21888862.6294
  -2400893.01647  -1854308.65644  22715127.4534   22715126.3094
 -14892516.85248 -11598325.14846  21720378.7664                   21720375.8204
 -15778656.55148 -12288528.58645  21702239.5864                   21702237.0354
 11  8 10 19 55  0.0000000  0  7G17G08G07G24G26G28G11
  -9823700.18747  -7636288.09046  21840426.9844                   21840425.2114
 -20970695.08248 -16330187.58647  19954444.3284                   19954442.0124
  -6377658.84048  -4958688.98446  20781322.0554                   20781319.6914
 -10244515.92647  -7969061.11345  21878060.2424                   21878059.4924
  -2458120.30947  -1898901.35244  22704238.0704   22704236.6724
 -14958153.34848 -11649470.45746  21707888.9694                   21707885.4844
 -15785981.30147 -12294236.18045  21700845.8914                   21700842.6294
 11  8 10 19 55 30.0000000  0  7G17G08G07G24G26G28G11
  -9931809.89147  -7720529.35546  21819854.1484                   21819852.4734
 -21021387.48048 -16369688.17646  19944798.0084                   19944795.6484
  -6368010.69548  -4951170.99246  20783158.0784                   20783155.6954
 -10300776.37947  -8012900.41445  21867354.1954                   21867353.3164
  -2514770.03947  -1943044.00844  22693457.5004   22693456.3554
 -15023784.38748 -11700611.51246  21695399.8674                   21695396.3054
 -15792776.82047 -12299531.38745  21699552.5784                   21699550.2464
 11  8 10 19 56  0.0000000  0  7G17G08G07G24G26G28G11
 -10039599.27747  -7804521.04346  21799342.5004                   21799340.6644
 -21071582.77748 -16408801.40646  19935246.0944                   19935243.8284
  -6357919.40248  -4943307.68446  20785078.4924                   20785076.3014
 -10356526.31247  -8056341.90245  21856745.6094                   21856744.3204
  -2570843.20747  -1986737.37144  22682787.2114   22682786.1884
 -15089411.10948 -11751749.19546  21682911.3524                   21682908.3754
 -15799044.73447 -12304415.47345  21698359.3284                   21698357.1174
 11  8 10 19 56 30.0000000  0  7G17G08G07G24G26G28G11
 -10147066.41847  -7888261.61346  21778892.4924                   21778890.3164
 -21121277.57848 -16447524.63346  19925789.4384                   19925786.7704
  -6347384.07048  -4935098.38346  20787083.6024                   20787081.3164
 -10411763.05547  -8099383.49645  21846233.8984                   21846233.3984
  -2626338.21547  -2029980.22345  22672226.6414   22672224.8054
 -15155031.31648 -11802881.80946  21670424.4454                   21670420.7074
 -15804784.92648 -12308888.34045  21697267.1024                   21697264.8094
 11  8 10 19 57  0.0000000  0  7G17G08G07G24G26G28G11
 -10254210.20747  -7971750.22746  21758503.5944                   21758501.3634
 -21170470.30548 -16485856.63746  19916428.3284                   19916425.9804
  -6336405.49248  -4926543.68446  20789172.8594                   20789170.4774
 -10466485.12547  -8142024.05545  21835821.1484                   21835820.0634
  -2681255.02347  -2072772.52344  22661775.8754   22661775.5354
 -15220645.41048 -11854009.66046  21657938.3134                   21657935.3204
 -15809998.03947 -12312950.49645  21696275.1724                   21696272.6094
 11  8 10 19 57 30.0000000  0  7G17G08G07G24G26G28G11
 -10361031.55147  -8054987.58646  21738176.1414                   21738174.2034
 -21219161.12148 -16523797.54746  19907163.0164                   19907160.6294
  -6324985.62148  -4917645.12546  20791346.0004                   20791343.2424
 -10520692.94148  -8184263.88745  21825505.3364                   21825504.6804
  -2735595.35547  -2115115.62545  22651435.1484   22651435.6054
 -15286254.80948 -11905133.84846  21645453.1414                   21645450.0314
 -15814686.43047 -12316603.79345  21695383.0554                   21695380.2624
 11  8 10 19 58  0.0000000  0  7G17G08G07G24G26G28G11
 -10467529.26647  -8137972.76246  21717910.2734                   21717908.4104
 -21267347.89148 -16561345.69546  19897993.0004                   19897991.2034
  -6313124.87148  -4908403.02046  20793602.6334                   20793600.0634
 -10574385.11748  -8226101.92645  21815288.5234                   21815287.0784
  -2789359.14547  -2157009.47344  22641204.5704   22641204.1024
 -15351859.32448 -11956254.24246  21632969.2894                   21632965.9884
 -15818851.38748 -12319849.22345  21694590.5944                   21694587.9264
 11  8 10 19 58 30.0000000  0  7G17G08G07G24G26G28G11
 -10573705.39547  -8220707.35246  21697705.2584                   21697703.7114
 -21315031.89848 -16598502.08246  19888919.3134                   19888916.8094
  -6300826.32848  -4898819.78946  20795943.5394                   20795940.9964
 -10627563.02348  -8267539.24245  21805169.2274                   21805167.7624
  -2842548.95747  -2198456.07044  22631082.8284   22631082.2344
 -15417461.25448 -12007372.60546  21620485.6024                   21620482.1134
 -15822496.34848 -12322689.46545  21693897.4144                   21693894.1804
 11  8 10 19 59  0.0000000  0  7G17G08G07G24G26G28G11
 -10679560.09447  -8303191.48446  21677561.4454                   21677559.6414
 -21362212.04748 -16635265.84846  19879941.2274                   19879938.8674
  -6288091.48448  -4888896.57446  20798366.5474                   20798364.1414
 -10680226.37148  -8308575.60245  21795147.1024                   21795146.6054
  -2895166.14147  -2239456.45344  22621070.1484   22621069.2384
 -15483061.84048 -12058489.93746  21608002.0474                   21607998.2304
 -15825623.39848 -12325126.14845  21693301.7814                   21693299.4534
 11  8 10 19 59 30.0000000  0  7G17G08G07G24G26G28G11
 -10785096.13347  -8385427.30946  21657479.0004                   21657477.3444
 -21408891.48448 -16671639.44946  19871058.0784                   19871056.0984
  -6274925.34048  -4878637.27746  20800871.6094                   20800869.4654
 -10732377.49648  -8349212.82445  21785223.3284                   21785222.2734
  -2947214.43747  -2280013.57844  22611165.6174   22611164.1214
 -15548664.36348 -12109608.76646  21595518.3914                   21595514.9024
 -15828237.50048 -12327163.11345  21692804.5004                   21692801.7934
 11  8 10 20  0  0.0000000  0  7G17G08G07G24G26G28G11
 -10890316.72747  -8467417.31646  21637456.1094                   21637454.1414
 -21455071.59048 -16707623.96946  19862270.7814                   19862268.3014
  -6261331.53148  -4868044.73846  20803458.9614                   20803456.2734
 -10784018.85948  -8389452.84045  21775396.0004                   21775395.1334
  -2998697.57847  -2320130.30944  22601369.1644   22601367.2074
 -15614272.33248 -12160731.84046  21583033.4454                   21583029.8054
 -15830342.96548 -12328803.73845  21692403.9224                   21692401.3634
 11  8 10 20  0 30.0000000  0  7G17G08G07G24G26G28G11
  -9419799.98447  -7321560.07446  21917286.4694                   21917284.2344
 -19925332.07448 -15515619.17646  20153370.3754                   20153368.1684
  -4671893.72348  -3629521.80946  21105919.1804                   21105916.3204
  -9259729.97347  -7201695.25045  22065458.5944                   22065458.0824
  -1474196.45347  -1132207.35544  22891472.0234   22891470.5554
 -14104465.70348 -10984259.13346  21870340.0314                   21870336.7424
 -14256523.30948 -11102450.77345  21991891.4224                   21991888.6524
 11  8 10 20  1  0.0000000  0  7G17G08G07G24G26G28G11
  -9524395.89847  -7403063.34846  21897382.2974                   21897380.3054
 -19970518.00848 -15550829.00846  20144771.5864                   20144769.6564
  -4657455.61348  -3618271.37946  21108666.3984                   21108663.7274
  -9310357.27347  -7241145.07445  22055824.8364                   22055824.0904
  -1524558.58247  -1171450.58644  22881888.1564   22881887.3714
 -14170092.41448 -11035396.82046  21857851.5004                   21857848.6994
 -14257623.65648 -11103308.19145  21991682.5084                   21991679.5784
